[[{"header":{"parameterUnit":"m.s-1","parameterCategory":1,"la1":30.6,"la2":29.2853,"lo1":-89.7004,"lo2":-87.6739,"dy":0.0162,"dx":0.0183,"nx":112,"ny":82,"refTime":"2023-05-04T12:00:00:Z","depth":0,"parameterNumber":2,"parameterNumberName":"U-component_of_WINDS"},"data":[0.0,0.0,0.0,0.0,0.0,0.0,0.0,0.0,0.0,0.0,0.0,0.0,0.0,0.0,0.0,0.0,0.0,0.0,0.0,0.0,0.0,0.0,0.0,0.0,0.0,0.0,0.0,0.0,0.0,0.0,0.0,0.0,0.0,0.0,0.0,0.0,0.0,0.0,0.0,0.0,0.0,0.0,0.0,0.0,0.0,0.0,0.0,0.0,0.0,0.0,0.0,0.0,0.0,0.0,0.0,0.0,0.0,0.0,0.0,0.0,0.0,0.0,0.0,0.0,0.0,0.0,0.0,0.0,0.0,0.0,0.0,0.0,0.0,0.0,0.0,0.0,0.0,0.0,0.0,0.0,0.0,0.0,0.0,0.0,0.0,0.0,0.0,0.0,0.0,0.0,-3.7745,-3.9993,-4.3763,-4.6137,-4.6161,-4.4616,-4.2342,-3.9271,0.0,0.0,0.0,0.0,0.0,0.0,0.0,0.0,0.0,0.0,0.0,0.0,0.0,0.0,0.0,0.0,0.0,0.0,0.0,0.0,0.0,0.0,0.0,0.0,0.0,0.0,0.0,0.0,0.0,0.0,0.0,0.0,0.0,0.0,0.0,0.0,0.0,0.0,0.0,0.0,0.0,0.0,0.0,0.0,0.0,0.0,0.0,0.0,0.0,0.0,0.0,0.0,0.0,0.0,0.0,0.0,0.0,0.0,0.0,0.0,0.0,0.0,0.0,0.0,0.0,0.0,0.0,0.0,0.0,0.0,0.0,0.0,0.0,0.0,0.0,0.0,0.0,0.0,0.0,0.0,0.0,0.0,0.0,0.0,0.0,0.0,0.0,0.0,0.0,0.0,0.0,0.0,0.0,0.0,0.0,0.0,0.0,0.0,0.0,0.0,0.0,0.0,0.0,0.0,-3.9677,-4.4822,-4.4785,-4.4944,-4.6323,-4.3676,-4.1241,-3.9541,0.0,0.0,0.0,0.0,0.0,0.0,0.0,0.0,0.0,0.0,0.0,0.0,0.0,0.0,0.0,0.0,0.0,0.0,0.0,0.0,0.0,0.0,0.0,0.0,0.0,0.0,0.0,0.0,0.0,0.0,0.0,0.0,0.0,0.0,0.0,0.0,0.0,0.0,0.0,0.0,0.0,0.0,0.0,0.0,0.0,0.0,0.0,0.0,0.0,0.0,0.0,0.0,0.0,0.0,0.0,0.0,0.0,0.0,0.0,0.0,0.0,0.0,0.0,0.0,0.0,0.0,0.0,0.0,0.0,0.0,0.0,0.0,0.0,0.0,0.0,0.0,0.0,0.0,0.0,0.0,0.0,0.0,0.0,0.0,0.0,0.0,0.0,0.0,0.0,0.0,0.0,0.0,0.0,0.0,0.0,0.0,0.0,0.0,0.0,0.0,0.0,0.0,0.0,-3.7912,-4.042,-4.5324,-4.4729,-4.4547,-4.5891,-4.3403,-4.117,-3.9743,-3.8696,0.0,0.0,0.0,0.0,0.0,0.0,0.0,0.0,0.0,0.0,0.0,0.0,0.0,0.0,0.0,0.0,0.0,0.0,0.0,0.0,0.0,0.0,0.0,0.0,0.0,0.0,0.0,0.0,0.0,0.0,0.0,0.0,0.0,0.0,0.0,0.0,0.0,0.0,0.0,0.0,0.0,0.0,0.0,0.0,0.0,0.0,0.0,0.0,0.0,0.0,0.0,0.0,0.0,0.0,0.0,0.0,0.0,0.0,0.0,0.0,0.0,0.0,0.0,0.0,0.0,0.0,0.0,0.0,0.0,0.0,0.0,0.0,0.0,0.0,0.0,0.0,0.0,0.0,0.0,0.0,0.0,0.0,0.0,0.0,0.0,0.0,0.0,0.0,0.0,0.0,0.0,0.0,0.0,0.0,0.0,0.0,0.0,0.0,0.0,0.0,0.0,0.0,-3.9974,-4.12,-4.5157,-4.4636,-4.4336,-4.5155,-4.2772,-4.0709,-3.9441,-3.785,0.0,0.0,0.0,0.0,0.0,0.0,0.0,0.0,0.0,0.0,0.0,0.0,0.0,0.0,0.0,0.0,0.0,0.0,0.0,0.0,0.0,0.0,0.0,0.0,0.0,0.0,0.0,0.0,0.0,0.0,0.0,0.0,0.0,0.0,0.0,0.0,0.0,0.0,0.0,0.0,0.0,0.0,0.0,0.0,0.0,0.0,0.0,0.0,0.0,0.0,0.0,0.0,0.0,0.0,0.0,0.0,0.0,0.0,0.0,0.0,0.0,0.0,0.0,0.0,0.0,0.0,0.0,0.0,0.0,0.0,0.0,0.0,0.0,0.0,0.0,0.0,0.0,0.0,0.0,0.0,0.0,0.0,0.0,0.0,0.0,0.0,0.0,0.0,0.0,0.0,0.0,0.0,0.0,0.0,0.0,0.0,0.0,0.0,0.0,0.0,0.0,0.0,-4.0996,-4.2705,-4.6067,-4.4971,-4.4023,-4.411,-4.1155,-3.8938,-3.809,-3.6005,0.0,0.0,0.0,0.0,0.0,0.0,0.0,0.0,0.0,0.0,0.0,0.0,0.0,0.0,0.0,0.0,0.0,0.0,0.0,0.0,0.0,0.0,0.0,0.0,0.0,0.0,0.0,0.0,0.0,0.0,0.0,0.0,0.0,0.0,0.0,0.0,0.0,0.0,0.0,0.0,0.0,0.0,0.0,0.0,0.0,0.0,0.0,0.0,0.0,0.0,0.0,0.0,0.0,0.0,0.0,0.0,0.0,0.0,0.0,0.0,0.0,0.0,0.0,0.0,0.0,0.0,0.0,0.0,0.0,0.0,0.0,0.0,0.0,0.0,0.0,0.0,0.0,0.0,0.0,0.0,0.0,0.0,0.0,0.0,0.0,0.0,0.0,0.0,0.0,0.0,0.0,0.0,0.0,0.0,0.0,0.0,0.0,0.0,0.0,0.0,0.0,0.0,-4.0163,-4.1748,-4.4594,-4.4316,-4.3738,-4.3299,-4.1316,-3.9458,-3.7981,0.0,0.0,0.0,0.0,0.0,0.0,0.0,0.0,0.0,0.0,0.0,0.0,0.0,0.0,0.0,0.0,0.0,0.0,0.0,0.0,0.0,0.0,0.0,0.0,0.0,0.0,0.0,0.0,0.0,0.0,0.0,0.0,0.0,0.0,0.0,0.0,0.0,0.0,0.0,0.0,0.0,0.0,0.0,0.0,0.0,0.0,0.0,0.0,0.0,0.0,0.0,0.0,0.0,0.0,0.0,0.0,0.0,0.0,0.0,0.0,0.0,0.0,0.0,0.0,0.0,0.0,0.0,0.0,0.0,0.0,0.0,0.0,0.0,0.0,0.0,0.0,0.0,0.0,0.0,0.0,0.0,0.0,0.0,0.0,0.0,0.0,0.0,0.0,0.0,0.0,0.0,0.0,0.0,0.0,0.0,0.0,0.0,0.0,0.0,0.0,0.0,0.0,-3.8522,-3.9834,-4.136,-4.3627,-4.3643,-4.3066,-4.2035,-4.0347,-3.8723,-3.7193,0.0,0.0,0.0,0.0,0.0,0.0,0.0,0.0,0.0,0.0,0.0,0.0,0.0,0.0,0.0,0.0,0.0,0.0,0.0,0.0,0.0,0.0,0.0,0.0,0.0,0.0,0.0,0.0,0.0,0.0,0.0,0.0,0.0,0.0,0.0,0.0,0.0,0.0,0.0,0.0,0.0,0.0,0.0,0.0,0.0,0.0,0.0,0.0,0.0,0.0,0.0,0.0,0.0,0.0,0.0,0.0,0.0,0.0,0.0,0.0,0.0,0.0,0.0,0.0,0.0,0.0,0.0,0.0,0.0,0.0,0.0,0.0,0.0,0.0,0.0,0.0,0.0,0.0,0.0,0.0,0.0,0.0,0.0,0.0,0.0,0.0,0.0,0.0,0.0,0.0,0.0,0.0,0.0,0.0,0.0,0.0,0.0,0.0,0.0,0.0,0.0,0.0,-3.8596,-4.0295,-4.1939,-4.3619,-4.3081,-4.1918,-4.0258,-3.7913,-3.6204,0.0,0.0,0.0,0.0,0.0,0.0,0.0,0.0,0.0,0.0,0.0,0.0,0.0,0.0,0.0,0.0,0.0,0.0,0.0,0.0,0.0,0.0,0.0,0.0,0.0,0.0,0.0,0.0,0.0,0.0,0.0,0.0,0.0,0.0,0.0,0.0,0.0,0.0,0.0,0.0,0.0,0.0,0.0,0.0,0.0,0.0,0.0,0.0,0.0,0.0,0.0,0.0,0.0,0.0,0.0,0.0,0.0,0.0,0.0,0.0,0.0,0.0,0.0,0.0,0.0,0.0,0.0,0.0,0.0,0.0,0.0,0.0,0.0,0.0,0.0,0.0,0.0,0.0,0.0,0.0,0.0,0.0,0.0,0.0,0.0,0.0,0.0,0.0,0.0,0.0,0.0,0.0,0.0,0.0,0.0,0.0,0.0,0.0,0.0,0.0,0.0,0.0,0.0,-3.8452,-4.0147,-4.1797,-4.3485,-4.293,-4.2041,-4.1034,-3.8726,-3.7008,-3.6223,0.0,0.0,0.0,0.0,0.0,0.0,0.0,0.0,0.0,0.0,0.0,0.0,0.0,0.0,0.0,0.0,0.0,0.0,0.0,0.0,0.0,0.0,0.0,0.0,0.0,0.0,0.0,0.0,0.0,0.0,0.0,0.0,0.0,0.0,0.0,0.0,0.0,0.0,0.0,0.0,0.0,0.0,0.0,0.0,0.0,0.0,0.0,0.0,0.0,0.0,0.0,0.0,0.0,0.0,0.0,0.0,0.0,0.0,0.0,0.0,0.0,0.0,0.0,0.0,0.0,0.0,0.0,0.0,0.0,0.0,0.0,0.0,0.0,0.0,0.0,0.0,0.0,0.0,0.0,0.0,0.0,0.0,0.0,0.0,0.0,0.0,0.0,0.0,0.0,0.0,0.0,0.0,0.0,0.0,0.0,0.0,0.0,0.0,0.0,0.0,0.0,0.0,-3.8432,-4.0086,-4.1734,-4.3382,-4.2553,-4.1576,-4.0812,-3.8527,-3.6813,-3.603,0.0,0.0,0.0,0.0,0.0,0.0,0.0,0.0,0.0,0.0,0.0,0.0,0.0,0.0,0.0,0.0,0.0,0.0,0.0,0.0,0.0,0.0,0.0,0.0,0.0,0.0,0.0,0.0,0.0,0.0,0.0,0.0,0.0,0.0,0.0,0.0,0.0,0.0,0.0,0.0,0.0,0.0,0.0,0.0,0.0,0.0,0.0,0.0,0.0,0.0,0.0,0.0,0.0,0.0,0.0,0.0,0.0,0.0,0.0,0.0,0.0,0.0,0.0,0.0,0.0,0.0,0.0,0.0,0.0,0.0,0.0,0.0,0.0,0.0,0.0,0.0,0.0,0.0,0.0,0.0,0.0,0.0,0.0,0.0,0.0,0.0,0.0,0.0,0.0,0.0,0.0,0.0,0.0,0.0,0.0,0.0,0.0,0.0,0.0,0.0,0.0,0.0,-3.8579,-4.0141,-4.1682,-4.3222,-4.2029,-4.0781,-3.9955,-3.7679,-3.6019,-3.534,0.0,0.0,0.0,0.0,0.0,0.0,0.0,0.0,0.0,0.0,0.0,0.0,0.0,0.0,0.0,0.0,0.0,0.0,0.0,0.0,0.0,0.0,0.0,0.0,0.0,0.0,0.0,0.0,0.0,0.0,0.0,0.0,0.0,0.0,0.0,0.0,0.0,0.0,0.0,0.0,0.0,0.0,0.0,0.0,0.0,0.0,0.0,0.0,0.0,0.0,0.0,0.0,0.0,0.0,0.0,0.0,0.0,0.0,0.0,0.0,-3.8348,-3.9342,0.0,0.0,0.0,0.0,0.0,0.0,0.0,0.0,0.0,0.0,0.0,0.0,0.0,0.0,0.0,0.0,0.0,0.0,0.0,0.0,0.0,0.0,0.0,0.0,0.0,0.0,0.0,0.0,0.0,0.0,0.0,0.0,0.0,0.0,0.0,0.0,0.0,0.0,0.0,0.0,-3.9258,-4.0506,-4.1462,-4.2451,-4.168,-4.0781,-3.9955,-3.7679,-3.6244,-3.6093,-3.466,0.0,0.0,0.0,0.0,0.0,0.0,0.0,0.0,0.0,0.0,0.0,0.0,0.0,0.0,0.0,0.0,0.0,0.0,0.0,0.0,0.0,0.0,0.0,0.0,0.0,0.0,0.0,0.0,0.0,0.0,0.0,0.0,0.0,0.0,0.0,0.0,0.0,0.0,0.0,0.0,0.0,0.0,0.0,0.0,0.0,0.0,0.0,0.0,0.0,0.0,0.0,0.0,0.0,0.0,0.0,0.0,0.0,0.0,0.0,-3.9039,-3.928,0.0,0.0,0.0,0.0,0.0,0.0,0.0,0.0,0.0,0.0,0.0,0.0,0.0,0.0,0.0,0.0,0.0,0.0,0.0,0.0,0.0,0.0,0.0,0.0,0.0,0.0,0.0,0.0,0.0,0.0,0.0,0.0,0.0,0.0,0.0,0.0,0.0,0.0,0.0,0.0,-3.8985,-4.0026,-4.0889,-4.1866,-4.1088,-4.0328,-3.9875,-3.7339,-3.5844,-3.5997,-3.4462,0.0,0.0,0.0,0.0,0.0,0.0,0.0,0.0,0.0,0.0,0.0,0.0,0.0,0.0,0.0,0.0,0.0,0.0,0.0,0.0,0.0,0.0,0.0,0.0,0.0,0.0,0.0,0.0,0.0,0.0,0.0,0.0,0.0,0.0,0.0,0.0,0.0,0.0,0.0,0.0,0.0,0.0,0.0,0.0,0.0,0.0,0.0,0.0,0.0,0.0,0.0,0.0,0.0,-4.1162,-4.135,-4.1224,-4.1662,-4.1849,-4.1696,-3.9863,-3.9307,-3.9713,-3.9713,0.0,0.0,0.0,0.0,0.0,0.0,0.0,0.0,0.0,0.0,0.0,0.0,0.0,0.0,0.0,0.0,0.0,0.0,0.0,0.0,0.0,0.0,-3.7349,-3.5977,-3.6707,-3.7276,-3.5756,0.0,0.0,0.0,0.0,0.0,0.0,0.0,0.0,0.0,0.0,0.0,-3.8298,-3.9193,-3.9992,-4.0941,-4.0212,-3.9501,-3.9162,-3.6666,-3.5182,-3.5335,-3.398,-3.2862,0.0,0.0,0.0,0.0,0.0,0.0,0.0,0.0,0.0,0.0,0.0,0.0,0.0,0.0,0.0,0.0,0.0,0.0,0.0,0.0,0.0,0.0,0.0,0.0,0.0,0.0,0.0,0.0,0.0,0.0,0.0,0.0,-4.0272,-4.0138,0.0,0.0,0.0,0.0,0.0,0.0,0.0,0.0,0.0,0.0,0.0,0.0,0.0,-4.0923,-4.1681,-4.2266,-4.2232,-4.1618,-4.2444,-4.2404,-4.1611,-4.1696,-4.16,-4.1371,-4.1067,0.0,-4.054,-4.054,0.0,0.0,0.0,0.0,0.0,0.0,0.0,0.0,0.0,0.0,0.0,0.0,0.0,0.0,0.0,0.0,0.0,0.0,0.0,0.0,0.0,0.0,-3.8487,-3.8251,-3.8377,-3.8285,-3.7382,-3.6119,-3.5114,-3.4876,-3.3753,-3.3263,0.0,0.0,0.0,0.0,0.0,0.0,-3.777,-3.831,-3.8651,-3.8815,-3.8688,-3.8028,-3.6627,-3.5492,-3.4587,-3.3999,-3.3112,-3.2564,-3.244,-3.244,0.0,0.0,0.0,0.0,0.0,0.0,0.0,0.0,0.0,0.0,0.0,0.0,0.0,0.0,0.0,0.0,0.0,0.0,0.0,0.0,0.0,0.0,0.0,0.0,0.0,0.0,0.0,0.0,0.0,-4.1103,-4.117,-3.9737,-3.9336,-3.861,0.0,0.0,0.0,0.0,0.0,0.0,0.0,0.0,0.0,-4.1002,-4.1707,-4.2449,-4.3253,-4.3493,-4.366,-4.3772,-4.3532,-4.3218,-4.2819,-4.2636,-4.2476,-4.2361,-4.2361,-4.2018,-4.1363,-4.0581,-4.0032,-3.9639,0.0,0.0,0.0,0.0,-3.8382,-3.8311,-3.8759,-3.8837,-3.8676,-3.8262,0.0,0.0,0.0,0.0,0.0,0.0,0.0,-3.7384,-3.7384,-3.7958,-3.853,-3.853,-3.835,-3.8094,-3.7747,-3.6519,-3.553,-3.5594,-3.5396,-3.5199,-3.5211,-3.479,0.0,0.0,0.0,-3.6119,-3.7307,-3.7587,-3.7749,-3.7983,-3.7795,-3.7366,-3.6669,-3.5127,-3.4145,-3.4054,-3.2897,-3.2231,-3.2231,-3.2231,-3.2127,0.0,0.0,0.0,0.0,0.0,0.0,0.0,0.0,0.0,0.0,0.0,0.0,0.0,0.0,0.0,0.0,0.0,0.0,0.0,0.0,0.0,0.0,0.0,0.0,0.0,0.0,0.0,0.0,-4.1743,-4.1934,-3.9603,-4.0272,-3.9996,0.0,0.0,0.0,0.0,0.0,0.0,-4.171,-4.214,-4.256,-4.2983,-4.3758,-4.4475,-4.5135,-4.4867,-4.4944,-4.5368,-4.436,-4.3746,-4.3545,-4.3286,-4.3178,-4.3178,-4.3178,-4.285,-4.2211,-4.0959,-4.0313,-4.0075,-3.9472,-3.8884,-3.8389,-3.8792,-3.8698,-3.842,-3.8841,-3.9004,-3.8909,-3.8319,-3.7841,-3.7382,-3.6747,0.0,0.0,0.0,0.0,-3.7585,-3.7585,-3.7992,-3.8366,-3.8267,-3.8033,-3.7755,-3.7667,-3.6915,-3.6185,-3.6061,-3.6193,-3.6138,-3.5626,-3.5276,0.0,-3.5789,-3.5667,-3.5784,-3.655,-3.6688,-3.684,-3.712,-3.6889,-3.6633,-3.645,-3.4712,-3.3761,-3.4061,-3.2822,-3.2081,-3.2081,-3.2081,-3.1863,-3.144,0.0,0.0,0.0,0.0,0.0,0.0,0.0,0.0,0.0,0.0,0.0,0.0,0.0,0.0,0.0,0.0,0.0,0.0,0.0,0.0,0.0,0.0,0.0,0.0,0.0,0.0,0.0,0.0,0.0,-4.0435,-4.1618,0.0,0.0,0.0,0.0,-4.1196,-4.2669,-4.3632,-4.3833,-4.5251,-4.6284,-4.6803,-4.7294,-4.7785,-4.8273,-4.7203,-4.6298,-4.5587,-4.4747,-4.3925,-4.3141,-4.3104,-4.3104,-4.3104,-4.3104,-4.3123,-4.3069,-4.2247,-4.1445,-4.0753,-4.0716,-4.0662,-4.0552,-3.9821,-4.0054,-4.0632,-3.9973,-3.98,-3.9827,-3.979,-3.8759,-3.7477,-3.7299,-3.725,0.0,0.0,-3.7742,-3.8344,-3.8344,-3.8362,-3.83,-3.7912,-3.7808,-3.7703,-3.7304,-3.7193,-3.6891,-3.6058,-3.4658,-3.4094,-3.5613,0.0,-3.454,-3.564,-3.5794,-3.5625,-3.526,-3.5484,-3.5673,-3.5718,-3.5695,-3.5385,-3.468,-3.3884,-3.3427,-3.3448,-3.2723,-3.2266,-3.2266,-3.2266,-3.1961,-3.1227,-3.121,0.0,0.0,0.0,0.0,0.0,0.0,0.0,0.0,0.0,0.0,0.0,0.0,0.0,0.0,0.0,0.0,0.0,0.0,0.0,0.0,0.0,0.0,0.0,0.0,0.0,0.0,0.0,0.0,-4.3452,-4.4345,0.0,-4.1954,-4.1971,-4.2351,-4.2906,-4.3999,-4.528,-4.6752,-4.7118,-4.7466,-4.7917,-4.7887,-4.7898,-4.7975,-4.7068,-4.6188,-4.5409,-4.4592,-4.3775,-4.2975,-4.2975,-4.2975,-4.2975,-4.2975,-4.2975,-4.2976,-4.2704,-4.2178,-4.152,-4.0991,-4.079,-4.0772,-4.0481,-4.0569,-4.0787,-4.0531,-4.0474,-4.0381,-3.9886,-3.8972,-3.8076,-3.8026,-3.8376,-3.867,-3.8125,-3.8516,-3.8926,-3.8144,-3.7897,-3.7721,-3.7322,-3.7018,-3.6801,-3.6641,-3.6374,-3.6079,-3.5761,-3.5712,-3.5811,-3.6115,-3.581,-3.5556,-3.5671,-3.5662,-3.561,-3.5448,-3.5542,-3.56,-3.56,-3.56,-3.5481,-3.5233,-3.4539,-3.3914,-3.344,-3.2716,-3.209,-3.1616,-3.1599,-3.1461,-3.1207,-3.119,-3.1055,0.0,0.0,0.0,0.0,0.0,0.0,0.0,0.0,0.0,0.0,0.0,0.0,0.0,0.0,0.0,0.0,0.0,0.0,0.0,0.0,0.0,0.0,0.0,0.0,0.0,-4.463,-4.5959,-4.4806,-4.6628,-4.6901,-4.4125,-4.4577,-4.5185,-4.5475,-4.625,-4.7327,-4.873,-4.8502,-4.8358,-4.8403,-4.8151,-4.7925,-4.7699,-4.7174,-4.6504,-4.5707,-4.5164,-4.4349,-4.3299,-4.3299,-4.3173,-4.2901,-4.2901,-4.2901,-4.2901,-4.2901,-4.2649,-4.225,-4.1723,-4.1504,-4.1486,-4.1213,-4.1304,-4.1539,-4.1283,-4.1027,-4.0663,-3.9859,-3.9057,-3.8401,-3.8368,-3.8634,-3.8876,-3.8449,-3.8466,-3.8474,-3.7811,-3.7468,-3.7208,-3.6781,-3.6492,-3.6259,-3.6088,-3.5805,-3.56,-3.56,-3.6101,-3.6419,-3.6131,-3.6067,-3.5958,-3.5644,-3.56,-3.56,-3.56,-3.56,-3.56,-3.56,-3.56,-3.56,-3.56,-3.4928,-3.4286,-3.3795,-3.3068,-3.2324,-3.1616,-3.1799,-3.1736,-3.1304,-3.1145,-3.0704,-3.0038,0.0,0.0,0.0,0.0,0.0,0.0,0.0,0.0,0.0,0.0,0.0,0.0,0.0,0.0,0.0,0.0,0.0,0.0,0.0,0.0,0.0,0.0,0.0,-4.1466,-4.57,-4.7603,-4.4338,-4.8283,-4.9986,-4.6733,-4.8535,-4.9616,-4.8941,-4.954,-4.9862,-4.9673,-4.9514,-4.9146,-4.8439,-4.8363,-4.8128,-4.7699,-4.7717,-4.7301,-4.6504,-4.6468,-4.5635,-4.4095,-4.4059,-4.3625,-4.2901,-4.2901,-4.2901,-4.2901,-4.2901,-4.2901,-4.2901,-4.2901,-4.2901,-4.281,-4.2012,-4.2322,-4.2995,-4.2286,-4.1502,-4.0699,-3.9916,-3.913,-3.8458,-3.8361,-3.8092,-3.7864,-3.8144,-3.7612,-3.705,-3.7412,-3.7206,-3.6796,-3.6402,-3.6314,-3.6187,-3.5745,-3.5616,-3.56,-3.56,-3.56,-3.56,-3.56,-3.56,-3.56,-3.56,-3.56,0.0,-3.56,-3.56,-3.56,-3.5633,-3.5616,-3.5616,-3.5633,-3.4945,-3.4472,-3.4455,-3.3778,-3.3034,-3.2293,-3.2946,-3.2748,-3.1505,-3.0988,-3.0195,-2.909,0.0,0.0,0.0,0.0,0.0,0.0,0.0,0.0,0.0,0.0,0.0,0.0,0.0,0.0,0.0,0.0,0.0,0.0,0.0,0.0,0.0,-4.3984,-4.5587,-4.501,-4.6087,-4.7043,-4.7315,-4.9085,-4.992,-4.8996,-4.9514,-5.0082,-5.0513,-5.0732,-5.0946,-5.1184,-5.0893,-5.0212,-4.9172,-4.8869,-4.8402,-4.7717,-4.7717,-4.7301,-4.6504,-4.5906,-4.5091,-4.4077,-4.3498,-4.3118,-4.2901,-4.2901,-4.2901,-4.2901,-4.2901,-4.2901,-4.2901,-4.2901,-4.2901,-4.2883,-4.2647,-4.272,-4.2939,-4.2722,-4.2123,-4.1434,-4.118,-4.0581,-3.9857,-3.9499,-3.9725,-3.993,-3.9089,-3.871,-3.8386,-3.7638,-3.7353,-3.7158,-3.6751,-3.6656,-3.6633,-3.6514,-3.6011,-3.56,-3.56,-3.56,-3.56,-3.56,-3.56,-3.56,-3.56,-3.56,-3.56,-3.56,-3.56,-3.5802,-3.64,-3.596,-3.5836,-3.6417,-3.525,-3.4269,-3.3744,-3.3,-3.2276,-3.1532,-3.1742,-3.1512,-3.0716,-2.9766,-2.9108,0.0,0.0,0.0,0.0,0.0,0.0,0.0,0.0,0.0,0.0,0.0,0.0,0.0,0.0,0.0,0.0,0.0,0.0,0.0,0.0,0.0,0.0,-4.5532,-4.6746,-4.7675,-4.8693,-4.9443,-4.9709,-5.1073,-5.1717,-5.1016,-5.1282,-5.1471,-5.1439,-5.1458,-5.1412,-5.1301,-5.1065,-5.0556,-4.9713,-4.9495,-4.9021,-4.8203,-4.8185,-4.7808,-4.6993,-4.6196,-4.5381,-4.4584,-4.3769,-4.3227,-4.2901,-4.2901,-4.2901,-4.2901,-4.2901,-4.2901,-4.2901,0.0,0.0,0.0,0.0,-4.2901,-4.2901,-4.2901,-4.2244,-4.1425,-4.1425,-4.0734,-3.9862,-3.9589,-3.9705,-3.9824,-3.9259,-3.8899,-3.8459,-3.7616,-3.7269,-3.7,-3.6435,-3.6299,-3.6299,-3.6299,-3.5943,-3.56,-3.56,-3.56,0.0,-3.56,-3.56,-3.56,-3.56,-3.56,-3.56,-3.56,-3.56,-3.5769,-3.6248,-3.5893,-3.5785,-3.6265,-3.5442,0.0,0.0,0.0,-3.2803,-3.2121,-3.1694,0.0,0.0,0.0,-2.9524,-2.9231,-2.9296,0.0,0.0,-3.0456,-3.0655,0.0,0.0,0.0,0.0,0.0,0.0,0.0,0.0,0.0,0.0,0.0,0.0,0.0,0.0,0.0,0.0,-4.6771,-4.6601,-4.9495,-5.2002,-5.293,-5.1263,-5.3006,-5.3859,-5.2665,-5.3158,-5.3138,-5.2153,-5.2083,-5.1724,-5.0914,-5.0874,0.0,0.0,0.0,-4.98,-4.8909,-4.8891,-4.8493,-4.7678,-4.6884,-4.6124,-4.5399,-4.4512,-4.3697,-4.3028,-4.2955,-4.2901,-4.2901,-4.2901,-4.2901,-4.2901,-4.2901,-4.2901,-4.2901,-4.2901,-4.2863,-4.2825,-4.2825,0.0,0.0,-4.1065,-4.03,-3.9343,-3.921,-3.8981,-3.8807,-3.9016,-3.8568,-3.795,-3.7653,-3.7314,-3.688,-3.614,-3.5921,-3.5853,-3.5853,-3.5718,-3.56,-3.56,-3.56,-3.56,-3.56,-3.56,-3.56,-3.56,-3.56,-3.56,-3.56,-3.56,-3.5633,-3.5718,-3.565,0.0,-3.5695,-3.5487,-3.5048,-3.4325,-3.4102,-3.3707,-3.3103,-3.2108,-3.1581,-3.1653,-3.1106,-3.0546,-2.9955,-2.9897,-3.0244,-3.0955,-3.165,-3.1635,0.0,0.0,0.0,0.0,0.0,0.0,0.0,0.0,0.0,0.0,0.0,0.0,0.0,0.0,0.0,-4.5691,-4.8079,-4.9955,-4.9912,-5.149,-5.204,-5.0353,-5.0561,-5.1547,-5.329,-5.2968,-5.2972,-5.3768,-5.3827,-5.3477,-5.2642,-5.2619,-5.2154,-5.109,-5.1072,-5.0361,-4.8909,-4.8891,-4.8493,-4.7678,-4.6884,0.0,-4.6214,-4.4765,-4.4005,-4.3824,-4.3172,-4.2901,-4.2901,-4.2901,-4.2901,-4.2901,-4.2901,-4.2901,-4.2901,-4.2901,-4.2653,-4.2338,-4.2338,-4.1926,-4.1406,-4.1406,-4.1231,-4.0832,-3.9879,-3.9957,0.0,-3.9266,-3.8914,-3.8759,-3.8703,-3.8621,-3.8531,-3.8379,-3.7889,-3.7466,-3.7466,-3.6479,-3.56,-3.56,-3.56,-3.56,-3.56,-3.56,-3.56,-3.56,-3.56,-3.56,-3.56,-3.56,-3.5859,-3.6485,-3.5937,-3.5756,-3.6363,-3.5221,-3.4393,-3.4242,-3.3181,-3.2328,-3.1784,-3.1083,-3.0744,-3.0754,-3.0177,-2.9823,-2.9687,-3.0143,-3.0443,-3.0621,-3.1453,-3.1823,0.0,0.0,0.0,0.0,0.0,0.0,0.0,0.0,0.0,0.0,0.0,-4.4726,-4.4165,0.0,-4.7074,-4.7927,-4.9287,-5.0243,-5.0239,-5.0975,-5.1397,-5.1192,-5.1149,-5.1812,-5.3537,-5.3123,-5.3099,-5.394,-5.3814,-5.3447,-5.2831,-5.2787,-5.2512,-5.1923,-5.19,-5.1122,-4.9528,-4.9492,-4.8894,-4.7678,-4.6884,-4.6504,-4.645,-4.4838,-4.4095,-4.4059,-4.3244,-4.2901,-4.2901,-4.2901,-4.2901,-4.2882,-4.2653,-4.2537,-4.2537,-4.2537,-4.2259,-4.1846,-4.1846,-4.1543,-4.1139,-4.1139,-4.0978,-4.0692,-4.0086,-4.0144,-4.0317,-3.973,-3.9554,-3.9486,-3.9089,-3.8717,-3.8447,-3.8447,-3.7889,-3.7449,-3.7821,-3.7009,-3.6197,-3.6197,-3.5893,-3.56,-3.56,-3.56,-3.56,-3.56,-3.56,-3.56,-3.56,-3.56,-3.5729,-3.6112,-3.5756,-3.562,-3.5927,-3.4799,-3.411,-3.4147,-3.2886,-3.1901,-3.1427,-3.0815,-3.0504,-3.0492,-2.9894,-2.9756,-3.0043,-3.0357,-3.0507,-3.0537,-3.1641,-3.2179,0.0,0.0,0.0,0.0,0.0,0.0,0.0,-4.2931,-4.2797,-4.367,-4.4944,-4.5893,-4.6016,-4.6773,-4.8174,-5.0561,-5.0503,-5.025,-5.0557,-5.0732,-5.1112,-5.1854,-5.2067,-5.2541,-5.3467,-5.326,-5.3209,-5.355,-5.3267,-5.2922,-5.2503,-5.2498,-5.2498,-5.2498,-5.2498,-5.1792,-5.0365,-5.0184,-4.9365,-4.7935,-4.712,-4.6649,-4.645,-4.5001,-4.424,-4.4059,-4.3244,-4.2901,-4.2901,-4.2901,-4.2882,-4.2843,-4.2378,-4.2136,-4.2032,-4.2053,-4.1782,-4.1348,-4.1348,-4.1065,-4.0659,-4.0659,-4.0427,-4.0079,-3.9943,-3.9994,-4.0045,-3.9757,-3.9791,-3.9757,-3.914,-3.8447,-3.7939,-3.8091,-3.7432,-3.6965,-3.755,-3.7094,-3.6575,-3.6575,-3.6045,-3.56,-3.56,-3.56,-3.56,-3.5577,-3.5594,-3.5554,-3.5532,-3.5532,-3.5526,-3.5469,-3.5446,-3.5331,-3.5105,-3.4423,-3.3904,-3.359,-3.2564,-3.1696,-3.1064,-3.0576,-3.0328,-3.0328,-2.9834,-2.9906,-3.0507,-3.0507,-3.0567,-3.0731,-3.1795,-3.2317,-3.8674,-3.9207,-4.0732,-4.274,-4.2818,-4.3503,0.0,-4.7395,-4.6628,-4.7794,-4.8734,-4.8894,-4.7484,-4.9676,-5.1338,-5.022,-5.1822,-5.2594,-5.0851,-5.1217,-5.131,-5.0368,-5.0892,-5.1777,-5.2954,-5.3038,-5.3047,-5.3169,-5.3138,-5.2922,-5.2503,-5.2498,-5.2498,-5.2498,-5.2498,-5.2063,-5.1158,-5.0474,-4.9655,-4.8746,-4.7953,-4.7192,-4.6468,-4.5562,-4.4784,-4.4059,-4.3244,-4.2901,-4.2901,-4.2901,-4.2862,-4.2783,-4.2376,-4.1924,-4.1507,-4.1565,-4.1276,-4.0896,-4.0896,-4.058,-4.0171,-4.0171,-4.0146,-3.9977,-3.9309,-3.9588,-3.9842,-3.8514,-3.8616,-3.9089,-3.9005,-3.8447,-3.8075,-3.8717,-3.7828,-3.6829,-3.6914,-3.6299,-3.5718,-3.5718,-3.565,-3.56,-3.56,-3.56,-3.5594,-3.5537,-3.5514,-3.5469,-3.5337,-3.5337,-3.5337,-3.5314,-3.5222,-3.4899,-3.43,-3.4144,-3.3402,-3.1787,-3.1546,-3.0987,-2.985,-2.9738,-2.9711,-2.9711,-2.9636,-2.9906,-3.0507,-3.0507,-3.0821,-3.1391,-3.154,-3.1615,-4.1594,-4.176,-4.2417,-4.4312,-4.518,-4.6236,-4.8812,-4.8491,-4.7931,-4.8918,-4.9542,-4.9551,-4.8376,-4.9671,-5.0884,-5.0694,-5.1544,-5.195,-5.1068,-5.1435,-5.1453,-5.0469,-5.1263,-5.2102,-5.26,-5.2438,-5.2523,-5.3065,-5.2879,-5.269,-5.2521,-5.2498,-5.2498,-5.2498,-5.2498,-5.1882,-5.0619,-5.0275,-4.9456,-4.8185,-4.7859,-4.7283,-4.6468,-4.5671,-4.4603,-4.3371,-4.3064,-4.2881,-4.2842,-4.2842,-4.2611,-4.2231,-4.1739,-4.1253,-4.0832,-4.1019,-4.0802,-4.0385,-4.0385,-4.0254,-4.0096,-4.0096,-4.0096,-4.0045,-3.974,-3.9859,-3.9977,-3.9368,-3.9394,-3.9656,-3.9656,-3.9089,-3.8616,-3.892,-3.8193,-3.7432,-3.7432,-3.6776,-3.619,-3.619,-3.5767,-3.5412,-3.5412,-3.5412,-3.5389,-3.5291,-3.54,-3.5446,-3.5314,-3.5291,-3.5268,-3.5198,-3.4787,-3.4244,-3.3575,-3.2803,-3.2086,-3.1435,-3.0643,-2.9999,-2.9633,-2.922,-2.919,-2.9592,-2.9232,-2.9505,-3.0507,-3.0507,-3.0657,-3.0941,-3.1316,-3.1278,-4.2765,-4.3011,-4.3439,-4.5286,-4.665,-4.7921,-4.9396,-4.9107,-4.8796,-4.9706,-4.9896,-4.9798,-4.9443,-4.986,-5.0542,-5.1395,-5.1633,-5.1525,-5.0971,-5.163,-5.1637,-5.0289,-5.1287,-5.2112,-5.2112,-5.2114,-5.2352,-5.2907,-5.2667,-5.2498,-5.2498,-5.2498,-5.2498,-5.2498,-5.2498,-5.1937,-5.0782,-5.0329,-4.951,-4.8351,-4.7699,-4.7065,-4.6468,-4.5671,-4.453,-4.3226,-4.3226,-4.3079,-4.2841,-4.2841,-4.2474,-4.192,-4.141,-4.0868,-4.0424,-4.0563,-4.0353,-3.9995,-4.0037,-4.0037,-4.0062,-4.007,-4.0096,-4.0096,-4.0096,-4.0096,-4.0062,-3.9859,-3.9808,-3.9783,-3.9758,-3.9065,-3.8447,-3.8608,-3.7925,-3.7249,-3.7249,-3.6717,-3.6242,-3.6242,-3.5729,-3.5291,-3.5291,-3.5291,-3.5245,-3.5128,-3.5268,-3.5337,-3.5198,-3.5198,-3.5152,-3.5058,-3.4472,-3.3768,-3.291,-3.1822,-3.1021,-3.0643,-2.9831,-2.936,-2.9322,-2.9026,-2.9086,-2.9592,-2.9116,-2.9415,-3.0507,-3.0507,-3.0612,-3.0806,-3.1271,-3.1161,-4.0201,-4.118,-4.2414,-4.5187,-4.6507,-4.772,-5.0041,-4.994,-4.9713,-5.0894,-5.0486,-5.0144,-5.0978,-5.1149,-5.1433,-5.2234,-5.2743,-5.2362,-5.041,-5.1835,-5.205,-4.9285,-5.0369,-5.133,-5.133,-5.2385,-5.2926,-5.2549,-5.2521,-5.2498,-5.2498,-5.2498,-5.2498,-5.2498,-5.2498,-5.248,-5.2426,-5.0891,-5.0093,-5.0003,-4.7645,-4.6522,-4.6468,-4.5671,-4.4838,-4.4059,-4.4059,-4.3607,-4.29,-4.29,-4.2573,-4.2044,-4.1648,-4.103,-4.0375,-4.0179,-3.9944,-3.9729,-3.9875,-3.9901,-3.9926,-4.0062,-4.0096,-4.0096,-4.0096,-4.0096,-3.996,-3.9225,-3.9022,-3.8997,-3.8865,-3.786,-3.7003,-3.761,-3.6619,-3.5559,-3.5559,-3.545,-3.5325,-3.5325,-3.5308,-3.5291,-3.5291,-3.5291,-3.5245,-3.5128,-3.5105,-3.5065,-3.4923,-3.4923,-3.4923,-3.4899,-3.4423,-3.3577,-3.232,-3.1706,-3.0628,-2.8805,-2.9247,-2.9292,-2.8652,-2.922,-2.9592,-2.9606,-2.9592,-2.9864,-3.0507,-3.0507,-3.0823,-3.1466,-3.1496,-3.1161,-4.0872,-4.2266,-4.4033,-4.7128,-4.8509,-4.9575,-5.1386,-5.1578,-5.1343,-5.1235,-5.0505,-4.9836,-4.9576,-4.9538,-4.9716,-5.0308,-5.0769,-5.0913,-5.0543,-5.0842,-5.0758,-4.9804,-5.0633,-5.1285,-5.1285,-5.1659,-5.2063,-5.2485,-5.2498,-5.2498,-5.2498,-5.2498,-5.2498,-5.2498,-5.2498,-5.1991,-5.0927,-5.0383,-4.9293,-4.7681,-4.5816,-4.491,-4.4874,-4.4059,-4.3571,-4.3299,-4.3299,-4.3116,-4.2823,-4.2823,-4.2295,-4.141,-4.1281,-4.0648,-3.979,-3.9729,-3.959,-3.9484,-3.9884,-3.9961,-3.9901,-3.9935,-3.991,-3.9816,-3.9816,-3.991,-3.9885,-3.9556,-3.9531,-3.9581,-3.9429,-3.8782,-3.8023,-3.7649,-3.6891,-3.6081,-3.5501,-3.5268,-3.5175,-3.5175,-3.5105,-3.5018,-3.5018,-3.5433,-3.5765,-3.5701,-3.5286,-3.4947,-3.4899,-3.4899,-3.4763,-3.4399,-3.3457,-3.2336,-3.1109,-3.0521,-2.9957,-2.9307,-2.9487,-2.9669,-2.9849,-2.9684,-2.9774,-3.0178,-3.0193,-3.0522,-3.1152,-3.1152,-3.1271,-3.1511,-3.1029,-3.0494,-4.2232,-4.3743,-4.5425,-4.8347,-4.9484,-5.0289,-5.2019,-5.1945,-5.1528,-5.1609,-5.0486,-4.94,-4.9172,-4.8642,-4.8443,-4.9045,-4.9252,-4.9371,-4.9565,-4.9998,-5.0137,-4.9713,-5.0633,-5.1285,-5.1285,-5.1285,-5.1629,-5.2426,-5.2498,-5.2498,-5.2498,-5.2498,-5.2498,-5.2498,-5.2208,-5.1556,-5.0546,-4.9945,-4.846,-4.6069,-4.5019,-4.4385,-4.4077,-4.386,-4.3588,-4.3317,-4.3317,-4.3153,-4.2841,-4.2841,-4.2195,-4.1168,-4.1168,-4.0497,-3.9501,-3.9537,-3.9484,-3.9405,-3.9755,-3.9824,-3.9772,-3.9824,-3.9781,-3.9703,-3.9703,-3.9755,-3.9807,-3.9729,-3.9755,-3.9798,-3.9651,-3.9184,-3.8497,-3.766,-3.6932,-3.6226,-3.5412,-3.5128,-3.5018,-3.5018,-3.497,-3.4899,-3.4899,-3.5297,-3.5611,-3.5611,-3.5197,-3.4899,-3.4899,-3.4715,-3.4472,-3.4151,-3.3016,-3.1852,-3.0845,-3.0231,-2.9846,-2.9621,-2.9789,-3.0088,-3.0492,-3.0357,-3.0462,-3.0866,-3.0866,-3.1062,-3.1511,-3.1511,-3.1511,-3.1467,-3.0807,-3.0133,-4.3978,-4.5332,-4.6504,-4.8795,-4.938,-4.9905,-5.1836,-5.1073,-5.0391,-5.1907,-5.032,-4.888,-4.9589,-4.8388,-4.7566,-4.8437,-4.8271,-4.794,-4.7647,-4.9286,-5.0117,-4.8974,-5.0253,-5.1212,-5.1176,-5.1253,-5.1656,-5.2371,-5.248,-5.2498,-5.2498,-5.2498,-5.248,-5.2426,-5.1701,-5.1249,-5.1176,-4.9546,-4.7572,-4.5291,-4.5218,-4.4784,-4.4059,-4.482,-4.4765,-4.4023,-4.4023,-4.3626,-4.2901,-4.2901,-4.2262,-4.1303,-4.1303,-4.057,-3.9511,-3.9668,-3.9616,-3.9501,-3.9501,-3.9501,-3.9528,-3.9651,-3.9677,-3.9677,-3.9677,-3.9677,-3.9677,-3.9677,-3.9677,-3.9651,-3.9511,-3.9029,-3.8371,-3.7536,-3.6779,-3.6071,-3.5355,-3.5077,-3.4965,-3.4965,-3.4932,-3.4916,-3.4949,-3.4916,-3.4916,-3.4949,-3.4892,-3.4875,-3.4875,-3.4423,-3.4075,-3.4025,-3.3002,-3.209,-3.1417,-3.084,-3.0253,-2.9696,-3.0223,-3.0552,-3.0552,-3.1152,-3.1511,-3.1511,-3.1511,-3.1511,-3.1511,-3.1511,-3.1511,-3.1467,-3.0777,-3.0103,-4.463,-4.5954,-4.7132,-4.8592,-4.9188,-4.9604,-5.0359,-5.0713,-5.0637,-4.9803,-4.8952,-4.8079,-4.7295,-4.6379,-4.6,-4.6791,-4.7149,-4.7427,-4.763,-4.8634,-4.9001,-4.8116,-4.942,-5.0162,-4.9582,-5.087,-5.17,-5.162,-5.2154,-5.2498,-5.2498,-5.2498,-5.2226,-5.1611,-5.1393,-5.0723,-4.9528,-4.7319,-4.5906,-4.5291,-4.4077,-4.3389,-4.3227,-4.3407,-4.3389,-4.3227,-4.3227,-4.31,-4.2901,-4.2901,-4.232,-4.1437,-4.1348,-4.0625,-3.9625,-3.9563,-3.9475,-3.9352,-3.9352,-3.9422,-3.9501,-3.9537,-3.9484,-3.9405,-3.9405,-3.9458,-3.9537,-3.9432,-3.9484,-3.9511,-3.9395,-3.8883,-3.8378,-3.8057,-3.7469,-3.6937,-3.6663,-3.6133,-3.5727,-3.5727,-3.528,-3.5065,-3.5628,-3.5263,-3.5081,-3.5644,-3.4915,-3.43,-3.43,-3.4176,-3.3781,-3.2926,-3.2125,-3.1404,-3.0784,-3.0591,-3.0432,-3.0283,-3.0868,-3.1241,-3.1241,-3.1406,-3.1511,-3.1511,-3.1511,-3.1511,-3.1511,-3.1511,-3.1511,-3.1467,-3.0299,-2.9659,-4.5708,-4.6833,-4.7813,-4.86,-4.9104,-4.9396,-4.9454,-4.9686,-4.9575,-4.8483,-4.753,-4.6697,-4.6094,-4.5529,-4.5337,-4.5892,-4.6413,-4.6893,-4.7334,-4.8384,-4.9031,-4.8789,-5.0162,-5.0977,-5.0524,-5.1493,-5.2087,-5.1833,-5.2413,-5.269,-5.2521,-5.2498,-5.2118,-5.1321,-5.0959,-4.9999,-4.8384,-4.6341,-4.5291,-4.5273,-4.3661,-4.2901,-4.2901,-4.2901,-4.2901,-4.2901,-4.2901,-4.2901,-4.2901,-4.2901,-4.242,-4.17,-4.1415,-4.0726,-3.9901,-3.9599,-3.9422,-3.9299,-3.9299,-3.9352,-3.9405,-3.9405,-3.9352,-3.9299,-3.9299,-3.9352,-3.9395,-3.9325,-3.9352,-3.9379,-3.9325,-3.9053,-3.8681,-3.8278,-3.7949,-3.7593,-3.7185,-3.6522,-3.5909,-3.5578,-3.5181,-3.5032,-3.5446,-3.5164,-3.496,-3.5128,-3.4561,-3.3908,-3.3429,-3.3351,-3.3113,-3.248,-3.1812,-3.1321,-3.0956,-3.0956,-3.0956,-3.0956,-3.1286,-3.1511,-3.1511,-3.1511,-3.1511,-3.1511,-3.1511,-3.1511,-3.1511,-3.1511,-3.1511,-3.1467,-3.0103,-2.9504,-4.6888,-4.7809,-4.8493,-4.8695,-4.9021,-4.9217,-4.8824,-4.841,-4.7975,-4.7462,-4.6176,-4.5201,-4.5423,-4.5146,-4.5045,-4.5548,-4.5962,-4.6425,-4.7019,-4.8481,-4.9604,-4.9898,-5.1357,-5.2276,-5.219,-5.2309,-5.2363,-5.2335,-5.2802,-5.2922,-5.2503,-5.2498,-5.2082,-5.1158,-5.0275,-4.9112,-4.7696,-4.6106,-4.5291,-4.5273,-4.3661,-4.2901,-4.2901,-4.2901,-4.2901,-4.2901,-4.2901,-4.2901,-4.2901,-4.2901,-4.2539,-4.1976,-4.1464,-4.0827,-4.0178,-3.9661,-3.9405,-3.9299,-3.9299,-3.9299,-3.9299,-3.9299,-3.9299,-3.9299,-3.9299,-3.9299,-3.9299,-3.9299,-3.9299,-3.9299,-3.9299,-3.9299,-3.9149,-3.8493,-3.8361,-3.8146,-3.7417,-3.6671,-3.5926,-3.5181,-3.5048,-3.5015,-3.4916,-3.4899,-3.4715,-3.4176,-3.4034,-3.3585,-3.2547,-3.2398,-3.237,-3.2287,-3.1796,-3.1511,-3.1511,-3.1511,-3.1511,-3.1511,-3.1511,-3.1511,-3.1511,-3.1511,-3.1511,-3.1511,-3.1511,-3.1511,-3.1511,-3.1511,-3.1511,-3.1467,-3.0103,-2.9504,-4.7529,-4.8379,-4.9096,-4.8511,-4.8641,-4.8699,-4.7995,-4.775,-4.7318,-4.5929,-4.5164,-4.4675,-4.4278,-4.3925,-4.4152,-4.553,-4.5844,-4.6286,-4.7409,-4.8965,-4.976,-4.9184,-5.0435,-5.1135,-5.056,-5.1337,-5.1763,-5.1507,-5.2492,-5.2922,-5.2503,-5.2498,-5.1828,-5.0365,-4.8876,-4.7989,-4.7717,-4.6106,-4.5291,-4.5273,-4.3661,-4.2901,-4.2901,-4.2901,-4.2901,-4.2901,-4.2901,-4.2901,-4.2901,-4.2901,-4.2614,-4.2115,-4.1402,-4.0803,-4.0277,-3.9582,-3.9325,-3.9299,-3.9299,-3.9299,-3.9299,-3.9299,-3.9299,-3.9299,-3.9299,-3.9299,-3.9299,-3.9299,-3.9299,-3.9299,-3.9299,-3.9299,-3.9265,-3.9149,-3.9116,-3.8917,-3.8179,-3.7433,-3.6688,-3.5959,-3.581,-3.5628,-3.5015,-3.4899,-3.4715,-3.4176,-3.3672,-3.3135,-3.2465,-3.2398,-3.2203,-3.1726,-3.1553,-3.1511,-3.1511,-3.1511,-3.1511,-3.1511,-3.1511,-3.1511,-3.1511,-3.1511,-3.1511,-3.1511,-3.1511,-3.1511,-3.1511,-3.1511,-3.1511,-3.1467,-3.0103,-2.9504,-4.7717,-4.8099,-4.8318,-4.7552,-4.7957,-4.8053,-4.6213,-4.6266,-4.6207,-4.4394,-4.387,-4.3742,-4.3647,-4.3702,-4.4072,-4.5022,-4.5369,-4.5907,-4.6923,-4.8098,-4.8858,-4.8891,-4.9834,-5.0534,-5.0705,-5.0744,-5.0911,-5.1271,-5.1453,-5.1803,-5.2485,-5.1321,-5.0271,-4.9492,-4.7916,-4.7083,-4.7083,-4.5888,-4.5091,-4.4657,-4.3462,-4.2901,-4.2901,-4.2901,-4.2901,-4.2901,-4.2901,-4.2901,-4.2901,-4.2901,-4.2634,-4.2136,-4.1464,-4.0868,-4.0319,-3.9635,-3.9352,-3.9299,-3.9299,-3.9299,-3.9299,-3.9299,-3.9299,-3.9299,-3.9299,-3.9299,-3.9299,-3.9299,-3.9299,-3.9299,-3.9299,-3.9299,-3.9299,-3.9299,-3.9299,-3.91,-3.8361,-3.793,-3.7441,-3.6721,-3.6572,-3.6241,-3.5193,-3.4996,-3.459,-3.3398,-3.2964,-3.2586,-3.2023,-3.1938,-3.1824,-3.1524,-3.1511,-3.1511,-3.1511,-3.1511,-3.1511,-3.1511,-3.1511,-3.1511,-3.1511,-3.1511,-3.1511,-3.1511,-3.1511,-3.1511,-3.1511,-3.1511,-3.1322,-3.097,-2.995,-2.93,-4.7557,-4.7678,-4.7751,-4.6975,-4.7328,-4.7288,-4.4898,-4.4964,-4.5022,-4.3248,-4.2901,-4.2995,-4.3231,-4.3652,-4.407,-4.4419,-4.4854,-4.5481,-4.6359,-4.7192,-4.7986,-4.8761,-4.945,-5.015,-5.0891,-5.0277,-5.0168,-5.0932,-5.0434,-5.0655,-5.1919,-5.0035,-4.8891,-4.8891,-4.7518,-4.6667,-4.6504,-4.5707,-4.4892,-4.4077,-4.3262,-4.2901,-4.2901,-4.2901,-4.2901,-4.2901,-4.2901,-4.2901,-4.2901,-4.2901,-4.2673,-4.2279,-4.1569,-4.1007,-4.0504,-3.9764,-3.9432,-3.9325,-3.9299,-3.9299,-3.9299,-3.9299,-3.9299,-3.9299,-3.9299,-3.9299,-3.9299,-3.9299,-3.9299,-3.9299,-3.9299,-3.9299,-3.9299,-3.9299,-3.9183,-3.8941,-3.8526,-3.8328,-3.8046,-3.7466,-3.7218,-3.6677,-3.5312,-3.4991,-3.4312,-3.2652,-3.2398,-3.2176,-3.1582,-3.1511,-3.1511,-3.1511,-3.1511,-3.1511,-3.1511,-3.1511,-3.1511,-3.1511,-3.1511,-3.1511,-3.1511,-3.1511,-3.1511,-3.1511,-3.1511,-3.1511,-3.1511,-3.1511,-3.1161,-3.0494,-2.9827,-2.9142,-4.7078,-4.7681,-4.8583,-4.7787,-4.7122,-4.64,-4.5437,-4.4714,-4.4008,-4.3082,-4.2901,-4.2901,-4.2939,-4.3214,-4.3614,-4.4066,-4.4436,-4.5095,-4.6327,-4.7192,-4.7946,-4.8634,-4.9316,-4.9752,-4.9824,-4.977,-4.9798,-5.0006,-5.0063,-5.0166,-5.0311,-4.942,-4.8891,-4.8891,-4.8061,-4.7246,-4.6504,-4.5707,-4.4892,-4.4077,-4.3262,-4.2901,-4.2901,-4.2901,-4.2901,-4.2901,-4.2901,-4.2901,-4.2901,-4.2901,-4.2863,-4.2731,-4.17,-4.1258,-4.1076,-3.9927,-3.9501,-3.9458,-3.9325,-3.9299,-3.9299,-3.9299,-3.9299,-3.9299,-3.9299,-3.9299,-3.9299,-3.9299,-3.9299,-3.9299,-3.9299,-3.9299,-3.9299,-3.9299,-3.8775,-3.8477,-3.9083,-3.8676,-3.8169,-3.8129,-3.7566,-3.6677,-3.5312,-3.4603,-3.3793,-3.259,-3.2398,-3.2176,-3.1582,-3.1511,-3.1511,-3.1511,-3.1511,-3.1511,-3.1511,-3.1511,-3.1511,-3.1511,-3.1511,-3.1511,-3.1511,-3.1511,-3.1511,-3.1511,-3.1511,-3.1511,-3.1511,-3.1511,-3.1161,-3.0494,-2.9827,-2.9142,-4.7886,-4.8402,-4.871,-4.7916,-4.6739,-4.5562,-4.4765,-4.3951,-4.33,-4.2973,-4.2901,-4.2901,-4.2901,-4.2995,-4.316,-4.3355,-4.3485,-4.3923,-4.4912,-4.5327,-4.5956,-4.7114,-4.7457,-4.7967,-4.8884,-4.8492,-4.8268,-4.8449,-4.7672,-4.7627,-4.8605,-4.8351,-4.8167,-4.8167,-4.7409,-4.683,-4.6504,-4.5707,-4.4892,-4.4077,-4.3262,-4.2901,-4.2901,-4.2901,-4.2901,-4.2901,-4.2901,-4.2901,-4.2901,-4.2901,-4.2731,-4.2398,-4.1613,-4.1122,-4.0791,-3.9927,-3.9563,-3.9501,-3.9448,-3.9352,-3.9299,-3.9299,-3.9299,-3.9299,-3.9299,-3.9299,-3.9299,-3.9299,-3.9299,-3.9299,-3.9299,-3.9299,-3.9299,-3.9299,-3.9083,-3.8924,-3.9249,-3.9083,-3.8735,-3.8335,-3.8036,-3.728,-3.5572,-3.471,-3.3867,-3.2648,-3.211,-3.1768,-3.1524,-3.1511,-3.1511,-3.1511,-3.1511,-3.1511,-3.1511,-3.1511,-3.1511,-3.1511,-3.1511,-3.1511,-3.1511,-3.1511,-3.1511,-3.1511,-3.1511,-3.1511,-3.1511,-3.1511,-3.1146,-3.0441,-3.0158,-2.9659,-4.727,-4.7986,-4.8402,-4.7823,-4.6305,-4.4856,-4.453,-4.3462,-4.2611,-4.2865,-4.2901,-4.2901,-4.2901,-4.2901,-4.2901,0.0,0.0,-4.3172,-4.3987,-4.4076,-4.4542,-4.5773,-4.5633,-4.6033,-4.755,-4.7398,-4.7267,-4.7446,-4.6506,-4.6442,-4.7582,-4.7678,-4.7717,-4.7717,-4.7156,-4.6739,-4.6504,-4.5707,-4.4892,-4.4077,-4.3262,-4.2901,-4.2901,-4.2901,-4.2901,-4.2901,-4.2901,-4.2901,-4.2901,-4.2901,-4.2692,-4.2338,-4.1635,-4.1145,-4.0767,-4.0003,-3.9625,-3.9537,-3.9475,-3.9379,-3.9299,-3.9299,-3.9299,-3.9299,-3.9299,-3.9299,-3.9299,-3.9299,-3.9299,-3.9299,-3.9299,-3.9299,-3.9299,-3.9299,-3.9299,-3.9299,-3.9299,-3.9148,-3.8871,-3.8407,-3.7975,-3.7214,-3.5671,-3.4844,-3.3947,-3.2691,-3.2093,-3.172,-3.1525,-3.1511,-3.1511,-3.1511,-3.1511,-3.1511,-3.1511,-3.1511,-3.1511,-3.1511,-3.1511,-3.1585,-3.1795,-3.1795,-3.1884,-3.2079,-3.2079,-3.2079,-3.2079,-3.1872,-3.1398,-3.0676,-3.0461,-3.0059,-4.4504,-4.5888,-4.7717,-4.7717,-4.5888,-4.4313,-4.511,-4.3444,-4.194,-4.2737,-4.2901,-4.2901,-4.2901,-4.2901,-4.2901,-4.2901,-4.2901,0.0,-4.3987,-4.4035,-4.4241,-4.4931,-4.4199,-4.422,-4.5681,-4.6664,-4.7223,-4.7298,-4.741,-4.7493,-4.7511,-4.7636,-4.7717,-4.7717,-4.7678,-4.7319,-4.6504,-4.5707,-4.4892,-4.4077,-4.3262,-4.2901,-4.2901,-4.2901,-4.2901,-4.2901,-4.2901,-4.2901,-4.2901,-4.2901,-4.29,-4.2806,-4.1849,-4.1481,-4.1348,-4.0145,-3.9703,-3.9651,-3.9405,-3.9299,-3.9299,-3.9299,-3.9299,-3.9299,-3.9299,-3.9299,-3.9299,-3.9299,-3.9299,-3.9299,-3.9299,-3.9299,-3.9299,-3.9299,-3.9299,-3.9299,-3.9299,-3.8772,-3.8322,-3.8306,-3.7221,-3.6126,-3.5504,-3.4799,-3.3873,-3.2691,-3.2482,-3.2243,-3.1585,-3.1511,-3.1511,-3.1511,-3.1511,-3.1511,-3.1511,-3.1511,-3.1511,-3.1511,-3.1511,-3.1795,-3.2452,-3.2497,-3.2811,-3.3469,-3.3469,-3.3469,-3.3484,-3.274,-3.204,-3.1373,-3.0644,-3.0223,-4.5568,-4.6305,-4.6884,-4.6884,-4.5073,-4.348,-4.4295,-4.3045,-4.1922,-4.2719,-4.2901,-4.2901,-4.2901,-4.2901,-4.2901,-4.2901,-4.2901,-4.2972,-4.3186,-4.3615,-4.4147,-4.4788,-4.5487,-4.6096,-4.6569,-4.6467,-4.6627,-4.7191,-4.6349,-4.629,-4.7436,-4.7009,-4.7036,-4.7678,-4.7174,-4.6757,-4.6504,-4.5164,-4.4349,-4.4077,-4.3262,-4.2901,-4.2901,-4.2901,-4.2901,-4.2901,-4.2901,-4.2901,-4.2901,-4.2901,-4.2901,-4.2806,-4.1888,-4.1503,-4.137,-4.0237,-3.9781,-3.9677,-3.9484,-3.9379,-3.9299,-3.9299,-3.9299,-3.9299,-3.9299,-3.9299,-3.9299,-3.9299,-3.9299,-3.9299,-3.9299,-3.9299,-3.9299,-3.9299,-3.9299,-3.9175,-3.8717,-3.8435,-3.8051,-3.7191,-3.6674,-3.6168,-3.5576,-3.4891,-3.4165,-3.3305,-3.2796,-3.2243,-3.1585,-3.1511,-3.1511,-3.1511,-3.1914,-3.2168,-3.2168,-3.2168,-3.2392,-3.2841,-3.2871,-3.2961,-3.317,-3.3185,-3.3275,-3.3499,-3.3499,-3.3499,-3.3499,-3.2754,-3.1976,-3.1199,-3.0918,-3.0763,-4.4914,-4.558,-4.5979,-4.5671,-4.424,-4.3028,-4.3516,-4.2647,-4.1922,-4.2719,-4.2901,-4.2901,-4.2901,-4.2901,-4.2901,-4.2901,-4.2901,-4.2972,-4.3182,-4.3592,-4.3978,-4.427,-4.5632,-4.6427,-4.6123,-4.6262,-4.6592,-4.7075,-4.6327,-4.6288,-4.7345,-4.6956,-4.6945,-4.7515,-4.6879,-4.6504,-4.6504,-4.4892,-4.4095,-4.4077,-4.3262,-4.2901,-4.2901,-4.2901,-4.2901,-4.2901,-4.2901,-4.2901,0.0,-4.2901,-4.2901,-4.2806,-4.1888,-4.1503,-4.137,-4.0237,-3.9781,-3.9677,-3.9484,-3.9352,-3.9299,-3.9299,-3.9299,-3.9299,-3.9299,-3.9299,-3.9299,-3.9299,-3.9299,-3.9299,-3.9299,-3.9299,-3.9245,-3.898,-3.8925,-3.8745,-3.8096,-3.7764,-3.7354,-3.6538,-3.6227,-3.5941,-3.5554,-3.5145,-3.4547,-3.3634,-3.314,-3.2557,-3.163,-3.1511,-3.16,-3.1854,-3.2243,-3.2706,-3.3215,-3.3021,-3.3066,-3.3469,-3.3499,-3.3604,-3.3858,-3.3858,-3.3993,-3.4247,-3.4247,-3.4107,-3.3792,-3.2776,-3.1861,-3.1069,-3.1027,-3.0986,0.0,-4.3932,-4.4947,-4.4186,-4.3444,-4.2901,-4.2901,-4.2321,0.0,-4.2737,-4.2901,-4.2901,-4.2901,-4.2901,-4.29,-4.2882,-4.2882,-4.3134,-4.3774,-4.3926,-4.3873,-4.37,-4.4981,-4.557,-4.4745,-4.6088,-4.6998,-4.6998,-4.7111,-4.7196,-4.7196,-4.7272,-4.7298,-4.7302,-4.6702,-4.6393,-4.6393,-4.482,-4.4005,-4.4005,-4.3263,-4.2901,-4.2901,-4.2901,-4.2901,-4.2901,-4.2901,-4.2901,-4.2901,-4.2901,-4.2901,-4.2806,-4.1888,-4.1503,-4.1348,-4.0162,-3.9703,-3.9651,-3.9405,-3.9299,-3.9299,-3.9299,-3.9299,-3.9299,-3.9299,-3.9299,-3.9299,-3.9299,-3.9299,-3.9299,-3.9299,-3.9272,-3.9077,-3.8435,-3.8266,-3.808,-3.7458,-3.6829,-3.6399,-3.6337,-3.5878,-3.5504,-3.5504,-3.5504,-3.504,-3.3694,-3.3499,-3.3021,-3.1675,-3.154,-3.1809,-3.2422,-3.2602,-3.3155,-3.4399,-3.3918,-3.3589,-3.3634,-3.3634,-3.3903,-3.4563,-3.4578,-3.4846,-3.5489,-3.5424,-3.4986,-3.4129,-3.2777,-3.17,-3.0986,-3.0986,-3.0986,-4.2359,0.0,-4.3407,-4.3226,-4.3046,-4.2901,0.0,0.0,0.0,0.0,0.0,-4.2901,-4.2901,-4.2901,-4.2881,-4.2823,-4.2822,-4.3017,-4.3589,-4.4632,-4.5315,-4.5267,-4.6123,-4.6391,-4.5606,-4.6409,-4.6998,-4.6998,-4.7043,-4.7088,-4.7178,-4.7201,-4.7249,-4.7298,-4.6032,-4.5395,-4.5441,-4.3888,-4.3113,-4.3172,-4.2992,-4.2901,-4.2901,-4.2901,-4.2901,-4.2901,-4.2901,-4.2901,-4.2901,-4.2901,-4.2901,-4.2806,-4.1888,-4.1503,-4.137,-4.0262,-3.9781,-3.9677,-3.9511,-3.9395,-3.9299,-3.9299,-3.9299,-3.9299,-3.9299,-3.9299,-3.9299,-3.9299,-3.9299,-3.9299,-3.9299,-3.8925,-3.8507,-3.8351,-3.7937,-3.7413,-3.6784,-3.6508,-3.6258,-3.5797,-3.5587,-3.5504,-3.5504,-3.5504,-3.504,-3.3694,-3.3499,-3.3021,-3.1675,-3.1944,-3.2318,-3.2467,-3.341,-3.4174,-3.4474,-3.4369,-3.4472,-3.4996,-3.504,-3.51,-3.525,-3.5265,-3.534,-3.5504,-3.4905,-3.3939,-3.2599,-3.2254,-3.17,-3.0986,-3.0986,-3.0986,-4.2086,-4.2196,-4.225,-4.1488,-4.1542,-4.1705,-4.1361,0.0,0.0,0.0,0.0,-4.2466,-4.2828,-4.2881,-4.2842,-4.2803,-4.3051,-4.3456,-4.4083,-4.4779,-4.5392,-4.5766,-4.6177,-4.6409,-4.6355,-4.673,-4.6998,-4.6998,-4.6998,-4.7043,-4.7111,-4.7111,-4.6955,-4.6605,-4.5441,-4.4881,-4.5047,-4.348,-4.2746,-4.2843,-4.2843,-4.2862,-4.2901,-4.2901,-4.2901,-4.2901,-4.2901,-4.2901,-4.2901,-4.2901,-4.2901,-4.2806,-4.1888,-4.1503,-4.137,-4.0303,-3.9824,-3.9677,-3.9554,-3.9405,-3.9299,-3.9299,-3.9299,-3.9299,-3.9299,-3.9299,-3.9299,-3.9299,-3.9299,-3.9299,-3.9299,-3.8799,-3.8222,-3.7937,-3.7383,-3.6784,-3.6148,-3.6005,-3.5878,-3.5554,-3.5504,-3.5504,-3.5504,-3.5504,-3.516,-3.4098,-3.3694,-3.3245,-3.2497,-3.2482,-3.2751,-3.335,-3.4084,-3.4638,-3.4921,-3.4951,-3.51,-3.5489,-3.5504,-3.5504,-3.5504,-3.5504,-3.5504,-3.5504,-3.4375,-3.3408,-3.2613,-3.1919,-3.1394,-3.0986,-3.0986,-3.0986,-4.1665,-4.1667,-4.1378,-3.9929,-4.0039,-4.0329,-3.9713,0.0,0.0,0.0,0.0,-4.1904,-4.2574,-4.277,-4.2783,-4.2763,-4.3402,-4.4127,-4.4685,-4.4864,-4.5142,-4.557,-4.5838,-4.6195,-4.6748,-4.6926,-4.6998,-4.6998,-4.6998,-4.6998,-4.6998,-4.6873,-4.6498,-4.582,-4.4906,-4.455,-4.4758,-4.3324,-4.2647,-4.2764,-4.2783,-4.2823,-4.2881,-4.29,-4.2901,-4.2901,-4.2901,-4.2901,-4.2901,-4.2901,-4.2901,-4.2806,-4.1888,-4.1503,-4.137,-4.0303,-3.9824,-3.9677,-3.9511,-3.9395,-3.9299,-3.9299,-3.9299,-3.9299,-3.9299,-3.9299,-3.9272,-3.9175,-3.9148,-3.9148,-3.9148,-3.8562,-3.7879,-3.737,-3.6753,-3.6101,-3.5619,-3.5504,-3.5504,-3.5504,-3.5504,-3.5504,-3.5504,-3.5504,-3.5235,-3.4474,-3.3933,-3.3574,-3.3365,-3.3036,-3.3245,-3.4384,-3.4593,-3.4861,-3.5459,-3.5504,-3.5504,-3.5504,-3.5504,-3.5504,-3.5504,-3.5504,-3.5392,-3.5148,-3.3865,-3.3087,-3.2875,-3.1616,-3.0986,-3.0986,-3.0986,-3.0986,-4.0168,-4.0411,-4.0797,-4.0419,-4.042,-4.0474,-4.0365,0.0,0.0,0.0,-4.1234,-4.1722,-4.1775,-4.2351,-4.2725,-4.2566,-4.3623,-4.4503,-4.4628,-4.5784,-4.6177,-4.4924,-4.5998,-4.6587,-4.6034,-4.6587,-4.6998,-4.6998,-4.6998,-4.6998,-4.6998,-4.6355,-4.5927,-4.5802,-4.4428,-4.3679,-4.3721,-4.291,-4.2566,-4.2629,-4.2745,-4.2803,-4.2822,-4.2881,-4.2901,-4.2901,-4.2901,-4.2901,-4.2901,-4.2901,-4.2901,-4.2806,-4.1888,-4.1503,-4.137,-4.0303,-3.9824,-3.9651,-3.9432,-3.9325,-3.9299,-3.9299,-3.9299,-3.9299,-3.9299,-3.9299,-3.9175,-3.8618,-3.8463,-3.8463,-3.8463,-3.756,-3.6662,-3.6569,-3.6085,-3.5619,-3.5537,-3.5504,-3.5504,-3.5504,-3.5504,-3.5504,-3.5504,-3.5504,-3.5085,-3.3829,-3.4038,-3.3918,-3.2811,-3.3544,-3.4279,-3.4488,-3.4996,-3.5385,-3.5489,-3.5504,-3.5504,-3.5504,-3.5504,-3.5504,-3.5504,-3.5504,-3.4902,-3.3575,-3.3332,-3.2591,-3.1334,-3.1123,-3.0986,-3.0986,-3.0986,-3.0986,-3.973,-3.9467,-3.9329,-3.9278,-3.9586,-3.9786,-3.9351,-3.926,0.0,0.0,-4.0782,-4.1433,-4.2622,-4.3123,-4.34,-4.3605,-4.3843,-4.4139,-4.4531,-4.4892,-4.5142,-4.5249,-4.5909,-4.6373,-4.6444,-4.6766,-4.6998,-4.6998,-4.6998,-4.6998,-4.6998,-4.623,-4.5606,-4.5178,-4.4068,-4.3304,-4.2858,-4.2563,-4.2427,-4.2546,-4.2606,-4.2704,-4.2803,-4.2823,-4.288,-4.2901,-4.2901,-4.2901,-4.2901,-4.2901,-4.2901,-4.2806,-4.1888,-4.1459,-4.1258,-4.0104,-3.9642,-3.9563,-3.9379,-3.9299,-3.9299,-3.9299,-3.9299,-3.9299,-3.9299,-3.9299,-3.9148,-3.849,-3.8306,-3.8222,-3.7908,-3.7101,-3.6399,-3.6399,-3.5941,-3.5504,-3.5504,-3.5504,-3.5504,-3.5504,-3.5504,-3.5504,-3.5504,-3.5504,-3.5295,-3.4681,-3.4517,-3.4429,-3.4158,-3.4337,-3.4653,-3.4996,-3.531,-3.5504,-3.5504,-3.5504,-3.5504,-3.5504,-3.5504,-3.5504,-3.5504,-3.5504,-3.4953,-3.3837,-3.3388,-3.2648,-3.1603,-3.1185,-3.0986,-3.0986,-3.0986,-3.0986,-3.9312,-3.8923,-3.8444,-3.8263,-3.8662,-3.8952,-3.8354,-3.8192,-3.8555,-3.9913,-4.0312,-4.1016,-4.2941,-4.3544,-4.3921,-4.4521,-4.4264,-4.425,-4.4799,-4.4571,-4.4696,-4.5677,-4.5963,-4.632,-4.6926,-4.6998,-4.6998,-4.6998,-4.6998,-4.6908,-4.673,-4.5963,-4.516,-4.4353,-4.3625,-4.2912,-4.2308,-4.2308,-4.2346,-4.2445,-4.2483,-4.2584,-4.2743,-4.2745,-4.2785,-4.2825,-4.2862,-4.2881,-4.2881,-4.2882,-4.2901,-4.2788,-4.1828,-4.1213,-4.0767,-3.9893,-3.9528,-3.9448,-3.9342,-3.9299,-3.9299,-3.9299,-3.9299,-3.9299,-3.9299,-3.9299,-3.9121,-3.8322,-3.808,-3.7937,-3.734,-3.6692,-3.6196,-3.6196,-3.5861,-3.5504,-3.5504,-3.5504,-3.5504,-3.5504,-3.5504,-3.5504,-3.5504,-3.5504,-3.5444,-3.5295,-3.4951,-3.4846,-3.522,-3.4936,-3.4921,-3.5444,-3.5504,-3.5504,-3.5504,-3.5504,-3.5504,-3.5504,-3.5504,-3.5504,-3.5504,-3.5504,-3.5034,-3.4075,-3.3492,-3.2755,-3.1846,-3.1259,-3.0986,-3.0986,-3.0986,-3.0986,-3.849,-3.8905,-3.9115,-3.839,-3.8245,-3.8281,-3.8209,-3.8105,-3.8254,-3.912,-3.9788,-4.0487,-4.1323,-4.2601,-4.375,-4.4478,-4.5195,-4.5659,-4.5713,-4.6302,-4.6498,-4.5873,-4.6462,-4.6926,-4.698,-4.6998,-4.6998,-4.6998,-4.6998,-4.6659,-4.5927,-4.5102,-4.4335,-4.3586,-4.2804,-4.2361,-4.2308,-4.2308,-4.2308,-4.2325,-4.2445,-4.2503,-4.2524,-4.2588,-4.2629,-4.2629,-4.2764,-4.2803,-4.2822,-4.2881,-4.2901,-4.2788,-4.1721,-4.0625,-3.9625,-3.9677,-3.952,-3.9299,-3.9299,-3.9299,-3.9299,-3.9299,-3.9299,-3.9299,-3.9299,-3.9299,-3.9023,-3.7809,-3.7458,-3.731,-3.6631,-3.6022,-3.5554,-3.5554,-3.5537,-3.5504,-3.5504,-3.5504,-3.5504,-3.5504,-3.5504,-3.5504,-3.5504,-3.5504,-3.5295,-3.4683,-3.5055,-3.522,-3.4653,-3.507,-3.5444,-3.5504,-3.5504,-3.5504,-3.5504,-3.5504,-3.5504,-3.5504,-3.5504,-3.5504,-3.5504,-3.5504,-3.4787,-3.3318,-3.3213,-3.2484,-3.1086,-3.1024,-3.0986,-3.0986,-3.0986,-3.0986,-3.8399,-3.8523,-3.8589,-3.8281,-3.8209,-3.8174,-3.8088,-3.8813,-3.9427,-3.9194,-4.0506,-4.1761,-4.1984,-4.3224,-4.3964,-4.3286,-4.4232,-4.5049,-4.5049,-4.5749,-4.632,-4.6516,-4.6801,-4.6998,-4.6998,-4.6998,-4.6998,-4.6998,-4.6998,-4.6641,-4.5838,-4.5053,-4.4246,-4.3515,-4.2715,-4.2308,-4.2308,-4.2308,-4.2308,-4.2308,-4.2346,-4.2425,-4.2503,-4.2526,-4.2548,-4.2609,-4.2649,-4.2725,-4.2803,-4.2841,-4.2862,-4.2806,-4.1639,-4.0552,-3.9599,-3.9484,-3.9379,-3.9299,-3.9299,-3.9299,-3.9299,-3.9299,-3.9299,-3.9299,-3.9299,-3.9299,-3.9023,-3.7751,-3.7399,-3.7161,-3.6116,-3.5683,-3.5504,-3.5504,-3.5504,-3.5504,-3.5504,-3.5504,-3.5504,-3.5504,-3.5504,-3.5504,-3.5504,-3.5504,-3.5415,-3.516,-3.534,-3.5415,-3.5145,-3.534,-3.5504,-3.5504,-3.5504,-3.5504,-3.5504,-3.5504,-3.5504,-3.5504,-3.5504,-3.5504,-3.5504,-3.5504,-3.4754,-3.3213,-3.3178,-3.2484,-3.0986,-3.0986,-3.0986,-3.0986,-3.0986,-3.0986,-3.8399,-3.8305,-3.8209,-3.8209,-3.8157,-3.8125,-3.8097,-3.9085,-3.9823,-3.9277,-4.0631,-4.1966,-4.2151,-4.3119,-4.3607,-4.2804,-4.3768,-4.4692,-4.4924,-4.5463,-4.6105,-4.689,-4.6842,-4.6801,-4.698,-4.6842,-4.6819,-4.6998,-4.6748,-4.6266,-4.5463,-4.4696,-4.3889,-4.3161,-4.259,-4.2308,-4.2308,-4.2308,-4.2308,-4.2308,-4.2308,-4.2346,-4.2445,-4.2445,-4.2447,-4.251,-4.255,-4.2607,-4.2704,-4.257,-4.2318,-4.1979,-4.1335,-4.0463,-3.9547,-3.9405,-3.9342,-3.9299,-3.9299,-3.9299,-3.9299,-3.9299,-3.9299,-3.9299,-3.9299,-3.9299,-3.9067,-3.7982,-3.7546,-3.7161,-3.6053,-3.5651,-3.5504,-3.5504,-3.5504,-3.5504,-3.5504,-3.5504,-3.5504,-3.5504,-3.5504,-3.5504,-3.5504,-3.5504,-3.5504,-3.5504,-3.5504,-3.5504,-3.5504,-3.5504,-3.5504,-3.5504,-3.5504,-3.5504,-3.5504,-3.5504,-3.5504,-3.5504,-3.5504,-3.5504,-3.5504,-3.5504,-3.4754,-3.3213,-3.3178,-3.2484,-3.0986,-3.0986,-3.0986,-3.0986,-3.0986,-3.0986,-3.8399,-3.8305,-3.8209,-3.8209,-3.8105,-3.806,-3.8259,-3.8718,-3.9135,-3.9285,-3.9891,-4.0617,-4.1354,-4.192,-4.2555,-4.3337,-4.4086,-4.487,-4.5655,-4.578,-4.6065,-4.689,-4.6501,-4.6405,-4.6934,-4.6501,-4.6405,-4.6916,-4.6248,-4.5423,-4.4638,-4.3889,-4.3123,-4.2323,-4.2287,-4.2287,-4.2308,-4.2308,-4.2308,-4.2308,-4.2308,-4.2308,-4.2308,-4.2308,-4.2308,-4.2308,-4.2425,-4.2503,-4.2463,-4.2065,-4.1253,-4.0285,-4.0868,-4.0358,-3.9325,-3.9448,-3.9405,-3.9299,-3.9299,-3.9299,-3.9299,-3.9299,-3.9299,-3.9299,-3.9299,-3.9299,-3.9148,-3.849,-3.7851,-3.7251,-3.6569,-3.5941,-3.5504,-3.5504,-3.5504,-3.5504,-3.5504,-3.5504,-3.5504,-3.5504,-3.5504,-3.5504,-3.5504,-3.5504,-3.5504,-3.5504,-3.5504,-3.5504,-3.5504,-3.5504,-3.5504,-3.5504,-3.5504,-3.5504,-3.5504,-3.5504,-3.5504,-3.5504,-3.5504,-3.5504,-3.5504,-3.5504,-3.4754,-3.3213,-3.3178,-3.2461,-3.0986,-3.0986,-3.0986,-3.0986,-3.0986,-3.0986,-3.8399,-3.8305,-3.8209,-3.8209,-3.8591,-3.8869,-3.8402,-3.907,-3.9987,-4.0697,-4.0301,-3.9915,-4.0123,-4.0763,-4.1138,-4.0819,-4.1888,-4.3009,-4.3735,-4.4335,-4.4963,-4.5705,-4.5657,-4.5631,-4.5784,-4.5179,-4.4866,-4.5015,-4.4324,-4.3783,-4.3509,-4.2835,-4.2473,-4.252,-4.2013,-4.1917,-4.2287,-4.2308,-4.2308,-4.2308,-4.2308,-4.2308,-4.229,-4.1698,-4.1752,-4.2272,-4.1739,-4.1886,-4.2503,-4.243,-4.1778,-4.0844,-4.092,-4.0334,-3.9432,-3.9379,-3.9325,-3.9299,-3.9299,-3.9299,-3.9299,-3.9299,-3.9299,-3.9299,-3.9299,-3.9299,-3.9148,-3.849,-3.7851,-3.7251,-3.6569,-3.5941,-3.5504,-3.5504,-3.5504,-3.5504,-3.5504,-3.5504,-3.5504,-3.5504,-3.5504,-3.5504,-3.5504,-3.5504,-3.5504,-3.5504,-3.5504,-3.5504,-3.5504,-3.5504,-3.5504,-3.5504,-3.5504,-3.5504,-3.5504,-3.5504,-3.5504,-3.5504,-3.5504,-3.5246,-3.4677,-3.4643,-3.3939,-3.247,-3.2434,-3.1955,-3.0986,-3.0986,-3.0986,-3.0986,-3.0986,-3.0986,-3.8368,-3.8272,-3.8209,-3.8209,-3.8519,-3.8743,-3.8362,-3.8942,-3.9835,-4.0718,-4.0023,-3.9399,-3.9689,-4.0068,-4.0278,-4.0083,-4.0888,-4.1774,-4.2516,-4.3017,-4.3611,-4.4328,-4.425,-4.4198,-4.4406,-4.3821,-4.3537,-4.3749,-4.3084,-4.2645,-4.262,-4.1912,-4.1618,-4.1882,-4.1446,-4.1378,-4.1705,-4.1616,-4.1558,-4.154,-4.1403,-4.1341,-4.1341,-4.1502,-4.1841,-4.2272,-4.1787,-4.1659,-4.1831,-4.2068,-4.1455,-4.0383,-4.0494,-4.0078,-3.9405,-3.9325,-3.9299,-3.9299,-3.9299,-3.9299,-3.9299,-3.9299,-3.9299,-3.9299,-3.9299,-3.9299,-3.9218,-3.8816,-3.8067,-3.731,-3.689,-3.6148,-3.5504,-3.5504,-3.5504,-3.5504,-3.5504,-3.5504,-3.5504,-3.5504,-3.5504,-3.5504,-3.5504,-3.5504,-3.5504,-3.5504,-3.5504,-3.5504,-3.5504,-3.5504,-3.5504,-3.5504,-3.5504,-3.5504,-3.5504,-3.5504,-3.5504,-3.5504,-3.5198,-3.4658,-3.3905,-3.4129,-3.3616,-3.211,-3.211,-3.175,-3.0986,-3.0986,-3.0986,-3.0986,-3.0986,-3.0986,-3.8322,-3.8257,-3.8209,-3.8209,-3.8073,-3.8008,-3.8164,-3.8447,-3.8865,-3.964,-3.9252,-3.8983,-3.9708,-3.9586,-3.965,-4.0521,-4.0607,-4.0872,-4.1722,-4.1842,-4.2142,-4.2848,-4.2508,-4.2404,-4.2884,-4.244,-4.2319,-4.2823,-4.2177,-4.1773,-4.1842,-4.1095,-4.0683,-4.0731,-4.0662,-4.0617,-4.0595,-4.0358,-4.0245,-4.0288,-3.9937,-3.9799,-3.9891,-4.1321,-4.1966,-4.1925,-4.2026,-4.1556,-4.0745,-4.1213,-4.0618,-3.9415,-3.9842,-3.9705,-3.9299,-3.9299,-3.9299,-3.9299,-3.9299,-3.9299,-3.9299,-3.9299,-3.9299,-3.9299,-3.9299,-3.9299,-3.9299,-3.9299,-3.8383,-3.7399,-3.7399,-3.6461,-3.5504,-3.5504,-3.5549,-3.5579,-3.5519,-3.5549,-3.5579,-3.5519,-3.5504,-3.5504,-3.5504,-3.5504,-3.5504,-3.5504,-3.5504,-3.5504,-3.5504,-3.5504,-3.5504,-3.5504,-3.5504,-3.5504,-3.5504,-3.5504,-3.5472,-3.5392,-3.471,-3.3939,-3.3143,-3.3719,-3.3443,-3.2015,-3.2015,-3.1676,-3.0986,-3.0986,-3.0986,-3.0986,-3.0986,-3.0986,-3.8385,-3.8289,-3.8209,-3.8209,-3.7932,-3.7769,-3.8116,-3.7821,-3.7628,-3.8164,-3.8296,-3.8384,-3.8576,-3.807,-3.8062,-3.9391,-3.914,-3.9224,-4.0572,-4.0739,-4.1007,-4.1682,-4.1672,-4.1644,-4.1765,-4.1171,-4.0855,-4.0973,-4.0287,-4.0137,-4.0722,-4.0036,-3.9799,-4.0153,-3.96,-3.9221,-3.9076,-3.9015,-3.9164,-3.9536,-3.9093,-3.907,-3.9417,-3.9509,-3.9347,-3.9047,-3.9901,-4.0134,-3.9986,-4.066,-4.0521,-3.9868,-3.9952,-3.9705,-3.9299,-3.9299,-3.9299,-3.9299,-3.9299,-3.9299,-3.9299,-3.9299,-3.9299,-3.9299,-3.9299,-3.9299,-3.9299,-3.9299,-3.8383,-3.7399,-3.7399,-3.6461,-3.5504,-3.5504,-3.5893,-3.6133,-3.5609,-3.5908,-3.6118,-3.5609,-3.5504,-3.5504,-3.5504,-3.5504,-3.5504,-3.5504,-3.5504,-3.5504,-3.5504,-3.5504,-3.5504,-3.5504,-3.5504,-3.5504,-3.5504,-3.5504,-3.5246,-3.461,-3.438,-3.3719,-3.2398,-3.2506,-3.216,-3.1259,-3.1222,-3.1161,-3.0986,-3.0986,-3.0986,-3.0986,-3.0986,-3.0986,-3.8352,-3.829,-3.8209,-3.8209,-3.7907,-3.7658,-3.7858,-3.7503,-3.7078,-3.6967,-3.7328,-3.7682,-3.7682,-3.7367,-3.7466,-3.8576,-3.846,-3.8593,-3.973,-3.9879,-4.0011,-4.0348,-4.0382,-4.0382,-4.0382,-4.0094,-3.9879,-3.9879,-3.9514,-3.9315,-3.9338,-3.8974,-3.8707,-3.8614,-3.8229,-3.7991,-3.7875,-3.7757,-3.7647,-3.7543,-3.7465,-3.7573,-3.784,-3.8418,-3.8576,-3.8384,-3.8945,-3.9233,-3.9354,-3.973,-3.9781,-3.9653,-3.9653,-3.9504,-3.9299,-3.9299,-3.9299,-3.9299,-3.9299,-3.9299,-3.9299,-3.9299,-3.9299,-3.9299,-3.9299,-3.9299,-3.9299,-3.9299,-3.8383,-3.7399,-3.7399,-3.6461,-3.5504,-3.5504,-3.6013,-3.6312,-3.5654,-3.6028,-3.6387,-3.6043,-3.5729,-3.5609,-3.5923,-3.5714,-3.5504,-3.5504,-3.5504,-3.5504,-3.5504,-3.5504,-3.5504,-3.5504,-3.5504,-3.5504,-3.5504,-3.5504,-3.5166,-3.4346,-3.3973,-3.3269,-3.2146,-3.1773,-3.1394,-3.1024,-3.0986,-3.0986,-3.0986,-3.0986,-3.0986,-3.0986,-3.0986,-3.0986,-3.8338,-3.8257,-3.8192,-3.8106,-3.7745,-3.7426,-3.7321,-3.7028,-3.658,-3.5943,-3.6406,-3.692,-3.692,-3.682,-3.7003,-3.788,-3.803,-3.8278,-3.9017,-3.9232,-3.9299,-3.9299,-3.9299,-3.9299,-3.9299,-3.9299,-3.9299,-3.9299,-3.9183,-3.8825,-3.8219,-3.8096,-3.7682,-3.6936,-3.692,-3.6854,-3.6721,-3.6487,-3.6078,-3.5407,-3.5745,-3.5942,-3.6011,-3.7345,-3.8018,-3.8084,-3.8116,-3.8246,-3.8434,-3.8662,-3.8916,-3.9133,-3.9249,-3.9299,-3.9299,-3.9299,-3.9299,-3.9299,-3.9299,-3.9299,-3.9299,-3.9299,-3.9299,-3.9299,-3.9299,-3.9299,-3.9299,-3.9299,-3.8383,-3.7399,-3.7399,-3.6461,-3.5504,-3.5504,-3.6013,-3.6312,-3.5654,-3.6028,-3.6447,-3.6342,-3.5878,-3.5684,-3.6222,-3.5863,-3.5504,-3.5504,-3.5504,-3.5504,-3.5504,-3.5504,-3.5504,-3.5504,-3.5504,-3.5504,-3.5504,-3.5359,-3.4953,-3.4177,-3.3422,-3.2684,-3.1942,-3.1334,-3.0986,-3.0986,-3.0986,-3.0986,-3.0986,-3.0986,-3.0986,-3.0986,-3.0986,-3.0986,-3.8399,-3.8289,-3.8106,-3.7703,-3.7204,-3.6684,-3.6221,-3.574,-3.5324,-3.5089,-3.5628,-3.6158,-3.6158,-3.5628,-3.5644,-3.7036,-3.7251,-3.75,-3.8245,-3.8891,-3.9299,-3.9299,-3.9299,-3.9299,-3.9299,-3.9299,-3.9299,-3.9299,-3.8709,-3.8311,-3.8228,-3.7599,-3.692,-3.6174,-3.6158,-3.5843,-3.5197,-3.5153,-3.4977,-3.4663,-3.4689,-3.4869,-3.5095,-3.5295,-3.5618,-3.6022,-3.6259,-3.6346,-3.6497,-3.7768,-3.8297,-3.8411,-3.905,-3.9299,-3.9299,-3.9299,-3.9299,-3.9299,-3.9299,-3.9299,-3.9299,-3.9299,-3.9299,-3.9299,-3.9299,-3.9299,-3.9299,-3.9299,-3.8383,-3.7399,-3.7399,-3.6461,-3.5504,-3.5504,-3.6013,-3.6312,-3.5654,-3.6028,-3.6312,-3.5744,-3.5564,-3.5534,-3.5624,-3.5564,-3.5504,-3.5504,-3.5504,-3.5504,-3.5504,-3.5504,-3.5504,-3.5504,-3.5504,-3.5504,-3.5504,-3.4872,-3.4143,-3.3388,-3.2648,-3.1919,-3.1198,-3.1048,-3.0986,-3.0986,-3.0986,-3.0986,-3.0986,-3.0986,-3.0986,-3.0986,-3.0986,-3.0986,-3.8368,-3.8289,-3.8207,-3.795,-3.7148,-3.6309,-3.5838,-3.4972,-3.4157,-3.385,-3.4379,-3.4987,-3.5313,-3.5114,-3.5247,-3.6307,-3.6489,-3.6738,-3.7483,-3.7864,-3.8212,-3.8626,-3.8676,-3.8841,-3.9265,-3.8924,-3.8858,-3.9265,-3.8626,-3.8004,-3.7615,-3.7284,-3.6572,-3.5413,-3.5379,-3.523,-3.4899,-3.4899,-3.4851,-3.471,-3.4308,-3.4378,-3.4899,-3.4899,-3.5001,-3.5211,-3.5326,-3.5628,-3.6075,-3.7152,-3.7847,-3.8278,-3.9017,-3.9299,-3.9299,-3.9299,-3.9299,-3.9299,-3.9299,-3.9299,-3.9299,-3.9299,-3.9299,-3.9299,-3.9299,-3.9299,-3.9299,-3.9299,-3.8383,-3.7399,-3.7399,-3.6461,-3.5504,-3.5504,-3.5729,-3.5863,-3.5564,-3.6028,-3.6297,-3.5624,-3.5804,-3.5938,-3.5564,-3.5504,-3.5504,-3.5504,-3.5504,-3.5504,-3.5504,-3.5504,-3.5504,-3.5504,-3.5504,-3.5326,-3.4872,-3.4495,-3.3822,-3.2648,-3.229,-3.1773,-3.1024,-3.0986,-3.0986,-3.0986,-3.0986,-3.0986,-3.0986,-3.0986,-3.0986,-3.0986,-3.0986,-3.0986,-3.837,-3.8305,-3.829,-3.8225,-3.7343,-3.6451,-3.6117,-3.5099,-3.4125,-3.3732,-3.3979,-3.4409,-3.4871,-3.4923,-3.5081,-3.5628,-3.5876,-3.6191,-3.6738,-3.6986,-3.7317,-3.7864,-3.8096,-3.8427,-3.8984,-3.8692,-3.8626,-3.9,-3.8344,-3.7615,-3.687,-3.6655,-3.6042,-3.4932,-3.4899,-3.4899,-3.4899,-3.47,-3.47,-3.4883,-3.4137,-3.4187,-3.4899,-3.4899,-3.4899,-3.4899,-3.4899,-3.5214,-3.5777,-3.6522,-3.7152,-3.7748,-3.8659,-3.9033,-3.905,-3.9232,-3.9299,-3.9299,-3.9299,-3.9299,-3.9299,-3.9299,-3.9299,-3.9299,-3.9299,-3.9299,-3.9299,-3.9299,-3.8383,-3.7399,-3.7399,-3.6461,-3.5504,-3.5504,-3.5504,-3.5504,-3.5504,-3.5893,-3.6088,-3.5609,-3.5893,-3.6088,-3.5594,-3.5504,-3.5504,-3.5504,-3.5504,-3.5564,-3.5729,-3.5609,-3.5564,-3.5744,-3.5609,-3.5166,-3.438,-3.4143,-3.3478,-3.2182,-3.1905,-3.1566,-3.1024,-3.0986,-3.0986,-3.0986,-3.0986,-3.0986,-3.0986,-3.0986,-3.0986,-3.0986,-3.0986,-3.0986,-3.8415,-3.8354,-3.829,-3.8225,-3.7809,-3.7397,-3.7251,-3.6579,-3.5934,-3.5766,-3.5369,-3.5055,-3.5088,-3.4994,-3.4916,-3.4949,-3.5545,-3.6009,-3.6059,-3.6671,-3.7119,-3.7152,-3.7755,-3.8228,-3.8261,-3.8841,-3.8984,-3.8328,-3.7582,-3.6837,-3.6108,-3.5396,-3.4982,-3.4899,-3.4899,-3.4899,-3.4899,-3.4203,-3.4203,-3.4883,-3.4137,-3.4187,-3.4899,-3.4899,-3.4899,-3.4899,-3.4899,-3.4916,-3.5015,-3.5744,-3.6075,-3.6257,-3.7715,-3.8278,-3.8344,-3.905,-3.9299,-3.9299,-3.9299,-3.9299,-3.9299,-3.9299,-3.9299,-3.9299,-3.9299,-3.9299,-3.9299,-3.9299,-3.8383,-3.7399,-3.7399,-3.6461,-3.5504,-3.5504,-3.5504,-3.5504,-3.5504,-3.5534,-3.5549,-3.5519,-3.5534,-3.5549,-3.5504,-3.5504,-3.5504,-3.5504,-3.5504,-3.5729,-3.6357,-3.5893,-3.5744,-3.6372,-3.5878,-3.5166,-3.438,-3.3665,-3.2932,-3.2146,-3.1431,-3.1061,-3.0986,-3.0986,-3.0986,-3.0986,-3.0986,-3.0986,-3.0986,-3.0986,-3.0986,-3.0986,-3.0986,-3.0986,-3.8494,-3.8433,-3.8354,-3.829,-3.7725,-3.7107,-3.6791,-3.5891,-3.504,-3.4679,-3.4605,-3.4538,-3.4418,-3.4678,-3.4899,-3.4899,-3.5114,-3.5297,-3.5297,-3.5528,-3.586,-3.634,-3.6638,-3.6986,-3.7466,-3.7731,-3.7963,-3.8169,-3.7533,-3.6986,-3.6721,-3.6009,-3.5396,-3.4916,-3.4899,-3.4899,-3.4899,-3.4634,-3.4634,-3.4899,-3.4618,-3.4634,-3.4899,-3.4899,-3.4899,-3.4899,-3.4899,-3.4899,-3.4965,-3.5694,-3.6009,-3.6108,-3.7102,-3.7798,-3.8219,-3.8493,-3.8874,-3.9299,-3.9299,-3.9299,-3.9299,-3.9299,-3.9299,-3.9299,-3.9299,-3.9299,-3.9299,-3.9299,-3.8383,-3.7399,-3.7399,-3.6461,-3.5504,-3.5504,-3.5504,-3.5504,-3.5504,-3.5504,-3.5504,-3.5504,-3.5848,-3.5998,-3.5579,-3.5863,-3.5998,-3.5564,-3.5504,-3.5594,-3.5833,-3.6013,-3.5877,-3.5159,-3.5257,-3.4708,-3.3017,-3.2648,-3.2196,-3.1431,-3.1161,-3.0986,-3.0986,-3.0986,-3.0986,-3.0986,-3.0986,-3.0986,-3.0986,-3.0986,-3.0986,-3.0986,-3.0986,-3.0986,-3.8544,-3.8446,-3.8366,-3.8323,-3.7842,-3.7327,-3.7072,-3.6167,-3.5278,-3.4968,-3.4806,-3.4634,-3.447,-3.4732,-3.4947,-3.4899,-3.4899,-3.4899,-3.4899,-3.4899,-3.5081,-3.5578,-3.5843,-3.6191,-3.6688,-3.6953,-3.7201,-3.745,-3.7019,-3.6622,-3.6373,-3.5893,-3.5413,-3.4916,-3.4899,-3.4899,-3.4899,-3.4899,-3.4899,-3.4899,-3.4899,-3.4899,-3.4899,-3.4899,-3.4899,-3.4899,-3.4899,-3.4899,-3.4932,-3.5429,-3.5628,-3.5694,-3.6439,-3.7036,-3.7533,-3.803,-3.851,-3.8984,-3.9216,-3.9299,-3.9299,-3.9299,-3.9299,-3.9299,-3.9299,-3.9299,-3.9245,-3.9023,-3.8226,-3.734,-3.7131,-3.629,-3.5504,-3.5504,-3.5504,-3.5504,-3.5504,-3.5684,-3.5833,-3.5833,-3.6193,-3.6417,-3.6193,-3.6148,-3.6088,-3.5863,-3.5654,-3.5654,-3.6088,-3.6093,-3.5859,-3.5319,-3.5062,-3.4207,-3.2536,-3.2209,-3.1773,-3.1061,-3.0986,-3.0986,-3.0986,-3.0986,-3.0986,-3.0986,-3.0986,-3.0986,-3.0986,-3.0986,-3.0986,-3.0986,-3.0986,-3.0986,0.0,0.0,0.0,-3.8322,-3.8241,-3.8209,-3.8209,-3.7541,-3.6919,-3.69,-3.6156,-3.5492,-3.5314,-3.5198,-3.5065,-3.4923,-3.4899,-3.4899,-3.4899,-3.4899,-3.4899,-3.4899,-3.5528,-3.5976,-3.5976,-3.6638,-3.6771,-3.6059,-3.6009,-3.5694,-3.4965,-3.4916,-3.4899,-3.4899,-3.4899,-3.4899,-3.4899,-3.4899,-3.4899,-3.4899,-3.4899,-3.4899,-3.4899,-3.4899,-3.4899,-3.4899,-3.4899,-3.4899,-3.4899,-3.4899,-3.4899,-3.4965,-3.5694,-3.5976,-3.6174,-3.7649,-3.8169,-3.8328,-3.905,-3.9299,-3.9299,-3.9282,-3.9265,-3.9265,-3.9265,-3.9239,-3.9115,-3.849,-3.7851,-3.7221,-3.6554,-3.5941,-3.5504,-3.5504,-3.5504,-3.5504,-3.5504,-3.6028,-3.6492,-3.6492,-3.6492,-3.6686,-3.7285,-3.6357,-3.5744,-3.6372,-3.5908,-3.5953,-3.7225,-3.6138,-3.5722,-3.6976,-3.5309,-3.3793,-3.302,-3.239,-3.1773,-3.1061,-3.0986,-3.0986,-3.0986,-3.0986,-3.0986,-3.0986,-3.0986,-3.0986,-3.0986,-3.0986,-3.0986,-3.0986,-3.0986,-3.0986,-3.8658,0.0,0.0,0.0,0.0,0.0,-3.8209,-3.7739,-3.7265,-3.6958,-3.6454,-3.5954,-3.552,-3.5354,-3.5198,-3.5065,-3.497,-3.4899,-3.4899,-3.4899,-3.4899,-3.4899,-3.5081,-3.5197,-3.5197,-3.5876,-3.6224,-3.6025,-3.6009,-3.5909,-3.5711,-3.5181,-3.4899,-3.4899,-3.4899,-3.4899,-3.4899,-3.4899,-3.4899,-3.4899,-3.4899,-3.4899,-3.4899,-3.4899,-3.4899,-3.4899,-3.4899,-3.4899,-3.4899,-3.4899,-3.4899,-3.4916,-3.5114,-3.5528,-3.6108,-3.7069,-3.7748,-3.8328,-3.905,-3.9299,-3.9216,-3.8676,-3.851,-3.851,-3.851,-3.8186,-3.7856,-3.8205,-3.7501,-3.6523,-3.591,-3.5619,-3.5504,-3.5504,-3.5504,-3.5504,-3.5504,-3.6028,-3.6492,-3.6492,-3.6492,-3.6537,-3.6716,-3.6447,-3.6118,-3.5818,-3.5624,-3.5804,-3.6626,-3.6256,-3.569,-3.5095,-3.44,-3.3305,-3.1688,-3.1389,-3.1222,-3.1024,-3.0986,-3.0986,-3.0986,-3.0986,-3.0986,-3.0986,-3.0986,-3.0986,-3.0986,-3.0986,-3.0986,-3.0986,-3.0986,-3.0986,-3.8707,-3.8578,-3.8446,-3.8415,0.0,0.0,-3.8209,-3.7721,-3.7189,-3.6939,-3.6433,-3.591,-3.5543,-3.5446,-3.5337,-3.5198,-3.5065,-3.497,-3.4899,-3.4899,-3.4899,-3.4899,-3.4899,-3.4899,-3.4899,-3.5297,-3.5545,-3.5545,-3.5545,-3.5545,-3.5545,-3.5131,-3.4899,-3.4899,-3.4899,-3.4899,-3.4899,-3.4899,-3.4899,-3.4899,-3.4899,-3.4899,-3.4899,-3.4899,-3.4899,-3.4899,-3.4899,-3.4899,-3.4899,-3.4899,-3.4899,-3.4899,-3.4899,-3.5164,-3.5678,-3.6721,-3.7384,-3.7897,-3.895,-3.91,-3.8758,-3.8344,-3.8186,-3.8278,-3.8576,-3.8395,-3.8117,-3.8332,-3.723,-3.6002,-3.5932,-3.5908,-3.5908,-3.5908,-3.5908,-3.5833,-3.5564,-3.5804,-3.6163,-3.6432,-3.6492,-3.6567,-3.6821,-3.6432,-3.6043,-3.5923,-3.5684,-3.563,-3.5974,-3.5584,-3.4995,-3.4154,-3.343,-3.2571,-3.143,-3.1117,-3.0986,-3.0986,-3.0986,-3.0986,-3.0986,-3.0986,-3.0986,-3.0986,-3.0986,-3.0986,-3.0986,-3.0986,-3.0986,-3.0986,-3.0986,-3.0986,-3.8707,-3.8562,-3.8415,-3.8399,-3.8305,0.0,-3.8209,-3.7595,-3.7017,-3.6919,-3.627,-3.5711,-3.5543,-3.5514,-3.5469,-3.5337,-3.5198,-3.5081,-3.4947,-3.4899,-3.4899,-3.4899,-3.4899,-3.4899,-3.4899,-3.4899,-3.4899,-3.4899,-3.4899,-3.4899,-3.4899,-3.4899,-3.4899,-3.4899,-3.4899,-3.4899,-3.4899,-3.4899,-3.4899,-3.4899,-3.4899,-3.4899,-3.4899,-3.4899,-3.4899,-3.4899,-3.4899,-3.4899,-3.4899,-3.4899,-3.4899,-3.4899,-3.4899,-3.4899,-3.5065,-3.6473,-3.7036,-3.7301,-3.8619,-3.8676,-3.8179,-3.803,-3.7963,-3.807,-3.8755,-3.8939,-3.8865,-3.849,-3.6999,-3.5654,-3.6312,-3.6432,-3.6402,-3.6477,-3.6432,-3.6237,-3.5729,-3.5549,-3.5684,-3.6267,-3.6372,-3.6567,-3.7195,-3.6312,-3.5699,-3.6297,-3.5878,-3.5436,-3.5321,-3.459,-3.4024,-3.384,-3.26,-3.1784,-3.1719,-3.1274,-3.0986,-3.0986,-3.0986,-3.0986,-3.0986,-3.0986,-3.0986,-3.0986,-3.0986,-3.0986,-3.0986,-3.0986,-3.0986,-3.0986,-3.0986,-3.0986,-3.8707,-3.8593,-3.8478,-3.8415,-3.8354,0.0,-3.8225,-3.8072,-3.7739,-3.7036,-3.6761,-3.6416,-3.5694,-3.5543,-3.5492,-3.5469,-3.5354,-3.5222,-3.5065,-3.497,-3.4899,-3.4899,-3.4899,-3.4899,-3.4899,-3.4899,-3.4899,-3.4899,-3.4899,-3.4899,-3.4899,-3.4899,-3.4899,-3.4899,-3.4899,-3.4899,-3.4899,-3.4899,-3.4899,-3.4899,-3.4899,-3.4899,-3.4899,-3.4899,-3.4899,-3.4899,-3.4899,-3.4899,-3.4899,-3.4899,-3.4899,-3.4899,-3.4899,-3.4899,-3.5015,-3.5893,-3.6605,-3.7152,-3.7433,-3.7831,-3.7987,-3.682,-3.6439,-3.6455,-3.6665,-3.6749,-3.6924,-3.746,-3.6604,-3.5654,-3.6312,-3.6088,-3.5833,-3.6357,-3.6088,-3.5804,-3.6207,-3.5878,-3.5549,-3.5669,-3.5699,-3.5908,-3.6552,-3.6013,-3.5549,-3.5684,-3.5594,-3.5436,-3.5321,-3.459,-3.3893,-3.3309,-3.2374,-3.1615,-3.1196,-3.1052,-3.0986,-3.0986,-3.0986,-3.0986,-3.0986,-3.0986,-3.0986,-3.0986,-3.0986,-3.0986,-3.0986,-3.0986,-3.0986,-3.0986,-3.0986,-3.0986,-3.8593,-3.8496,-3.8385,-3.8352,-3.8289,0.0,0.0,-3.802,-3.7613,-3.6769,-3.6597,-3.6333,-3.5506,-3.5457,-3.5566,-3.5566,-3.5452,-3.5377,-3.5314,-3.5128,-3.497,-3.4899,-3.4899,-3.4899,-3.4899,-3.4899,-3.4899,-3.4899,-3.4899,-3.4899,-3.4899,-3.4899,-3.4899,-3.4899,-3.4899,-3.4899,-3.4899,-3.5263,-3.5263,-3.4899,-3.5263,-3.5263,-3.4899,-3.4899,-3.4899,-3.4899,-3.4899,-3.4899,-3.4899,-3.4899,-3.4899,-3.4899,-3.4899,-3.4899,-3.4982,-3.5727,-3.6241,-3.6605,-3.6986,-3.7102,-3.6986,-3.6241,-3.6025,-3.6114,-3.6524,-3.6734,-3.6863,-3.6908,-3.6252,-3.5729,-3.6701,-3.6477,-3.6073,-3.6417,-3.6237,-3.5998,-3.5998,-3.5744,-3.5504,-3.5504,-3.5504,-3.5609,-3.5938,-3.5729,-3.5504,-3.5504,-3.5504,-3.5185,-3.437,-3.3889,-3.3226,-3.2168,-3.167,-3.13,-3.1013,-3.0986,-3.0986,-3.0986,-3.0986,-3.0986,-3.0986,-3.0986,-3.0986,-3.0986,-3.0986,-3.0986,-3.0986,-3.0986,-3.0986,-3.0986,-3.0986,-3.0986,-3.8407,-3.8385,-3.8307,-3.8307,-3.8241,-3.8209,0.0,0.0,0.0,-3.6577,-3.6422,-3.6174,-3.5345,-3.5419,-3.56,-3.56,-3.5549,-3.5514,-3.5492,-3.5314,-3.5178,-3.5193,-3.503,-3.4973,-3.5129,-3.5138,-3.5048,-3.4916,-3.5032,-3.5048,-3.4899,-3.4899,-3.4899,-3.4899,-3.4899,-3.4899,-3.4899,-3.5628,-3.5628,-3.4916,-3.5644,-3.5611,-3.4899,-3.4899,-3.4899,-3.4899,-3.4899,-3.4899,-3.4899,-3.4899,-3.4899,-3.4899,-3.4899,-3.4899,-3.4965,-3.5578,-3.5876,-3.6059,-3.6522,-3.6299,-3.5811,-3.5679,-3.5593,-3.5716,-3.6421,-3.6754,-3.6869,-3.6586,-3.6013,-3.5774,-3.6926,-3.6761,-3.6327,-3.6462,-3.6387,-3.6193,-3.5789,-3.5594,-3.5504,-3.5504,-3.5504,-3.5504,-3.5504,-3.5504,-3.5504,-3.5504,-3.5359,-3.4787,-3.3367,-3.3073,-3.2484,-3.1123,-3.0986,-3.0986,-3.0986,-3.0986,-3.0986,-3.0986,-3.0986,-3.0986,-3.0986,-3.0986,-3.0986,-3.0986,-3.0986,-3.0986,-3.0986,-3.0986,-3.0986,-3.0986,-3.0986,-3.0986,-3.8216,-3.837,-3.8307,-3.8307,-3.8241,-3.8209,-3.8209,0.0,-3.788,-3.7007,0.0,-3.6563,-3.5708,0.0,0.0,-3.56,-3.56,-3.5571,-3.5514,-3.5469,-3.5658,-3.6162,-3.5424,-3.5195,-3.5987,-3.5933,-3.5595,-3.4949,-3.5512,-3.5595,-3.4932,-3.4899,-3.4899,-3.4899,-3.4899,-3.4899,-3.4899,-3.5628,-3.5628,-3.4916,-3.5644,-3.5611,-3.4899,-3.4899,-3.4899,-3.4899,-3.4899,-3.4899,-3.4899,-3.4899,-3.4899,-3.4899,-3.4899,-3.4899,-3.4916,-3.4982,-3.5446,-3.5926,-3.5346,-3.5161,-3.5101,-3.4525,-3.4043,-3.3829,-3.4434,-3.4729,-3.5063,-3.6181,-3.6013,-3.5669,-3.6402,-3.6103,-3.5759,-3.6357,-3.6043,-3.5759,-3.6267,-3.5923,-3.5504,-3.5504,-3.5504,-3.5504,-3.5504,-3.5504,-3.5504,-3.5504,-3.4905,-3.4158,-3.3332,-3.2613,-3.1919,-3.1099,-3.0986,-3.0986,-3.0986,-3.0986,-3.0986,-3.0986,-3.0986,-3.0986,-3.0986,-3.0986,-3.0986,-3.0986,-3.0986,-3.0986,-3.0986,-3.0986,-3.0986,-3.0986,-3.0986,-3.0911,-3.8247,-3.7962,-3.766,-3.8132,-3.7863,-3.7629,-3.81,-3.8209,-3.7893,-3.6772,0.0,0.0,0.0,0.0,0.0,0.0,-3.56,-3.5577,-3.5571,-3.552,-3.5564,-3.5733,-3.5382,-3.5245,-3.5528,-3.5817,-3.5694,-3.4965,-3.5578,-3.5678,-3.4932,-3.5313,-3.5346,-3.4916,-3.5313,-3.533,-3.4899,-3.6059,-3.6059,-3.4916,-3.6075,-3.6025,-3.4899,-3.4828,-3.5035,-3.539,-3.4889,-3.4914,-3.5276,-3.4848,-3.4667,-3.4683,-3.4739,-3.4828,-3.4899,-3.4899,-3.5098,-3.5265,-3.466,-3.4454,-3.4436,-3.3852,-3.3559,-3.3374,-3.3271,-3.3849,-3.4623,-3.5192,-3.5415,-3.5654,-3.6312,-3.5998,-3.5579,-3.5848,-3.5699,-3.5684,-3.6342,-3.5968,-3.5624,-3.5998,-3.6073,-3.5953,-3.5564,-3.5504,-3.5359,-3.4872,-3.4528,-3.3891,-3.272,-3.229,-3.1809,-3.1086,-3.0986,-3.0949,-3.0849,-3.0911,-3.0949,-3.0849,-3.0949,-3.0986,-3.0986,-3.0986,-3.0949,-3.0849,-3.0949,-3.0949,-3.0849,-3.0849,-3.0849,-3.0849,-3.0849,-3.0723,-3.7876,-3.7479,-3.7194,-3.8009,-3.7756,-3.7484,-3.8064,-3.8209,-3.7891,-3.6845,-3.6857,0.0,0.0,0.0,-3.592,-3.5805,0.0,-3.5756,-3.5622,-3.5549,-3.5582,-3.5692,-3.5685,-3.5509,-3.5145,-3.5858,-3.5958,-3.4965,-3.5777,-3.5976,-3.5247,-3.5512,-3.5545,-3.5214,-3.5528,-3.5446,-3.4899,-3.6357,-3.6332,-3.4868,-3.6382,-3.629,-3.4804,-3.4929,-3.5259,-3.5712,-3.5087,-3.5103,-3.5529,-3.4792,-3.4497,-3.4497,-3.4594,-3.4691,-3.4804,-3.4875,-3.4804,-3.4651,-3.4437,-3.413,-3.3789,-3.3113,-3.2881,-3.2825,-3.2571,-3.3305,-3.4279,-3.4459,-3.4966,-3.5609,-3.6088,-3.5863,-3.5504,-3.5504,-3.5639,-3.5908,-3.6387,-3.6118,-3.5968,-3.6611,-3.6596,-3.6387,-3.6088,-3.5699,-3.5178,-3.4409,-3.3959,-3.329,-3.2146,-3.1833,-3.1492,-3.0898,-3.0836,-3.0761,-3.0609,-3.0761,-3.0761,-3.0622,-3.0761,-3.0836,-3.0836,-3.0836,-3.0761,-3.0609,-3.0761,-3.0761,-3.0609,-3.0609,-3.0584,-3.0546,-3.0584,-3.0495,-3.6832,-3.7013,-3.7194,-3.8009,-3.8191,-3.8172,-3.8191,-3.8209,-3.8071,-3.756,-3.7469,-3.734,-3.6923,-3.6843,-3.6721,0.0,-3.628,0.0,0.0,-3.56,-3.587,-3.6654,-3.6645,-3.6179,-3.5178,-3.6396,-3.6596,-3.5022,-3.6241,-3.6738,-3.6009,-3.5313,-3.5247,-3.5943,-3.5297,-3.4916,-3.4899,-3.6357,-3.6282,-3.4724,-3.6315,-3.6199,-3.4554,-3.5383,-3.5703,-3.5619,-3.5562,-3.5578,-3.5529,-3.4792,-3.4497,-3.4497,-3.4497,-3.4497,-3.4546,-3.4787,-3.457,-3.4223,-3.4778,-3.429,-3.3203,-3.198,-3.1569,-3.1689,-3.2317,-3.2991,-3.3664,-3.4324,-3.4966,-3.5504,-3.5534,-3.5519,-3.5504,-3.5504,-3.5998,-3.6462,-3.6492,-3.6477,-3.6641,-3.7255,-3.6896,-3.6671,-3.724,-3.6232,-3.5092,-3.4399,-3.3094,-3.2074,-3.1833,-3.1185,-3.0647,-3.0444,-3.0406,-3.0406,-3.0406,-3.0406,-3.0406,-3.0406,-3.0406,-3.0406,-3.0406,-3.0406,-3.0406,-3.0406,-3.0406,-3.0406,-3.0406,-3.0406,-3.0292,-3.0113,-3.033,-3.0292,-3.6941,-3.6019,-3.54,-3.7018,-3.6812,-3.655,-3.7905,-3.8209,-3.8054,-3.7596,-3.7505,-3.7377,-3.6978,-3.69,-3.6779,0.0,0.0,-3.6131,0.0,-3.56,-3.5701,-3.5977,-3.5937,-3.5715,-3.5261,-3.6052,-3.6122,-3.4989,-3.581,-3.6059,-3.5313,-3.5495,-3.5512,-3.528,-3.5495,-3.5396,-3.4899,-3.5876,-3.5803,-3.4707,-3.5745,-3.5622,-3.4513,-3.4693,-3.5061,-3.5435,-3.4845,-3.5177,-3.5964,-3.4729,-3.4527,-3.4917,-3.4504,-3.4374,-3.4349,-3.4275,-3.4376,-3.4497,-3.4096,-3.3147,-3.2069,-3.1628,-3.1511,-3.1586,-3.2124,-3.2779,-3.3434,-3.412,-3.479,-3.5326,-3.5472,-3.5504,-3.5576,-3.5911,-3.6246,-3.6683,-3.7411,-3.7302,-3.7285,-3.7943,-3.7794,-3.7481,-3.7258,-3.5876,-3.4665,-3.4115,-3.2717,-3.1516,-3.0934,-3.0659,-3.0482,-3.0406,-3.0406,-3.0368,-3.0228,-3.019,-3.0254,-3.0406,-3.0406,-3.0406,-3.0406,-3.0406,-3.033,-3.019,-3.033,-3.033,-3.019,-3.019,-3.019,-3.0113,-3.0049,-2.9972,-3.6794,-3.5802,-3.5166,-3.6611,-3.6185,-3.5865,-3.7557,-3.7751,-3.7556,-3.7506,-3.7505,-3.7377,-3.6978,-3.69,-3.6779,0.0,0.0,-3.6131,0.0,-3.56,-3.56,-3.56,-3.5571,-3.5475,-3.5314,-3.589,-3.5904,-3.4973,-3.5578,-3.5794,-3.5313,-3.5744,-3.5777,-3.5313,-3.5744,-3.5644,-3.4899,-3.5628,-3.553,-3.4635,-3.5408,-3.5276,-3.4366,-3.4602,-3.491,-3.5307,-3.4734,-3.5024,-3.5801,-3.4603,-3.4376,-3.4774,-3.4379,-3.4109,-3.3924,-3.4079,-3.4319,-3.438,-3.3303,-3.2404,-3.1737,-3.144,-3.1485,-3.1723,-3.2034,-3.2581,-3.3278,-3.393,-3.4451,-3.4916,-3.5219,-3.5538,-3.5821,-3.6056,-3.655,-3.7124,-3.7614,-3.7654,-3.7709,-3.8212,-3.8124,-3.7836,-3.7344,-3.5867,-3.456,-3.389,-3.2246,-3.0897,-3.0368,-3.0292,-3.0254,-3.019,-3.0368,-3.0405,-3.0302,-3.0086,-3.0049,-3.019,-3.019,-3.019,-3.019,-3.019,-3.0304,-3.058,-3.0304,-3.0304,-3.0541,-3.02,-2.9972,-2.9972,-2.9869,-2.9792]},{"header":{"parameterUnit":"m.s-1","parameterCategory":1,"la1":30.6,"la2":29.2853,"lo1":-89.7004,"lo2":-87.6739,"dy":0.0162,"dx":0.0183,"nx":112,"ny":82,"refTime":"2023-05-04T12:00:00:Z","depth":0,"parameterNumber":3,"parameterNumberName":"V-component_of_WINDS"},"data":[0.0,0.0,0.0,0.0,0.0,0.0,0.0,0.0,0.0,0.0,0.0,0.0,0.0,0.0,0.0,0.0,0.0,0.0,0.0,0.0,0.0,0.0,0.0,0.0,0.0,0.0,0.0,0.0,0.0,0.0,0.0,0.0,0.0,0.0,0.0,0.0,0.0,0.0,0.0,0.0,0.0,0.0,0.0,0.0,0.0,0.0,0.0,0.0,0.0,0.0,0.0,0.0,0.0,0.0,0.0,0.0,0.0,0.0,0.0,0.0,0.0,0.0,0.0,0.0,0.0,0.0,0.0,0.0,0.0,0.0,0.0,0.0,0.0,0.0,0.0,0.0,0.0,0.0,0.0,0.0,0.0,0.0,0.0,0.0,0.0,0.0,0.0,0.0,0.0,0.0,1.2264,1.2994,1.422,1.4161,1.2153,1.3322,1.2542,0.8751,0.0,0.0,0.0,0.0,0.0,0.0,0.0,0.0,0.0,0.0,0.0,0.0,0.0,0.0,0.0,0.0,0.0,0.0,0.0,0.0,0.0,0.0,0.0,0.0,0.0,0.0,0.0,0.0,0.0,0.0,0.0,0.0,0.0,0.0,0.0,0.0,0.0,0.0,0.0,0.0,0.0,0.0,0.0,0.0,0.0,0.0,0.0,0.0,0.0,0.0,0.0,0.0,0.0,0.0,0.0,0.0,0.0,0.0,0.0,0.0,0.0,0.0,0.0,0.0,0.0,0.0,0.0,0.0,0.0,0.0,0.0,0.0,0.0,0.0,0.0,0.0,0.0,0.0,0.0,0.0,0.0,0.0,0.0,0.0,0.0,0.0,0.0,0.0,0.0,0.0,0.0,0.0,0.0,0.0,0.0,0.0,0.0,0.0,0.0,0.0,0.0,0.0,0.0,0.0,1.2892,1.4564,1.4552,1.4441,1.455,1.3981,1.2806,1.0826,0.0,0.0,0.0,0.0,0.0,0.0,0.0,0.0,0.0,0.0,0.0,0.0,0.0,0.0,0.0,0.0,0.0,0.0,0.0,0.0,0.0,0.0,0.0,0.0,0.0,0.0,0.0,0.0,0.0,0.0,0.0,0.0,0.0,0.0,0.0,0.0,0.0,0.0,0.0,0.0,0.0,0.0,0.0,0.0,0.0,0.0,0.0,0.0,0.0,0.0,0.0,0.0,0.0,0.0,0.0,0.0,0.0,0.0,0.0,0.0,0.0,0.0,0.0,0.0,0.0,0.0,0.0,0.0,0.0,0.0,0.0,0.0,0.0,0.0,0.0,0.0,0.0,0.0,0.0,0.0,0.0,0.0,0.0,0.0,0.0,0.0,0.0,0.0,0.0,0.0,0.0,0.0,0.0,0.0,0.0,0.0,0.0,0.0,0.0,0.0,0.0,0.0,0.0,1.2318,1.3133,1.4727,1.4533,1.4206,1.403,1.3218,1.2097,1.0603,0.9245,0.0,0.0,0.0,0.0,0.0,0.0,0.0,0.0,0.0,0.0,0.0,0.0,0.0,0.0,0.0,0.0,0.0,0.0,0.0,0.0,0.0,0.0,0.0,0.0,0.0,0.0,0.0,0.0,0.0,0.0,0.0,0.0,0.0,0.0,0.0,0.0,0.0,0.0,0.0,0.0,0.0,0.0,0.0,0.0,0.0,0.0,0.0,0.0,0.0,0.0,0.0,0.0,0.0,0.0,0.0,0.0,0.0,0.0,0.0,0.0,0.0,0.0,0.0,0.0,0.0,0.0,0.0,0.0,0.0,0.0,0.0,0.0,0.0,0.0,0.0,0.0,0.0,0.0,0.0,0.0,0.0,0.0,0.0,0.0,0.0,0.0,0.0,0.0,0.0,0.0,0.0,0.0,0.0,0.0,0.0,0.0,0.0,0.0,0.0,0.0,0.0,0.0,1.2988,1.3387,1.4672,1.4503,1.4032,1.3429,1.267,1.1721,1.0522,0.9087,0.0,0.0,0.0,0.0,0.0,0.0,0.0,0.0,0.0,0.0,0.0,0.0,0.0,0.0,0.0,0.0,0.0,0.0,0.0,0.0,0.0,0.0,0.0,0.0,0.0,0.0,0.0,0.0,0.0,0.0,0.0,0.0,0.0,0.0,0.0,0.0,0.0,0.0,0.0,0.0,0.0,0.0,0.0,0.0,0.0,0.0,0.0,0.0,0.0,0.0,0.0,0.0,0.0,0.0,0.0,0.0,0.0,0.0,0.0,0.0,0.0,0.0,0.0,0.0,0.0,0.0,0.0,0.0,0.0,0.0,0.0,0.0,0.0,0.0,0.0,0.0,0.0,0.0,0.0,0.0,0.0,0.0,0.0,0.0,0.0,0.0,0.0,0.0,0.0,0.0,0.0,0.0,0.0,0.0,0.0,0.0,0.0,0.0,0.0,0.0,0.0,0.0,1.332,1.3876,1.4968,1.4612,1.4304,1.4226,1.3273,1.2511,1.2147,1.0622,0.0,0.0,0.0,0.0,0.0,0.0,0.0,0.0,0.0,0.0,0.0,0.0,0.0,0.0,0.0,0.0,0.0,0.0,0.0,0.0,0.0,0.0,0.0,0.0,0.0,0.0,0.0,0.0,0.0,0.0,0.0,0.0,0.0,0.0,0.0,0.0,0.0,0.0,0.0,0.0,0.0,0.0,0.0,0.0,0.0,0.0,0.0,0.0,0.0,0.0,0.0,0.0,0.0,0.0,0.0,0.0,0.0,0.0,0.0,0.0,0.0,0.0,0.0,0.0,0.0,0.0,0.0,0.0,0.0,0.0,0.0,0.0,0.0,0.0,0.0,0.0,0.0,0.0,0.0,0.0,0.0,0.0,0.0,0.0,0.0,0.0,0.0,0.0,0.0,0.0,0.0,0.0,0.0,0.0,0.0,0.0,0.0,0.0,0.0,0.0,0.0,0.0,1.3536,1.3969,1.4759,1.4667,1.4423,1.4069,1.2829,1.2158,1.2295,0.0,0.0,0.0,0.0,0.0,0.0,0.0,0.0,0.0,0.0,0.0,0.0,0.0,0.0,0.0,0.0,0.0,0.0,0.0,0.0,0.0,0.0,0.0,0.0,0.0,0.0,0.0,0.0,0.0,0.0,0.0,0.0,0.0,0.0,0.0,0.0,0.0,0.0,0.0,0.0,0.0,0.0,0.0,0.0,0.0,0.0,0.0,0.0,0.0,0.0,0.0,0.0,0.0,0.0,0.0,0.0,0.0,0.0,0.0,0.0,0.0,0.0,0.0,0.0,0.0,0.0,0.0,0.0,0.0,0.0,0.0,0.0,0.0,0.0,0.0,0.0,0.0,0.0,0.0,0.0,0.0,0.0,0.0,0.0,0.0,0.0,0.0,0.0,0.0,0.0,0.0,0.0,0.0,0.0,0.0,0.0,0.0,0.0,0.0,0.0,0.0,0.0,1.3264,1.3716,1.4141,1.4756,1.4709,1.4462,1.3912,1.2721,1.2024,1.213,0.0,0.0,0.0,0.0,0.0,0.0,0.0,0.0,0.0,0.0,0.0,0.0,0.0,0.0,0.0,0.0,0.0,0.0,0.0,0.0,0.0,0.0,0.0,0.0,0.0,0.0,0.0,0.0,0.0,0.0,0.0,0.0,0.0,0.0,0.0,0.0,0.0,0.0,0.0,0.0,0.0,0.0,0.0,0.0,0.0,0.0,0.0,0.0,0.0,0.0,0.0,0.0,0.0,0.0,0.0,0.0,0.0,0.0,0.0,0.0,0.0,0.0,0.0,0.0,0.0,0.0,0.0,0.0,0.0,0.0,0.0,0.0,0.0,0.0,0.0,0.0,0.0,0.0,0.0,0.0,0.0,0.0,0.0,0.0,0.0,0.0,0.0,0.0,0.0,0.0,0.0,0.0,0.0,0.0,0.0,0.0,0.0,0.0,0.0,0.0,0.0,0.0,1.329,1.3875,1.4441,1.5019,1.4782,1.4382,1.3862,1.3054,1.2378,0.0,0.0,0.0,0.0,0.0,0.0,0.0,0.0,0.0,0.0,0.0,0.0,0.0,0.0,0.0,0.0,0.0,0.0,0.0,0.0,0.0,0.0,0.0,0.0,0.0,0.0,0.0,0.0,0.0,0.0,0.0,0.0,0.0,0.0,0.0,0.0,0.0,0.0,0.0,0.0,0.0,0.0,0.0,0.0,0.0,0.0,0.0,0.0,0.0,0.0,0.0,0.0,0.0,0.0,0.0,0.0,0.0,0.0,0.0,0.0,0.0,0.0,0.0,0.0,0.0,0.0,0.0,0.0,0.0,0.0,0.0,0.0,0.0,0.0,0.0,0.0,0.0,0.0,0.0,0.0,0.0,0.0,0.0,0.0,0.0,0.0,0.0,0.0,0.0,0.0,0.0,0.0,0.0,0.0,0.0,0.0,0.0,0.0,0.0,0.0,0.0,0.0,0.0,1.3758,1.4414,1.4904,1.5345,1.5097,1.4682,1.4129,1.3334,1.2743,1.2384,0.0,0.0,0.0,0.0,0.0,0.0,0.0,0.0,0.0,0.0,0.0,0.0,0.0,0.0,0.0,0.0,0.0,0.0,0.0,0.0,0.0,0.0,0.0,0.0,0.0,0.0,0.0,0.0,0.0,0.0,0.0,0.0,0.0,0.0,0.0,0.0,0.0,0.0,0.0,0.0,0.0,0.0,0.0,0.0,0.0,0.0,0.0,0.0,0.0,0.0,0.0,0.0,0.0,0.0,0.0,0.0,0.0,0.0,0.0,0.0,0.0,0.0,0.0,0.0,0.0,0.0,0.0,0.0,0.0,0.0,0.0,0.0,0.0,0.0,0.0,0.0,0.0,0.0,0.0,0.0,0.0,0.0,0.0,0.0,0.0,0.0,0.0,0.0,0.0,0.0,0.0,0.0,0.0,0.0,0.0,0.0,0.0,0.0,0.0,0.0,0.0,0.0,1.3988,1.464,1.5138,1.5576,1.5226,1.4825,1.4352,1.3549,1.2946,1.2582,0.0,0.0,0.0,0.0,0.0,0.0,0.0,0.0,0.0,0.0,0.0,0.0,0.0,0.0,0.0,0.0,0.0,0.0,0.0,0.0,0.0,0.0,0.0,0.0,0.0,0.0,0.0,0.0,0.0,0.0,0.0,0.0,0.0,0.0,0.0,0.0,0.0,0.0,0.0,0.0,0.0,0.0,0.0,0.0,0.0,0.0,0.0,0.0,0.0,0.0,0.0,0.0,0.0,0.0,0.0,0.0,0.0,0.0,0.0,0.0,0.0,0.0,0.0,0.0,0.0,0.0,0.0,0.0,0.0,0.0,0.0,0.0,0.0,0.0,0.0,0.0,0.0,0.0,0.0,0.0,0.0,0.0,0.0,0.0,0.0,0.0,0.0,0.0,0.0,0.0,0.0,0.0,0.0,0.0,0.0,0.0,0.0,0.0,0.0,0.0,0.0,0.0,1.4041,1.466,1.5223,1.5732,1.5297,1.4843,1.4543,1.3714,1.3021,1.2601,0.0,0.0,0.0,0.0,0.0,0.0,0.0,0.0,0.0,0.0,0.0,0.0,0.0,0.0,0.0,0.0,0.0,0.0,0.0,0.0,0.0,0.0,0.0,0.0,0.0,0.0,0.0,0.0,0.0,0.0,0.0,0.0,0.0,0.0,0.0,0.0,0.0,0.0,0.0,0.0,0.0,0.0,0.0,0.0,0.0,0.0,0.0,0.0,0.0,0.0,0.0,0.0,0.0,0.0,0.0,0.0,0.0,0.0,0.0,0.0,0.7933,0.7647,0.0,0.0,0.0,0.0,0.0,0.0,0.0,0.0,0.0,0.0,0.0,0.0,0.0,0.0,0.0,0.0,0.0,0.0,0.0,0.0,0.0,0.0,0.0,0.0,0.0,0.0,0.0,0.0,0.0,0.0,0.0,0.0,0.0,0.0,0.0,0.0,0.0,0.0,0.0,0.0,1.4289,1.4743,1.5142,1.5451,1.517,1.4843,1.4543,1.3714,1.3147,1.3048,1.253,0.0,0.0,0.0,0.0,0.0,0.0,0.0,0.0,0.0,0.0,0.0,0.0,0.0,0.0,0.0,0.0,0.0,0.0,0.0,0.0,0.0,0.0,0.0,0.0,0.0,0.0,0.0,0.0,0.0,0.0,0.0,0.0,0.0,0.0,0.0,0.0,0.0,0.0,0.0,0.0,0.0,0.0,0.0,0.0,0.0,0.0,0.0,0.0,0.0,0.0,0.0,0.0,0.0,0.0,0.0,0.0,0.0,0.0,0.0,0.9237,0.8888,0.0,0.0,0.0,0.0,0.0,0.0,0.0,0.0,0.0,0.0,0.0,0.0,0.0,0.0,0.0,0.0,0.0,0.0,0.0,0.0,0.0,0.0,0.0,0.0,0.0,0.0,0.0,0.0,0.0,0.0,0.0,0.0,0.0,0.0,0.0,0.0,0.0,0.0,0.0,0.0,1.4238,1.5465,1.6261,1.6123,1.6237,1.6243,1.606,1.5039,1.4255,1.3863,1.3229,0.0,0.0,0.0,0.0,0.0,0.0,0.0,0.0,0.0,0.0,0.0,0.0,0.0,0.0,0.0,0.0,0.0,0.0,0.0,0.0,0.0,0.0,0.0,0.0,0.0,0.0,0.0,0.0,0.0,0.0,0.0,0.0,0.0,0.0,0.0,0.0,0.0,0.0,0.0,0.0,0.0,0.0,0.0,0.0,0.0,0.0,0.0,0.0,0.0,0.0,0.0,0.0,0.0,1.0263,1.079,1.0805,1.1799,1.2347,1.245,1.1055,1.0716,1.1154,1.1154,0.0,0.0,0.0,0.0,0.0,0.0,0.0,0.0,0.0,0.0,0.0,0.0,0.0,0.0,0.0,0.0,0.0,0.0,0.0,0.0,0.0,0.0,1.3594,1.3139,1.336,1.3567,1.3058,0.0,0.0,0.0,0.0,0.0,0.0,0.0,0.0,0.0,0.0,0.0,1.4462,1.6335,1.7545,1.7116,1.7433,1.769,1.7539,1.6469,1.5481,1.4727,1.4119,1.3654,0.0,0.0,0.0,0.0,0.0,0.0,0.0,0.0,0.0,0.0,0.0,0.0,0.0,0.0,0.0,0.0,0.0,0.0,0.0,0.0,0.0,0.0,0.0,0.0,0.0,0.0,0.0,0.0,0.0,0.0,0.0,0.0,0.856,0.8532,0.0,0.0,0.0,0.0,0.0,0.0,0.0,0.0,0.0,0.0,0.0,0.0,0.0,1.0251,1.0441,1.1523,1.201,1.1885,1.212,1.2259,1.2326,1.245,1.2967,1.3742,1.3542,0.0,1.1673,1.1673,0.0,0.0,0.0,0.0,0.0,0.0,0.0,0.0,0.0,0.0,0.0,0.0,0.0,0.0,0.0,0.0,0.0,0.0,0.0,0.0,0.0,0.0,1.4008,1.397,1.3968,1.3935,1.356,1.3146,1.2824,1.2737,1.2452,1.2313,0.0,0.0,0.0,0.0,0.0,0.0,1.579,1.6956,1.7767,1.7689,1.7733,1.7531,1.6885,1.6409,1.5945,1.5494,1.5134,1.4969,1.4912,1.4912,0.0,0.0,0.0,0.0,0.0,0.0,0.0,0.0,0.0,0.0,0.0,0.0,0.0,0.0,0.0,0.0,0.0,0.0,0.0,0.0,0.0,0.0,0.0,0.0,0.0,0.0,0.0,0.0,0.0,0.8784,0.8751,0.8446,0.8361,0.8207,0.0,0.0,0.0,0.0,0.0,0.0,0.0,0.0,0.0,1.1034,1.1713,1.2172,1.2556,1.2987,1.3244,1.3278,1.3726,1.3938,1.3965,1.4577,1.5094,1.547,1.547,1.4983,1.4192,1.3578,1.3249,1.3071,0.0,0.0,0.0,0.0,1.2889,1.3098,1.3298,1.361,1.3886,1.3596,0.0,0.0,0.0,0.0,0.0,0.0,0.0,1.3838,1.3838,1.4145,1.4454,1.4454,1.4817,1.515,1.4964,1.5033,1.4717,1.3441,1.319,1.338,1.4048,1.441,0.0,0.0,0.0,1.7324,1.6806,1.8282,1.9182,1.8628,1.905,1.9245,1.8936,1.8091,1.7351,1.6747,1.6134,1.5807,1.5807,1.5807,1.6018,0.0,0.0,0.0,0.0,0.0,0.0,0.0,0.0,0.0,0.0,0.0,0.0,0.0,0.0,0.0,0.0,0.0,0.0,0.0,0.0,0.0,0.0,0.0,0.0,0.0,0.0,0.0,0.0,0.8873,0.8913,0.8418,0.8652,0.8638,0.0,0.0,0.0,0.0,0.0,0.0,1.0158,1.0458,1.1255,1.2783,1.3326,1.3916,1.4611,1.4741,1.482,1.4905,1.5328,1.5545,1.5527,1.6346,1.6683,1.6683,1.6683,1.6502,1.615,1.5263,1.4872,1.4784,1.4611,1.4345,1.4162,1.4311,1.4228,1.4079,1.4233,1.4244,1.4162,1.39,1.3726,1.356,1.342,0.0,0.0,0.0,0.0,1.4193,1.4193,1.4441,1.4776,1.4977,1.5511,1.6075,1.6281,1.6678,1.649,1.4707,1.4485,1.483,1.549,1.5798,0.0,1.6879,1.7978,1.8479,1.7777,1.9405,2.0316,1.9633,2.0186,2.0568,2.0413,1.944,1.8618,1.8063,1.7314,1.6878,1.6878,1.6878,1.7121,1.7608,0.0,0.0,0.0,0.0,0.0,0.0,0.0,0.0,0.0,0.0,0.0,0.0,0.0,0.0,0.0,0.0,0.0,0.0,0.0,0.0,0.0,0.0,0.0,0.0,0.0,0.0,0.0,0.0,0.0,0.8641,0.9084,0.0,0.0,0.0,0.0,0.918,0.9753,0.9923,0.9467,1.0291,1.1272,1.2322,1.3841,1.5239,1.6563,1.7356,1.7656,1.7328,1.7121,1.6971,1.6885,1.6979,1.6979,1.6979,1.6979,1.6824,1.6532,1.6164,1.5857,1.5644,1.563,1.5609,1.5567,1.5236,1.5175,1.5192,1.4945,1.4683,1.4496,1.4482,1.4059,1.3641,1.3899,1.3974,0.0,0.0,1.4441,1.4671,1.4671,1.4678,1.4894,1.5752,1.5951,1.6247,1.705,1.7245,1.7153,1.6814,1.6439,1.6307,1.6749,0.0,1.7694,1.7238,1.8882,1.9849,1.8847,1.9821,2.0596,2.0518,2.0557,2.043,1.9972,1.9514,1.9251,1.9214,1.875,1.8488,1.8488,1.8488,1.8313,1.7983,1.7974,0.0,0.0,0.0,0.0,0.0,0.0,0.0,0.0,0.0,0.0,0.0,0.0,0.0,0.0,0.0,0.0,0.0,0.0,0.0,0.0,0.0,0.0,0.0,0.0,0.0,0.0,0.0,0.0,0.9832,1.0136,0.0,0.9638,0.9738,0.9826,0.9856,1.0158,1.0766,1.1657,1.2735,1.3947,1.5338,1.6723,1.773,1.8356,1.8481,1.8369,1.8002,1.7678,1.7409,1.72,1.72,1.72,1.72,1.72,1.7145,1.7037,1.6929,1.6561,1.599,1.5786,1.5709,1.5702,1.559,1.5522,1.5555,1.5457,1.5334,1.5249,1.5012,1.4668,1.4331,1.4407,1.4587,1.4747,1.4587,1.493,1.5383,1.5702,1.5891,1.6206,1.7058,1.7706,1.8198,1.8519,1.9036,1.9386,1.9316,1.8147,1.7466,1.8303,1.8641,1.8955,1.9318,2.0023,2.0353,2.0004,2.0314,2.0605,2.0605,2.0605,2.0537,2.0342,1.9941,1.958,1.9307,1.8841,1.8481,1.8208,1.8198,1.8164,1.8018,1.8008,1.8202,0.0,0.0,0.0,0.0,0.0,0.0,0.0,0.0,0.0,0.0,0.0,0.0,0.0,0.0,0.0,0.0,0.0,0.0,0.0,0.0,0.0,0.0,0.0,0.0,0.0,1.0201,1.061,1.0396,1.0926,1.1044,1.039,1.0599,1.0744,1.0708,1.0997,1.169,1.3057,1.4022,1.5305,1.7022,1.8003,1.8757,1.9272,1.906,1.8789,1.8467,1.8247,1.7918,1.7494,1.7494,1.7388,1.7279,1.7279,1.7279,1.7279,1.7279,1.7015,1.6536,1.633,1.6245,1.6237,1.6131,1.6114,1.6102,1.5951,1.58,1.566,1.5301,1.4993,1.4741,1.4824,1.5218,1.551,1.5049,1.5639,1.6431,1.649,1.6829,1.735,1.8238,1.8895,1.9381,1.9696,2.0206,2.0605,2.0605,1.955,1.8908,1.9618,1.9736,1.9932,2.0527,2.0605,2.0605,2.0605,2.0605,2.0605,2.0605,2.0605,2.0605,2.0605,2.0166,1.9795,1.9512,1.9092,1.8662,1.8208,1.8359,1.8508,1.8624,1.8853,1.9233,1.9694,0.0,0.0,0.0,0.0,0.0,0.0,0.0,0.0,0.0,0.0,0.0,0.0,0.0,0.0,0.0,0.0,0.0,0.0,0.0,0.0,0.0,0.0,0.0,0.9668,1.0603,1.1045,1.0338,1.148,1.2001,1.1327,1.1933,1.2198,1.175,1.218,1.2663,1.331,1.3964,1.5143,1.7094,1.7483,1.8174,1.9272,1.9279,1.9111,1.8789,1.8774,1.8438,1.7816,1.7801,1.7625,1.7279,1.7279,1.7279,1.7279,1.7279,1.7279,1.7279,1.7279,1.7279,1.7296,1.7027,1.6938,1.6936,1.6391,1.6035,1.5674,1.5372,1.5021,1.4811,1.5111,1.5778,1.6317,1.5702,1.6746,1.7821,1.7,1.7448,1.8296,1.9152,1.9359,1.9597,2.043,2.0615,2.0605,2.0605,2.0605,2.0605,2.0605,2.0605,2.0605,2.0605,2.0605,0.0,2.0605,2.0605,2.0605,2.0625,2.0615,2.0615,2.0625,2.0176,1.9902,1.9893,1.9502,1.9072,1.8598,1.9069,1.9483,1.983,2.0559,2.0996,2.1135,0.0,0.0,0.0,0.0,0.0,0.0,0.0,0.0,0.0,0.0,0.0,0.0,0.0,0.0,0.0,0.0,0.0,0.0,0.0,0.0,0.0,1.056,1.0997,1.0806,1.1171,1.1457,1.1578,1.2068,1.2273,1.2103,1.2288,1.2429,1.2477,1.2649,1.3235,1.4375,1.5438,1.6557,1.7715,1.8698,1.9249,1.9279,1.9279,1.9111,1.8789,1.8547,1.8218,1.7808,1.7574,1.7366,1.7279,1.7279,1.7279,1.7279,1.7279,1.7279,1.7279,1.7279,1.7279,1.7271,1.723,1.7206,1.7185,1.7044,1.6805,1.653,1.6481,1.619,1.6053,1.6817,1.7376,1.783,1.8124,1.8515,1.8826,1.8971,1.9186,1.9602,2.0476,2.0686,2.0726,2.0975,2.0791,2.0605,2.0605,2.0605,2.0605,2.0605,2.0605,2.0605,2.0605,2.0605,2.0605,2.0605,2.0605,2.0723,2.1016,2.0762,2.0742,2.1025,2.0352,1.9785,1.9482,1.9053,1.8588,1.8159,1.9261,2.022,2.0963,2.1232,2.1441,0.0,0.0,0.0,0.0,0.0,0.0,0.0,0.0,0.0,0.0,0.0,0.0,0.0,0.0,0.0,0.0,0.0,0.0,0.0,0.0,0.0,0.0,1.1141,1.1439,1.1666,1.2028,1.2328,1.2394,1.2734,1.2895,1.272,1.2786,1.3072,1.3663,1.3668,1.45,1.6298,1.7086,1.7903,1.8897,1.9621,1.9806,1.9536,1.9529,1.9316,1.8986,1.8664,1.8335,1.8013,1.7684,1.741,1.7279,1.7279,1.7279,1.7279,1.7279,1.7279,1.7279,0.0,0.0,0.0,0.0,1.7279,1.7279,1.7279,1.739,1.7477,1.7477,1.7553,1.7696,1.8251,1.8832,1.9263,1.9307,1.9766,2.0234,1.9948,2.0183,2.051,2.0877,2.0957,2.0957,2.0957,2.0752,2.0605,2.0605,2.0605,0.0,2.0605,2.0605,2.0605,2.0605,2.0605,2.0605,2.0605,2.0605,2.0703,2.0928,2.0723,2.0713,2.0937,2.0566,0.0,0.0,0.0,1.9467,1.954,2.0978,0.0,0.0,0.0,2.2963,2.2735,2.3565,0.0,0.0,2.4335,2.4493,0.0,0.0,0.0,0.0,0.0,0.0,0.0,0.0,0.0,0.0,0.0,0.0,0.0,0.0,0.0,0.0,1.1661,1.1619,1.2283,1.2965,1.3197,1.2781,1.3216,1.3429,1.3131,1.3254,1.3804,1.4893,1.4996,1.6061,1.8468,1.8579,0.0,0.0,0.0,2.012,1.9823,1.9815,1.9654,1.9324,1.8942,1.8635,1.8343,1.7984,1.7655,1.733,1.7301,1.7279,1.7279,1.7279,1.7279,1.7279,1.7279,1.7279,1.7279,1.7279,1.7372,1.7466,1.7466,0.0,0.0,1.8498,1.8899,1.9402,1.9496,2.0077,2.058,1.988,2.0778,2.169,2.0497,2.079,2.1239,2.0918,2.0791,2.0752,2.0752,2.0674,2.0605,2.0605,2.0605,2.0605,2.0605,2.0605,2.0605,2.0605,2.0605,2.0605,2.0605,2.0605,2.0625,2.0674,2.0635,0.0,2.0713,2.0799,2.0697,2.027,2.0491,2.1062,2.1963,2.3328,2.4069,2.407,2.4742,2.4846,2.4365,2.4591,2.4876,2.5179,2.5687,2.5674,0.0,0.0,0.0,0.0,0.0,0.0,0.0,0.0,0.0,0.0,0.0,0.0,0.0,0.0,0.0,1.1392,1.1987,1.2455,1.2387,1.2838,1.2975,1.2554,1.2606,1.2852,1.3287,1.3206,1.3823,1.5354,1.5435,1.6541,1.903,1.9152,1.9565,2.0577,2.057,2.0347,1.9823,1.9815,1.9654,1.9324,1.8942,0.0,1.8672,1.8086,1.7779,1.7706,1.7443,1.7279,1.7279,1.7279,1.7279,1.7279,1.7279,1.7279,1.7279,1.7279,1.7831,1.8519,1.8519,1.9107,1.9805,1.9805,1.9943,2.0136,2.0594,2.1078,0.0,2.1821,2.2129,2.2321,2.2065,2.213,2.2246,2.2158,2.1875,2.1631,2.1631,2.1114,2.0605,2.0605,2.0605,2.0605,2.0605,2.0605,2.0605,2.0605,2.0605,2.0605,2.0605,2.0605,2.0703,2.1064,2.0958,2.0957,2.1313,2.0903,2.0614,2.0524,2.0834,2.1857,2.3734,2.369,2.4128,2.5239,2.4987,2.4803,2.4691,2.5181,2.5432,2.5523,2.5928,2.6,0.0,0.0,0.0,0.0,0.0,0.0,0.0,0.0,0.0,0.0,0.0,1.1307,1.1679,0.0,1.1737,1.195,1.2861,1.3521,1.3462,1.3659,1.3592,1.2823,1.2753,1.2918,1.3348,1.3862,1.485,1.6362,1.7097,1.8273,2.0148,2.0263,2.0487,2.0913,2.0969,2.0655,2.0011,1.9996,1.9755,1.9324,1.8942,1.8789,1.8767,1.8116,1.7816,1.7801,1.7472,1.7279,1.7279,1.7279,1.7279,1.7326,1.7831,1.8056,1.8056,1.8056,1.865,1.9513,1.9513,2.015,2.0962,2.0962,2.1275,2.1693,2.1992,2.2252,2.2463,2.2708,2.2779,2.274,2.2568,2.2353,2.2197,2.2197,2.1875,2.1621,2.1836,2.1367,2.0898,2.0898,2.0723,2.0605,2.0605,2.0605,2.0605,2.0605,2.0605,2.0605,2.0605,2.0605,2.0732,2.1007,2.0957,2.1034,2.1321,2.0961,2.1005,2.1754,2.2078,2.2913,2.4333,2.4511,2.4867,2.5586,2.5084,2.4913,2.5209,2.5473,2.5598,2.5624,2.6374,2.6704,0.0,0.0,0.0,0.0,0.0,0.0,0.0,1.3023,1.3391,1.3612,1.2464,1.1709,1.2545,1.2205,1.2011,1.2606,1.3532,1.4231,1.4437,1.4607,1.4415,1.3773,1.3344,1.3222,1.3703,1.4708,1.6014,1.7658,1.8732,1.9853,2.1146,2.1211,2.1211,2.1211,2.1211,2.0925,2.0285,2.0212,1.9945,1.9367,1.9038,1.8847,1.8767,1.8182,1.7874,1.7801,1.7472,1.7279,1.7279,1.7279,1.7326,1.7473,1.8427,1.8926,1.9155,1.9109,1.965,2.0503,2.0503,2.115,2.1961,2.1961,2.2467,2.3081,2.3003,2.3033,2.3062,2.2896,2.2916,2.2896,2.2598,2.2197,2.1904,2.1992,2.1611,2.1288,2.168,2.1416,2.1064,2.1064,2.081,2.0605,2.0605,2.0605,2.0605,2.0644,2.0654,2.0683,2.0722,2.0722,2.077,2.0945,2.0984,2.1177,2.1512,2.1353,2.1808,2.3194,2.3497,2.3884,2.4544,2.5149,2.5448,2.5448,2.5034,2.5039,2.5598,2.5598,2.5649,2.5787,2.6738,2.7118,1.4846,1.4708,1.4224,1.4873,1.4587,1.4135,0.0,1.3702,1.326,1.2472,1.2264,1.2191,1.1949,1.2443,1.28,1.2521,1.3041,1.3724,1.4401,1.4686,1.5138,1.5881,1.4113,1.3451,1.4934,1.5208,1.6345,1.8893,1.921,1.9853,2.1146,2.1211,2.1211,2.1211,2.1211,2.1035,2.0669,2.0329,2.0062,1.9757,1.9374,1.9067,1.8774,1.8408,1.8094,1.7801,1.7472,1.7279,1.7279,1.7279,1.7426,1.7721,1.8481,1.9438,2.0357,2.0104,2.0692,2.1516,2.1516,2.2148,2.296,2.296,2.3003,2.3023,2.2695,2.2799,2.2945,2.2236,2.2295,2.2568,2.2519,2.2197,2.1982,2.2353,2.1785,2.121,2.1259,2.0957,2.0674,2.0674,2.0635,2.0605,2.0605,2.0605,2.0654,2.0829,2.0867,2.0945,2.1128,2.1128,2.1128,2.1167,2.132,2.1807,2.2703,2.2761,2.3226,2.4281,2.4371,2.4483,2.4771,2.4843,2.4876,2.4876,2.4813,2.5039,2.5598,2.5598,2.5862,2.6399,2.6524,2.6587,1.4423,1.4891,1.4968,1.4238,1.4408,1.4633,1.4285,1.3847,1.3461,1.3336,1.2812,1.2297,1.2006,1.2384,1.2687,1.2639,1.4173,1.545,1.5735,1.665,1.7341,1.7563,1.6225,1.5557,1.627,1.7038,1.7957,1.9183,1.9968,2.0622,2.1153,2.1211,2.1211,2.1211,2.1211,2.0962,2.0387,2.0249,1.9981,1.9529,1.9397,1.9103,1.8774,1.8452,1.8021,1.7523,1.7344,1.738,1.7527,1.7527,1.8032,1.8858,1.9741,2.0737,2.1596,2.1239,2.1695,2.2501,2.2501,2.2775,2.3091,2.3091,2.3091,2.3062,2.2886,2.2955,2.3023,2.2672,2.2744,2.2838,2.2838,2.2568,2.2295,2.2471,2.2051,2.1611,2.1611,2.134,2.1105,2.1105,2.1016,2.0964,2.0964,2.0964,2.1002,2.1205,2.1061,2.0984,2.1167,2.1205,2.1244,2.1359,2.1949,2.2398,2.2487,2.265,2.3258,2.445,2.3941,2.3969,2.4755,2.4519,2.4494,2.4775,2.4474,2.4757,2.5598,2.5598,2.5724,2.5963,2.6336,2.6714,1.4621,1.5337,1.565,1.4333,1.4877,1.5455,1.4515,1.3965,1.3704,1.3785,1.3078,1.2358,1.2328,1.2432,1.2602,1.2814,1.4866,1.6431,1.6561,1.803,1.905,1.8865,1.8414,1.8071,1.8071,1.8711,1.9314,1.9781,2.068,2.1211,2.1211,2.1211,2.1211,2.1211,2.1211,2.0984,2.0453,2.027,2.0003,1.9535,1.9272,1.9016,1.8774,1.8452,1.7991,1.7465,1.7465,1.7515,1.7581,1.7581,1.8303,1.9492,2.0421,2.1445,2.235,2.2138,2.2599,2.3266,2.3232,2.3232,2.3188,2.3135,2.3091,2.3091,2.3091,2.3091,2.3071,2.2955,2.2925,2.2969,2.3012,2.2611,2.2197,2.2347,2.2007,2.1614,2.1614,2.152,2.1402,2.1402,2.131,2.1205,2.1205,2.1205,2.1282,2.1474,2.1244,2.1128,2.1359,2.1359,2.1436,2.1589,2.244,2.283,2.246,2.2856,2.3482,2.432,2.3835,2.3828,2.455,2.4356,2.4406,2.4775,2.4431,2.4682,2.5598,2.5598,2.5686,2.585,2.6298,2.685,1.614,1.6586,1.6814,1.6558,1.6755,1.6606,1.4882,1.432,1.3904,1.3044,1.2587,1.2502,1.271,1.2753,1.2824,1.3084,1.4379,1.5573,1.6136,1.7975,1.9396,1.9725,2.0223,2.0608,2.0608,1.9782,1.9788,2.1031,2.1153,2.1211,2.1211,2.1211,2.1211,2.1211,2.1211,2.1203,2.1181,2.0497,2.0176,2.0139,1.925,1.8796,1.8774,1.8452,1.8116,1.7801,1.7801,1.7618,1.7333,1.7333,1.8071,1.9271,1.9977,2.1132,2.2438,2.2906,2.3353,2.3754,2.3547,2.3503,2.346,2.3188,2.3091,2.3091,2.3091,2.3091,2.3013,2.2646,2.2529,2.2572,2.2836,2.2079,2.1417,2.2043,2.157,2.0946,2.0946,2.1091,2.1225,2.1225,2.1215,2.1205,2.1205,2.1205,2.1282,2.1474,2.1512,2.154,2.1769,2.1769,2.1769,2.1807,2.2515,2.3077,2.3267,2.4001,2.4308,2.401,2.4487,2.4525,2.4042,2.4519,2.4775,2.4788,2.4775,2.5059,2.5598,2.5598,2.5921,2.6461,2.6487,2.685,1.6565,1.713,1.7234,1.6228,1.6231,1.5988,1.4009,1.3519,1.3338,1.2893,1.2592,1.2368,1.2361,1.2351,1.2684,1.3657,1.5038,1.6359,1.7527,1.8946,1.993,2.0059,2.0457,2.072,2.072,2.0414,2.0508,2.1139,2.1211,2.1211,2.1211,2.1211,2.1211,2.1211,2.1211,2.1006,2.0511,2.0292,1.9916,1.9264,1.8511,1.8145,1.813,1.7801,1.7549,1.7494,1.7494,1.7529,1.7574,1.7574,1.8665,2.0421,2.0638,2.1898,2.3614,2.3754,2.4024,2.4196,2.3493,2.3363,2.3503,2.3406,2.345,2.357,2.357,2.345,2.3377,2.3358,2.3285,2.3199,2.3458,2.2901,2.2342,2.2399,2.1839,2.1253,2.1121,2.1244,2.1397,2.1397,2.1512,2.1617,2.1617,2.1873,2.2078,2.2146,2.1889,2.1731,2.1807,2.1807,2.1987,2.2553,2.2941,2.3279,2.3495,2.4223,2.464,2.4537,2.4687,2.4895,2.5046,2.4908,2.4983,2.5322,2.5335,2.5611,2.6197,2.6197,2.6298,2.6499,2.6973,2.7517,1.6529,1.6956,1.704,1.5534,1.5306,1.5075,1.3453,1.2951,1.2847,1.2927,1.2587,1.226,1.2203,1.2071,1.2303,1.3314,1.4589,1.5923,1.7188,1.8694,1.975,2.0022,2.0457,2.072,2.072,2.072,2.0859,2.1181,2.1211,2.1211,2.1211,2.1211,2.1211,2.1211,2.1094,2.083,2.0358,2.0179,1.9579,1.8613,1.8189,1.7933,1.7808,1.7721,1.7611,1.7501,1.7501,1.749,1.7581,1.7581,1.8842,2.0863,2.0863,2.2217,2.4206,2.411,2.4196,2.4325,2.3711,2.3634,2.3721,2.3634,2.3667,2.3797,2.3797,2.3711,2.3624,2.3754,2.3711,2.3677,2.3884,2.3486,2.296,2.2685,2.2191,2.1659,2.1383,2.1474,2.1617,2.1617,2.1693,2.1807,2.1807,2.2056,2.2252,2.2252,2.1994,2.1807,2.1807,2.2063,2.244,2.2927,2.3604,2.4002,2.3936,2.4645,2.4988,2.48,2.4996,2.5247,2.5586,2.5473,2.5561,2.59,2.59,2.6122,2.6499,2.6499,2.6499,2.6521,2.7196,2.7855,1.6279,1.6388,1.624,1.4686,1.4218,1.4016,1.3225,1.2734,1.2564,1.2942,1.2605,1.2244,1.2307,1.2121,1.2025,1.2245,1.333,1.4543,1.5539,1.7453,1.8988,1.9662,2.0303,2.0691,2.0676,2.0643,2.0739,2.1159,2.1203,2.1211,2.1211,2.1211,2.1203,2.1181,2.0889,2.0706,2.0676,2.0018,1.922,1.8299,1.8269,1.8094,1.7801,1.8108,1.8086,1.7786,1.7786,1.7571,1.7279,1.7279,1.8596,2.0593,2.0593,2.2085,2.4153,2.3894,2.398,2.4206,2.4206,2.4206,2.4163,2.3884,2.3841,2.3841,2.3841,2.3841,2.3841,2.3841,2.3841,2.3884,2.4153,2.3742,2.317,2.3002,2.2593,2.2104,2.1665,2.1706,2.1849,2.1849,2.1828,2.1818,2.1838,2.1818,2.1818,2.1838,2.1856,2.1845,2.1845,2.2515,2.3038,2.3113,2.442,2.5071,2.4601,2.5197,2.5385,2.4863,2.536,2.5636,2.5636,2.6197,2.6499,2.6499,2.6499,2.6499,2.6499,2.6499,2.6499,2.6521,2.7229,2.7887,1.7636,1.7353,1.6748,1.573,1.4804,1.3931,1.2848,1.2644,1.2625,1.2417,1.2831,1.2995,1.1902,1.2917,1.4009,1.4361,1.5491,1.6795,1.8164,1.9035,1.9488,1.944,1.9967,2.0267,2.0033,1.9591,1.9716,2.0725,2.1072,2.1211,2.1211,2.1211,2.1101,2.0852,2.0764,2.0494,2.0011,1.9118,1.8547,1.8299,1.7808,1.753,1.741,1.7538,1.753,1.741,1.741,1.7359,1.7279,1.7279,1.8511,2.0322,2.0503,2.1943,2.3927,2.4067,2.4249,2.4411,2.4411,2.4335,2.4206,2.411,2.4196,2.4325,2.4325,2.4239,2.411,2.4282,2.4196,2.4153,2.4378,2.3944,2.346,2.3608,2.3186,2.2746,2.2743,2.2524,2.2325,2.2325,2.2045,2.1911,2.2263,2.2035,2.1921,2.2273,2.2512,2.2703,2.2703,2.2889,2.3434,2.4587,2.4706,2.4869,2.5264,2.5498,2.5536,2.541,2.5959,2.6273,2.6273,2.6411,2.6499,2.6499,2.6499,2.6499,2.6499,2.6499,2.6499,2.6521,2.7703,2.833,1.7775,1.7568,1.7108,1.6143,1.5013,1.4164,1.3889,1.3488,1.3226,1.3445,1.3797,1.3722,1.2405,1.354,1.4622,1.436,1.5417,1.6779,1.8229,1.8816,1.9252,1.965,2.0267,2.0596,2.0413,2.0089,2.0125,2.0876,2.058,2.0622,2.1153,2.1211,2.1057,2.0735,2.0589,2.0201,1.961,1.8723,1.8299,1.8291,1.764,1.7279,1.7279,1.7279,1.7279,1.7279,1.7279,1.7279,1.7279,1.7279,1.828,1.9778,2.0367,2.1712,2.3387,2.397,2.4335,2.4497,2.4497,2.4411,2.4325,2.4325,2.4411,2.4497,2.4497,2.4411,2.4378,2.4454,2.4411,2.4368,2.4454,2.4226,2.3937,2.3919,2.3598,2.332,2.3236,2.2822,2.2439,2.2232,2.1983,2.189,2.2149,2.1973,2.2005,2.2649,2.2875,2.325,2.39,2.4009,2.4335,2.5206,2.5361,2.5534,2.5975,2.5975,2.5975,2.5975,2.6311,2.6499,2.6499,2.6499,2.6499,2.6499,2.6499,2.6499,2.6499,2.6499,2.6499,2.6521,2.7887,2.8492,1.7589,1.7519,1.7411,1.6352,1.528,1.4637,1.5453,1.4743,1.4154,1.4965,1.4948,1.4469,1.3347,1.4126,1.4636,1.3817,1.4657,1.5929,1.7346,1.8066,1.8855,2.0034,2.075,2.1187,2.1086,2.1001,2.1023,2.1145,2.0005,1.9853,2.1146,2.1211,2.1042,2.0669,2.0249,1.9842,1.9331,1.8628,1.8299,1.8291,1.764,1.7279,1.7279,1.7279,1.7279,1.7279,1.7279,1.7279,1.7279,1.7279,1.8002,1.9185,2.0223,2.148,2.279,2.3831,2.4325,2.4497,2.4497,2.4497,2.4497,2.4497,2.4497,2.4497,2.4497,2.4497,2.4497,2.4497,2.4497,2.4497,2.4497,2.4497,2.4404,2.4053,2.3971,2.3836,2.3381,2.2915,2.2449,2.1983,2.1901,2.188,2.1818,2.1807,2.2063,2.2889,2.3065,2.368,2.5087,2.5312,2.5347,2.5453,2.6094,2.6499,2.6499,2.6499,2.6499,2.6499,2.6499,2.6499,2.6499,2.6499,2.6499,2.6499,2.6499,2.6499,2.6499,2.6499,2.6499,2.6521,2.7887,2.8492,1.8962,1.845,1.7809,1.7417,1.6452,1.5589,1.5479,1.5285,1.5033,1.4757,1.5331,1.5492,1.428,1.491,1.5744,1.6123,1.6347,1.7076,1.8735,1.9473,1.9852,1.9872,2.0633,2.0985,2.0428,1.9899,1.9935,2.0745,1.9887,1.9853,2.1146,2.1211,2.094,2.0285,1.9747,1.9389,1.9279,1.8628,1.8299,1.8291,1.764,1.7279,1.7279,1.7279,1.7279,1.7279,1.7279,1.7279,1.7279,1.7279,1.7924,1.8972,2.0305,2.1525,2.2614,2.396,2.4454,2.4497,2.4497,2.4497,2.4497,2.4497,2.4497,2.4497,2.4497,2.4497,2.4497,2.4497,2.4497,2.4497,2.4497,2.4497,2.4476,2.4404,2.4383,2.4259,2.3857,2.3391,2.2925,2.247,2.2377,2.2263,2.188,2.1807,2.2063,2.2889,2.3522,2.424,2.5194,2.5312,2.5558,2.6211,2.6418,2.6499,2.6499,2.6499,2.6499,2.6499,2.6499,2.6499,2.6499,2.6499,2.6499,2.6499,2.6499,2.6499,2.6499,2.6499,2.6499,2.6521,2.7887,2.8492,1.9279,1.9007,1.8608,1.8313,1.7514,1.6781,1.6649,1.6327,1.6023,1.5994,1.6402,1.6409,1.5296,1.6068,1.6752,1.6554,1.7132,1.791,1.8899,1.9433,1.974,1.9815,2.0451,2.0803,2.0486,2.0181,2.0183,2.065,2.0138,2.021,2.1139,2.0735,2.0311,1.9996,1.936,1.9023,1.9023,1.854,1.8218,1.8043,1.756,1.7279,1.7279,1.7279,1.7279,1.7279,1.7279,1.7279,1.7279,1.7279,1.7878,1.8926,2.0223,2.1445,2.258,2.3874,2.4411,2.4497,2.4497,2.4497,2.4497,2.4497,2.4497,2.4497,2.4497,2.4497,2.4497,2.4497,2.4497,2.4497,2.4497,2.4497,2.4497,2.4497,2.4497,2.4373,2.3971,2.3701,2.3452,2.2946,2.2853,2.2866,2.28,2.2781,2.3113,2.4043,2.4504,2.5004,2.5816,2.5921,2.606,2.6452,2.6499,2.6499,2.6499,2.6499,2.6499,2.6499,2.6499,2.6499,2.6499,2.6499,2.6499,2.6499,2.6499,2.6499,2.6499,2.6499,2.6692,2.704,2.8051,2.873,1.9154,1.9324,1.9353,1.8979,1.8405,1.7857,1.7913,1.7373,1.6945,1.7254,1.7279,1.7044,1.6271,1.6811,1.7193,1.6718,1.733,1.8087,1.873,1.9067,1.9448,1.9824,2.0357,2.0709,2.0755,2.0761,2.0716,2.0707,2.0377,2.0402,2.0976,2.0216,1.9815,1.9815,1.9199,1.8855,1.8789,1.8467,1.8138,1.7808,1.7479,1.7279,1.7279,1.7279,1.7279,1.7279,1.7279,1.7279,1.7279,1.7279,1.7785,1.8603,2.0051,2.1177,2.2164,2.3657,2.4282,2.4454,2.4497,2.4497,2.4497,2.4497,2.4497,2.4497,2.4497,2.4497,2.4497,2.4497,2.4497,2.4497,2.4497,2.4497,2.4497,2.4497,2.4425,2.4333,2.4074,2.395,2.3774,2.3412,2.3256,2.3309,2.365,2.3602,2.397,2.5111,2.5312,2.5594,2.6383,2.6499,2.6499,2.6499,2.6499,2.6499,2.6499,2.6499,2.6499,2.6499,2.6499,2.6499,2.6499,2.6499,2.6499,2.6499,2.6499,2.6499,2.6499,2.6499,2.685,2.7517,2.8182,2.8889,1.8723,1.9264,1.9691,1.9368,1.8979,1.8629,1.83,1.7952,1.7613,1.7352,1.7279,1.7279,1.7185,1.6534,1.6361,1.7469,1.7002,1.7029,1.86,1.9067,1.9493,2.0083,2.068,2.1054,2.1085,2.1062,2.0946,2.0649,2.0354,2.0205,2.0263,1.9967,1.9815,1.9815,1.9418,1.9089,1.8789,1.8467,1.8138,1.7808,1.7479,1.7279,1.7279,1.7279,1.7279,1.7279,1.7279,1.7279,1.7279,1.7279,1.7372,1.7645,1.9778,2.0683,2.1042,2.3343,2.4206,2.4239,2.4454,2.4497,2.4497,2.4497,2.4497,2.4497,2.4497,2.4497,2.4497,2.4497,2.4497,2.4497,2.4497,2.4497,2.4497,2.4497,2.4229,2.4043,2.4363,2.4167,2.3909,2.3826,2.3474,2.3309,2.365,2.334,2.3553,2.5064,2.5312,2.5594,2.6383,2.6499,2.6499,2.6499,2.6499,2.6499,2.6499,2.6499,2.6499,2.6499,2.6499,2.6499,2.6499,2.6499,2.6499,2.6499,2.6499,2.6499,2.6499,2.6499,2.685,2.7517,2.8182,2.8889,1.9226,1.9617,1.9742,1.936,1.8884,1.8408,1.8086,1.7757,1.7439,1.7308,1.7279,1.7279,1.7279,1.699,1.6892,1.7407,1.7184,1.7191,1.8089,1.8313,1.8684,1.9515,1.9961,2.0361,2.075,2.0771,2.0551,2.0068,1.9442,1.9242,1.9638,1.9535,1.9522,1.9522,1.9155,1.8921,1.8789,1.8467,1.8138,1.7808,1.7479,1.7279,1.7279,1.7279,1.7279,1.7279,1.7279,1.7279,1.7279,1.7279,1.7645,1.838,1.996,2.0953,2.1632,2.3343,2.4067,2.4206,2.4292,2.4411,2.4497,2.4497,2.4497,2.4497,2.4497,2.4497,2.4497,2.4497,2.4497,2.4497,2.4497,2.4497,2.4497,2.4497,2.4363,2.4322,2.4466,2.4363,2.444,2.4955,2.4878,2.5028,2.5904,2.5625,2.5579,2.6379,2.6235,2.6129,2.6452,2.6499,2.6499,2.6499,2.6499,2.6499,2.6499,2.6499,2.6499,2.6499,2.6499,2.6499,2.6499,2.6499,2.6499,2.6499,2.6499,2.6499,2.6499,2.6499,2.7254,2.8698,2.8996,2.9919,1.8978,1.9448,1.9617,1.9382,1.8708,1.8123,1.7991,1.756,1.7216,1.7264,1.7279,1.7279,1.7279,1.7279,1.7279,0.0,0.0,1.7443,1.7772,1.7864,1.8222,1.9077,1.9311,1.9718,2.0491,2.0548,2.0308,1.9835,1.9145,1.8941,1.9406,1.9324,1.9279,1.9279,1.9052,1.8884,1.8789,1.8467,1.8138,1.7808,1.7479,1.7279,1.7279,1.7279,1.7279,1.7279,1.7279,1.7279,1.7279,1.7279,1.7738,1.8519,1.9914,2.0908,2.1676,2.3212,2.3927,2.411,2.4249,2.4368,2.4497,2.4497,2.4497,2.4497,2.4497,2.4497,2.4497,2.4497,2.4497,2.4497,2.4497,2.4497,2.4497,2.4497,2.4497,2.4497,2.4497,2.47,2.5062,2.5663,2.5917,2.6362,2.7433,2.7162,2.6943,2.7249,2.6989,2.6675,2.6512,2.6499,2.6499,2.6499,2.6499,2.6499,2.6499,2.6499,2.6499,2.6499,2.6499,2.6562,2.6738,2.6738,2.6813,2.6977,2.6977,2.6977,2.6977,2.7221,2.8147,2.9753,3.0,3.1059,1.753,1.854,1.9279,1.9279,1.854,1.7904,1.8225,1.7552,1.6998,1.7267,1.7279,1.7279,1.7279,1.7279,1.7279,1.7279,1.7279,0.0,1.7772,1.8015,1.8438,1.9014,1.8989,1.9285,2.0279,2.0472,2.0411,2.0138,1.982,1.9672,1.968,1.9428,1.9279,1.9279,1.9324,1.9118,1.8789,1.8467,1.8138,1.7808,1.7479,1.7279,1.7279,1.7279,1.7279,1.7279,1.7279,1.7279,1.7279,1.7279,1.7333,1.7512,1.9459,2.0232,2.0503,2.2887,2.3797,2.3884,2.4325,2.4497,2.4497,2.4497,2.4497,2.4497,2.4497,2.4497,2.4497,2.4497,2.4497,2.4497,2.4497,2.4497,2.4497,2.4497,2.4497,2.4497,2.4497,2.5179,2.5788,2.5777,2.6183,2.6732,2.749,2.7188,2.7004,2.7249,2.7316,2.7115,2.6562,2.6499,2.6499,2.6499,2.6499,2.6499,2.6499,2.6499,2.6499,2.6499,2.6499,2.6738,2.7291,2.7268,2.7532,2.8084,2.8084,2.8084,2.8097,2.8902,2.9618,3.0296,3.1116,3.2198,1.8237,1.8708,1.8942,1.8942,1.8211,1.7567,1.7896,1.7391,1.6991,1.726,1.7279,1.7279,1.7279,1.7279,1.7279,1.7279,1.7279,1.7416,1.7668,1.801,1.8512,1.93,1.9897,2.0403,2.0734,2.0386,2.0214,2.0336,1.9674,1.9411,1.9709,1.9412,1.9243,1.9324,1.906,1.8891,1.8789,1.8247,1.7918,1.7808,1.7479,1.7279,1.7279,1.7279,1.7279,1.7279,1.7279,1.7279,1.7279,1.7279,1.7279,1.7512,1.9422,2.0187,2.0458,2.2765,2.3667,2.3841,2.4196,2.4368,2.4497,2.4497,2.4497,2.4497,2.4497,2.4497,2.4497,2.4497,2.4497,2.4497,2.4497,2.4497,2.4497,2.4497,2.4497,2.4658,2.5263,2.5621,2.6152,2.7395,2.7761,2.8131,2.8938,2.8634,2.8164,2.7885,2.7519,2.7115,2.6562,2.6499,2.6499,2.6499,2.6839,2.7052,2.7052,2.7052,2.718,2.7557,2.7582,2.7657,2.7833,2.7846,2.7921,2.8109,2.8109,2.8109,2.8109,2.8915,3.0145,3.1748,3.2938,3.372,1.8032,1.8416,1.8577,1.8452,1.7874,1.733,1.7582,1.723,1.6991,1.726,1.7279,1.7279,1.7279,1.7279,1.7279,1.7279,1.7279,1.7416,1.7831,1.8168,1.8611,1.9364,2.0198,2.067,2.0535,2.0416,2.044,2.0652,2.0023,1.9767,1.9975,1.969,1.9565,1.962,1.9059,1.8789,1.8789,1.8138,1.7816,1.7808,1.7479,1.7279,1.7279,1.7279,1.7279,1.7279,1.7279,1.7279,0.0,1.7279,1.7279,1.7512,1.9422,2.0187,2.0458,2.2765,2.3667,2.3841,2.4196,2.4411,2.4497,2.4497,2.4497,2.4497,2.4497,2.4497,2.4497,2.4497,2.4497,2.4497,2.4497,2.4497,2.4583,2.4893,2.4978,2.5221,2.6121,2.6565,2.7139,2.8291,2.8752,2.917,2.9702,2.949,2.8988,2.8222,2.7808,2.7318,2.66,2.6499,2.6575,2.6788,2.7115,2.7444,2.7871,2.7708,2.7745,2.8084,2.8109,2.8197,2.8411,2.8411,2.8524,2.8737,2.8737,2.8874,2.9182,3.0232,3.1584,3.3172,3.4008,3.4414,0.0,1.775,1.816,1.7852,1.7552,1.7279,1.7279,1.7099,0.0,1.7267,1.7279,1.7279,1.7279,1.7279,1.7333,1.7326,1.7326,1.7537,1.8188,1.8533,1.8906,1.9399,2.0027,2.0289,1.998,2.0519,2.0925,2.0925,2.0668,2.0522,2.0522,2.0248,2.0138,2.0078,1.9285,1.8803,1.8803,1.8108,1.7779,1.7779,1.7425,1.7279,1.7279,1.7279,1.7279,1.7279,1.7279,1.7279,1.7279,1.7279,1.7279,1.7512,1.9422,2.0187,2.0503,2.2896,2.3797,2.3884,2.4325,2.4497,2.4497,2.4497,2.4497,2.4497,2.4497,2.4497,2.4497,2.4497,2.4497,2.4497,2.4497,2.454,2.4775,2.5621,2.5872,2.611,2.7028,2.7879,2.8502,2.8581,2.9248,2.9792,2.9792,2.9792,2.9402,2.8273,2.8109,2.7708,2.6637,2.6524,2.6751,2.7266,2.7356,2.7821,2.88,2.8461,2.8185,2.8222,2.8222,2.8448,2.8938,2.895,2.9239,2.9779,2.9856,3.0279,3.1068,3.2492,3.3624,3.4414,3.4414,3.4414,1.6632,0.0,1.7538,1.7465,1.7337,1.7279,0.0,0.0,0.0,0.0,0.0,1.7279,1.7279,1.7279,1.738,1.7574,1.7628,1.7873,1.8727,1.9464,1.9998,2.0154,2.0535,2.0655,2.0305,2.0662,2.0925,2.0925,2.0822,2.0719,2.0514,2.0462,2.03,2.0138,1.9421,1.8919,1.8706,1.8067,1.7638,1.7443,1.7315,1.7279,1.7279,1.7279,1.7279,1.7279,1.7279,1.7279,1.7279,1.7279,1.7279,1.7512,1.9422,2.0187,2.0458,2.2721,2.3667,2.3841,2.4153,2.4378,2.4497,2.4497,2.4497,2.4497,2.4497,2.4497,2.4497,2.4497,2.4497,2.4497,2.4497,2.4978,2.5547,2.5746,2.6318,2.7058,2.7971,2.8331,2.8712,2.9378,2.9663,2.9792,2.9792,2.9792,2.9402,2.8273,2.8109,2.7708,2.6637,2.6864,2.7178,2.7304,2.8034,2.8612,2.8863,2.8775,2.8925,2.9365,2.9402,2.9453,2.9578,2.9591,2.9654,2.9792,3.0343,3.1304,3.267,3.3038,3.3624,3.4414,3.4414,3.4414,1.6313,1.6621,1.6909,1.671,1.6784,1.685,1.6711,0.0,0.0,0.0,0.0,1.7157,1.7304,1.738,1.7527,1.7675,1.7943,1.839,1.9111,1.9761,2.021,2.0377,2.0559,2.0662,2.0639,2.0805,2.0925,2.0925,2.0925,2.0822,2.0668,2.0668,2.0538,2.0265,1.9758,1.9282,1.889,1.8233,1.7761,1.7473,1.7473,1.7426,1.7279,1.7279,1.7279,1.7279,1.7279,1.7279,1.7279,1.7279,1.7279,1.7512,1.9422,2.0187,2.0458,2.2687,2.3634,2.3841,2.412,2.4325,2.4497,2.4497,2.4497,2.4497,2.4497,2.4497,2.4497,2.4497,2.4497,2.4497,2.4497,2.5137,2.5902,2.6318,2.7098,2.7971,2.8882,2.9091,2.9248,2.9702,2.9792,2.9792,2.9792,2.9792,2.9503,2.8612,2.8273,2.7896,2.7329,2.7256,2.7482,2.7984,2.8537,2.9001,2.9302,2.9327,2.9453,2.9779,2.9792,2.9792,2.9792,2.9792,2.9792,2.9792,3.0884,3.1842,3.2684,3.3416,3.3962,3.4414,3.4414,3.4414,1.5994,1.6203,1.6352,1.6031,1.6177,1.6345,1.6045,0.0,0.0,0.0,0.0,1.6983,1.7255,1.7498,1.7721,1.7822,1.8367,1.8958,1.9488,1.9858,2.0098,2.0289,2.0408,2.0567,2.0813,2.0893,2.0925,2.0925,2.0925,2.0925,2.0925,2.0869,2.0702,2.04,2.0052,1.9602,1.9172,1.8502,1.8048,1.7768,1.7721,1.7574,1.738,1.7333,1.7279,1.7279,1.7279,1.7279,1.7279,1.7279,1.7279,1.7512,1.9422,2.0187,2.0458,2.2687,2.3634,2.3841,2.4153,2.4378,2.4497,2.4497,2.4497,2.4497,2.4497,2.4497,2.454,2.4658,2.47,2.47,2.47,2.5463,2.64,2.7151,2.8011,2.891,2.9624,2.9792,2.9792,2.9792,2.9792,2.9792,2.9792,2.9792,2.9566,2.8863,2.8473,2.8172,2.7996,2.772,2.7896,2.8787,2.8963,2.9252,2.9754,2.9792,2.9792,2.9792,2.9792,2.9792,2.9792,2.9792,2.9895,3.0152,3.1442,3.2232,3.2448,3.3756,3.4414,3.4414,3.4414,3.4414,1.5369,1.5715,1.6122,1.6279,1.6382,1.6404,1.6309,0.0,0.0,0.0,1.6712,1.6963,1.7197,1.7488,1.7861,1.8288,1.9138,1.9756,1.9811,2.0384,2.0559,2.006,2.048,2.0742,2.0496,2.0742,2.0925,2.0925,2.0925,2.0925,2.0925,2.0639,2.0448,2.0392,1.9781,1.9447,1.9352,1.8769,1.8288,1.804,1.7815,1.7675,1.7628,1.738,1.7279,1.7279,1.7279,1.7279,1.7279,1.7279,1.7279,1.7512,1.9422,2.0187,2.0458,2.2687,2.3634,2.3884,2.4282,2.4454,2.4497,2.4497,2.4497,2.4497,2.4497,2.4497,2.4658,2.5379,2.5579,2.5579,2.5579,2.6853,2.8131,2.8251,2.8961,2.9624,2.9753,2.9792,2.9792,2.9792,2.9792,2.9792,2.9792,2.9792,2.944,2.8386,2.8561,2.8461,2.7532,2.8147,2.87,2.8875,2.9365,2.9691,2.9779,2.9792,2.9792,2.9792,2.9792,2.9792,2.9792,2.9792,3.0406,3.1723,3.1978,3.2733,3.4045,3.4264,3.4414,3.4414,3.4414,3.4414,1.5201,1.5447,1.5691,1.5819,1.5994,1.6074,1.5899,1.5862,0.0,0.0,1.6529,1.6845,1.76,1.7973,1.8422,1.913,1.9463,1.971,1.9885,1.9987,2.0098,2.0146,2.044,2.0647,2.0678,2.0821,2.0925,2.0925,2.0925,2.0925,2.0925,2.0583,2.0305,2.0114,1.9678,1.928,1.9082,1.8784,1.8558,1.8334,1.8195,1.7962,1.7675,1.7574,1.7434,1.7279,1.7279,1.7279,1.7279,1.7279,1.7279,1.7512,1.9422,2.0277,2.0683,2.3038,2.3937,2.4067,2.4368,2.4497,2.4497,2.4497,2.4497,2.4497,2.4497,2.4497,2.47,2.5537,2.5777,2.5902,2.6359,2.7516,2.8502,2.8502,2.917,2.9792,2.9792,2.9792,2.9792,2.9792,2.9792,2.9792,2.9792,2.9792,2.9616,2.9101,2.8963,2.8825,2.8662,2.8812,2.9013,2.9365,2.9628,2.9792,2.9792,2.9792,2.9792,2.9792,2.9792,2.9792,2.9792,2.9792,3.0317,3.1415,3.1892,3.2648,3.3742,3.4182,3.4414,3.4414,3.4414,3.4414,1.5091,1.5283,1.5484,1.5411,1.5571,1.5738,1.5447,1.5431,1.5626,1.6227,1.6492,1.6885,1.7952,1.8483,1.9041,1.9764,1.9765,1.9701,2.0004,1.9844,1.99,2.0337,2.0464,2.0623,2.0893,2.0925,2.0925,2.0925,2.0925,2.0885,2.0805,2.0464,2.0106,1.9805,1.9423,1.9105,1.8781,1.8781,1.8743,1.8566,1.8527,1.8295,1.7869,1.7815,1.7667,1.7466,1.7426,1.738,1.738,1.7326,1.7279,1.7505,1.9505,2.0773,2.1676,2.344,2.4163,2.4292,2.4464,2.4497,2.4497,2.4497,2.4497,2.4497,2.4497,2.4497,2.4743,2.5788,2.611,2.6318,2.7191,2.8091,2.8791,2.8791,2.93,2.9792,2.9792,2.9792,2.9792,2.9792,2.9792,2.9792,2.9792,2.9792,2.9741,2.9616,2.9327,2.9239,2.9553,2.9315,2.9302,2.9741,2.9792,2.9792,2.9792,2.9792,2.9792,2.9792,2.9792,2.9792,2.9792,2.9792,3.0254,3.1156,3.1783,3.2541,3.3485,3.4113,3.4414,3.4414,3.4414,3.4414,1.4727,1.5276,1.5804,1.5462,1.5403,1.5418,1.5389,1.5541,1.5796,1.6204,1.6684,1.7238,1.7914,1.8745,1.9479,1.9861,2.0122,2.0329,2.0353,2.0615,2.0702,2.0424,2.0686,2.0893,2.0917,2.0925,2.0925,2.0925,2.0925,2.0774,2.0448,2.014,1.9797,1.9463,1.9058,1.8805,1.8781,1.8781,1.8781,1.8789,1.8566,1.8481,1.8435,1.8187,1.804,1.804,1.7768,1.7675,1.7628,1.738,1.7279,1.7505,1.9733,2.1943,2.3927,2.3841,2.41,2.4497,2.4497,2.4497,2.4497,2.4497,2.4497,2.4497,2.4497,2.4497,2.4861,2.6535,2.7028,2.7232,2.8171,2.904,2.9702,2.9702,2.9753,2.9792,2.9792,2.9792,2.9792,2.9792,2.9792,2.9792,2.9792,2.9792,2.9616,2.9038,2.9415,2.9553,2.9013,2.9428,2.9741,2.9792,2.9792,2.9792,2.9792,2.9792,2.9792,2.9792,2.9792,2.9792,2.9792,2.9792,3.0508,3.1965,3.2074,3.284,3.4298,3.438,3.4414,3.4414,3.4414,3.4414,1.4692,1.5126,1.5542,1.5418,1.5389,1.5423,1.5582,1.5978,1.6382,1.6485,1.7142,1.7834,1.8255,1.9075,1.9574,1.9272,1.9693,2.0116,2.0116,2.0369,2.0623,2.071,2.0837,2.0925,2.0925,2.0925,2.0925,2.0925,2.0925,2.0766,2.0408,2.0059,1.9757,1.9431,1.9018,1.8781,1.8781,1.8781,1.8781,1.8781,1.8743,1.8612,1.8481,1.8381,1.828,1.8087,1.7994,1.7861,1.7675,1.7581,1.7426,1.7512,1.9861,2.2076,2.397,2.4196,2.4368,2.4497,2.4497,2.4497,2.4497,2.4497,2.4497,2.4497,2.4497,2.4497,2.4861,2.6618,2.711,2.7435,2.8922,2.9546,2.9792,2.9792,2.9792,2.9792,2.9792,2.9792,2.9792,2.9792,2.9792,2.9792,2.9792,2.9792,2.9716,2.9503,2.9654,2.9716,2.949,2.9654,2.9792,2.9792,2.9792,2.9792,2.9792,2.9792,2.9792,2.9792,2.9792,2.9792,2.9792,2.9792,3.0545,3.2074,3.211,3.284,3.4414,3.4414,3.4414,3.4414,3.4414,3.4414,1.4692,1.5041,1.5389,1.5389,1.5465,1.5646,1.6269,1.6591,1.6853,1.7231,1.7984,1.8684,1.8988,1.9311,1.9415,1.9058,1.9487,1.9957,2.006,2.0241,2.0527,2.0877,2.1224,2.1267,2.0917,2.1224,2.1275,2.0925,2.0813,2.0599,2.0241,1.99,1.9598,1.9217,1.8962,1.8781,1.8781,1.8781,1.8781,1.8781,1.8781,1.8743,1.8566,1.8566,1.8512,1.8319,1.8226,1.8141,1.7962,1.8179,1.8565,1.9131,2.044,2.2199,2.4057,2.4325,2.4464,2.4497,2.4497,2.4497,2.4497,2.4497,2.4497,2.4497,2.4497,2.4497,2.4828,2.6287,2.6905,2.7435,2.9,2.9585,2.9792,2.9792,2.9792,2.9792,2.9792,2.9792,2.9792,2.9792,2.9792,2.9792,2.9792,2.9792,2.9792,2.9792,2.9792,2.9792,2.9792,2.9792,2.9792,2.9792,2.9792,2.9792,2.9792,2.9792,2.9792,2.9792,2.9792,2.9792,2.9792,2.9792,3.0545,3.2074,3.211,3.284,3.4414,3.4414,3.4414,3.4414,3.4414,3.4414,1.4692,1.5041,1.5389,1.5389,1.5541,1.6107,1.7638,1.7289,1.7067,1.858,1.9349,1.9865,2.0226,1.9492,1.8947,1.9351,1.9686,2.0036,2.0387,2.0442,2.057,2.0877,2.1869,2.2072,2.1019,2.1869,2.2072,2.1011,2.0591,2.0283,1.9933,1.9598,1.9256,1.8843,1.8827,1.8827,1.8781,1.8781,1.8781,1.8781,1.8781,1.8781,1.8781,1.8781,1.8781,1.8781,1.8612,1.8481,1.8574,1.9225,2.0737,2.2561,2.1445,2.2429,2.4454,2.4292,2.4325,2.4497,2.4497,2.4497,2.4497,2.4497,2.4497,2.4497,2.4497,2.4497,2.47,2.5537,2.6442,2.7313,2.8251,2.917,2.9792,2.9792,2.9792,2.9792,2.9792,2.9792,2.9792,2.9792,2.9792,2.9792,2.9792,2.9792,2.9792,2.9792,2.9792,2.9792,2.9792,2.9792,2.9792,2.9792,2.9792,2.9792,2.9792,2.9792,2.9792,2.9792,2.9792,2.9792,2.9792,2.9792,3.0545,3.2074,3.211,3.2889,3.4414,3.4414,3.4414,3.4414,3.4414,3.4414,1.4692,1.5041,1.5389,1.5389,1.5641,1.6199,1.7653,1.76,1.7751,1.9521,2.0369,2.0779,2.0887,2.0882,2.0792,2.0686,2.117,2.1679,2.2104,2.2347,2.2663,2.31,2.3452,2.3502,2.3203,2.3144,2.2984,2.2689,2.2281,2.2009,2.199,2.1591,2.1003,2.0281,1.9983,1.9546,1.8827,1.8781,1.8781,1.8781,1.8781,1.8781,1.8773,1.8565,1.8589,1.8765,1.8474,1.843,1.8481,1.8504,1.9704,2.1489,2.1302,2.2473,2.4282,2.4368,2.4454,2.4497,2.4497,2.4497,2.4497,2.4497,2.4497,2.4497,2.4497,2.4497,2.47,2.5537,2.6442,2.7313,2.8251,2.917,2.9792,2.9792,2.9792,2.9792,2.9792,2.9792,2.9792,2.9792,2.9792,2.9792,2.9792,2.9792,2.9792,2.9792,2.9792,2.9792,2.9792,2.9792,2.9792,2.9792,2.9792,2.9792,2.9792,2.9792,2.9792,2.9792,2.9792,3.0037,3.0545,3.0582,3.1304,3.2826,3.2861,3.3381,3.4414,3.4414,3.4414,3.4414,3.4414,3.4414,1.4824,1.5124,1.5389,1.5389,1.5612,1.6246,1.7787,1.8888,1.9861,2.114,2.1618,2.1783,2.1944,2.1699,2.1473,2.1425,2.1741,2.2153,2.2547,2.2812,2.3067,2.3508,2.3901,2.3998,2.3611,2.3669,2.3577,2.314,2.2727,2.2555,2.2602,2.2227,2.178,2.1225,2.1004,2.0574,1.9948,1.9406,1.9159,1.915,1.8651,1.8406,1.8406,1.8478,1.8629,1.8765,1.8605,1.8985,1.9729,1.9171,2.0331,2.2385,2.2101,2.2965,2.4325,2.4454,2.4497,2.4497,2.4497,2.4497,2.4497,2.4497,2.4497,2.4497,2.4497,2.4497,2.4625,2.5147,2.6163,2.7232,2.7799,2.8882,2.9792,2.9792,2.9792,2.9792,2.9792,2.9792,2.9792,2.9792,2.9792,2.9792,2.9792,2.9792,2.9792,2.9792,2.9792,2.9792,2.9792,2.9792,2.9792,2.9792,2.9792,2.9792,2.9792,2.9792,2.9792,2.9792,3.0062,3.0595,3.1341,3.1068,3.1623,3.3178,3.3178,3.3604,3.4414,3.4414,3.4414,3.4414,3.4414,3.4414,1.4999,1.5215,1.5389,1.5389,1.5722,1.6477,1.8254,2.0713,2.2722,2.2944,2.2834,2.2791,2.3099,2.2169,2.1528,2.1887,2.1933,2.2019,2.2418,2.2483,2.2585,2.2963,2.3867,2.4052,2.3103,2.3828,2.4004,2.301,2.2603,2.2446,2.2483,2.2139,2.1917,2.1828,2.1791,2.171,2.1585,2.0342,1.9737,1.965,1.857,1.798,1.7917,1.8451,1.8684,1.8776,1.8932,1.9988,2.1551,2.0773,2.1996,2.4272,2.341,2.3681,2.4497,2.4497,2.4497,2.4497,2.4497,2.4497,2.4497,2.4497,2.4497,2.4497,2.4497,2.4497,2.4497,2.4497,2.5768,2.711,2.711,2.8422,2.9792,2.9792,2.9829,2.9854,2.9804,2.9829,2.9854,2.9804,2.9792,2.9792,2.9792,2.9792,2.9792,2.9792,2.9792,2.9792,2.9792,2.9792,2.9792,2.9792,2.9792,2.9792,2.9792,2.9792,2.983,2.9895,3.0507,3.1304,3.2146,3.1513,3.1806,3.3297,3.3297,3.3673,3.4414,3.4414,3.4414,3.4414,3.4414,3.4414,1.4783,1.5082,1.5389,1.5389,1.6988,1.8883,2.0214,2.1836,2.2889,2.2257,2.2954,2.3637,2.3697,2.3215,2.304,2.3786,2.3634,2.3685,2.4438,2.4539,2.47,2.5169,2.5412,2.5457,2.5219,2.5106,2.4913,2.468,2.4267,2.4176,2.4529,2.4116,2.356,2.2833,2.2462,2.1741,2.0613,2.031,1.9848,1.923,1.9598,1.9426,1.8801,1.8005,1.7983,1.8625,1.9948,2.0781,2.1149,2.1336,2.2173,2.3367,2.3183,2.3681,2.4497,2.4497,2.4497,2.4497,2.4497,2.4497,2.4497,2.4497,2.4497,2.4497,2.4497,2.4497,2.4497,2.4497,2.5768,2.711,2.711,2.8422,2.9792,2.9792,3.0118,3.0319,2.988,3.0131,3.0306,2.988,2.9792,2.9792,2.9792,2.9792,2.9792,2.9792,2.9792,2.9792,2.9792,2.9792,2.9792,2.9792,2.9792,2.9792,2.9792,2.9792,3.0037,3.062,3.082,3.1513,3.2897,3.2791,3.3157,3.4113,3.4147,3.423,3.4414,3.4414,3.4414,3.4414,3.4414,3.4414,1.4866,1.5131,1.5389,1.5389,1.7375,1.9447,2.0076,2.1762,2.3001,2.2322,2.2931,2.3546,2.3546,2.335,2.3412,2.4105,2.4033,2.4115,2.4766,2.4859,2.4941,2.5213,2.5233,2.5233,2.5233,2.4993,2.4859,2.4859,2.4631,2.4507,2.4581,2.4353,2.3894,2.3145,2.2914,2.2435,2.1702,2.1037,2.0387,1.9752,1.9816,1.9611,1.9177,1.8894,1.8971,1.94,2.0274,2.1025,2.1702,2.191,2.2737,2.3767,2.3767,2.409,2.4497,2.4497,2.4497,2.4497,2.4497,2.4497,2.4497,2.4497,2.4497,2.4497,2.4497,2.4497,2.4497,2.4497,2.5768,2.711,2.711,2.8422,2.9792,2.9792,3.0218,3.047,2.9917,3.0231,3.0532,3.0244,2.998,2.988,3.0143,2.9967,2.9792,2.9792,2.9792,2.9792,2.9792,2.9792,2.9792,2.9792,2.9792,2.9792,2.9792,2.9792,3.0101,3.0857,3.1267,3.1988,3.3143,3.3555,3.3962,3.438,3.4414,3.4414,3.4414,3.4414,3.4414,3.4414,3.4414,3.4414,1.4957,1.5215,1.5431,1.559,1.7401,1.9172,1.9376,2.1217,2.2802,2.2459,2.2749,2.307,2.307,2.3008,2.3122,2.367,2.3764,2.3919,2.4321,2.4456,2.4497,2.4497,2.4497,2.4497,2.4497,2.4497,2.4497,2.4497,2.4425,2.426,2.394,2.3805,2.3546,2.308,2.307,2.3029,2.2946,2.1869,2.0987,2.0391,1.9712,1.9515,1.9756,2.0329,2.0481,2.0357,2.0588,2.1364,2.2414,2.2604,2.3325,2.4394,2.4466,2.4497,2.4497,2.4497,2.4497,2.4497,2.4497,2.4497,2.4497,2.4497,2.4497,2.4497,2.4497,2.4497,2.4497,2.4497,2.5768,2.711,2.711,2.8422,2.9792,2.9792,3.0218,3.047,2.9917,3.0231,3.0583,3.0495,3.0105,2.9942,3.0394,3.0093,2.9792,2.9792,2.9792,2.9792,2.9792,2.9792,2.9792,2.9792,2.9792,2.9792,2.9792,2.9934,3.0317,3.1044,3.1856,3.2613,3.3367,3.4045,3.4414,3.4414,3.4414,3.4414,3.4414,3.4414,3.4414,3.4414,3.4414,3.4414,1.4692,1.5082,1.559,1.6345,1.7497,1.8692,1.9615,2.0791,2.1753,2.1873,2.2263,2.2594,2.2594,2.2263,2.2273,2.3143,2.3277,2.3432,2.3898,2.4302,2.4497,2.4497,2.4497,2.4497,2.4497,2.4497,2.4497,2.4497,2.4188,2.3939,2.3888,2.3494,2.307,2.2604,2.2594,2.2397,2.1994,2.1806,2.112,1.9962,1.9877,2.0386,2.1454,2.1576,2.1191,2.0536,2.1679,2.2327,2.253,2.3371,2.3815,2.4002,2.4342,2.4497,2.4497,2.4497,2.4497,2.4497,2.4497,2.4497,2.4497,2.4497,2.4497,2.4497,2.4497,2.4497,2.4497,2.4497,2.5768,2.711,2.711,2.8422,2.9792,2.9792,3.0218,3.047,2.9917,3.0231,3.047,2.9993,2.9842,2.9817,2.9892,2.9842,2.9792,2.9792,2.9792,2.9792,2.9792,2.9792,2.9792,2.9792,2.9792,2.9792,2.9792,3.0381,3.1082,3.1892,3.2648,3.3416,3.4196,3.4332,3.4414,3.4414,3.4414,3.4414,3.4414,3.4414,3.4414,3.4414,3.4414,3.4414,1.4824,1.5082,1.534,1.5865,1.6636,1.7514,1.8458,1.9335,2.017,2.0794,2.1275,2.1703,2.2066,2.1942,2.2025,2.2687,2.2801,2.2956,2.3422,2.366,2.3877,2.4136,2.4167,2.4271,2.4476,2.4322,2.4281,2.4476,2.4136,2.3805,2.3505,2.3298,2.2853,2.2128,2.2108,2.2014,2.1807,2.1807,2.1514,2.0959,2.0717,2.1015,2.1807,2.1807,2.1606,2.1262,2.186,2.2263,2.2542,2.3215,2.365,2.3919,2.4321,2.4497,2.4497,2.4497,2.4497,2.4497,2.4497,2.4497,2.4497,2.4497,2.4497,2.4497,2.4497,2.4497,2.4497,2.4497,2.5768,2.711,2.711,2.8422,2.9792,2.9792,2.998,3.0093,2.9842,3.0231,3.0457,2.9892,3.0043,3.0156,2.9842,2.9792,2.9792,2.9792,2.9792,2.9792,2.9792,2.9792,2.9792,2.9792,2.9792,2.9972,3.0381,3.072,3.1402,3.2648,3.3003,3.3555,3.438,3.4414,3.4414,3.4414,3.4414,3.4414,3.4414,3.4414,3.4414,3.4414,3.4414,3.4414,1.4873,1.5041,1.5131,1.5347,1.5996,1.6708,1.7372,1.8271,1.9209,1.9969,2.0619,2.1189,2.1631,2.1769,2.1921,2.2263,2.2418,2.2615,2.2956,2.3111,2.3318,2.366,2.3805,2.4012,2.4301,2.4178,2.4136,2.4311,2.396,2.3505,2.3039,2.2904,2.2522,2.1828,2.1807,2.1807,2.1807,2.1683,2.1683,2.1797,2.1331,2.1362,2.1807,2.1807,2.1807,2.1807,2.1807,2.2004,2.2356,2.2822,2.3215,2.3588,2.4157,2.4332,2.4342,2.4456,2.4497,2.4497,2.4497,2.4497,2.4497,2.4497,2.4497,2.4497,2.4497,2.4497,2.4497,2.4497,2.5768,2.711,2.711,2.8422,2.9792,2.9792,2.9792,2.9792,2.9792,3.0118,3.0281,2.988,3.0118,3.0281,2.9867,2.9792,2.9792,2.9792,2.9792,2.9842,2.998,2.988,2.9842,2.9993,2.988,3.0101,3.082,3.1082,3.1769,3.3108,3.3402,3.3776,3.438,3.4414,3.4414,3.4414,3.4414,3.4414,3.4414,3.4414,3.4414,3.4414,3.4414,3.4414,1.465,1.4915,1.5131,1.5347,1.6049,1.6748,1.6976,1.8337,1.9612,1.9876,2.073,2.1482,2.1502,2.1655,2.1818,2.1838,2.2211,2.2501,2.2532,2.2915,2.3194,2.3215,2.3649,2.3888,2.3908,2.4271,2.4301,2.395,2.3484,2.3018,2.2563,2.2118,2.1859,2.1807,2.1807,2.1807,2.1807,2.1373,2.1373,2.1797,2.1331,2.1362,2.1807,2.1807,2.1807,2.1807,2.1807,2.1818,2.188,2.2335,2.2542,2.2656,2.3567,2.3919,2.396,2.4342,2.4497,2.4497,2.4497,2.4497,2.4497,2.4497,2.4497,2.4497,2.4497,2.4497,2.4497,2.4497,2.5768,2.711,2.711,2.8422,2.9792,2.9792,2.9792,2.9792,2.9792,2.9817,2.9829,2.9804,2.9817,2.9829,2.9792,2.9792,2.9792,2.9792,2.9792,2.998,3.0507,3.0118,2.9993,3.052,3.0105,3.0101,3.082,3.1599,3.2362,3.3143,3.3928,3.4346,3.4414,3.4414,3.4414,3.4414,3.4414,3.4414,3.4414,3.4414,3.4414,3.4414,3.4414,3.4414,1.444,1.4657,1.4915,1.5131,1.5386,1.5703,1.6285,1.7167,1.8047,1.8731,1.9828,2.0752,2.0988,2.146,2.1807,2.1807,2.1942,2.2056,2.2056,2.2201,2.2408,2.2708,2.2894,2.3111,2.3412,2.3577,2.3722,2.3909,2.3453,2.3111,2.2946,2.2501,2.2118,2.1818,2.1807,2.1807,2.1807,2.1642,2.1642,2.1807,2.1631,2.1642,2.1807,2.1807,2.1807,2.1807,2.1807,2.1807,2.1849,2.2304,2.2501,2.2563,2.3184,2.3619,2.394,2.4053,2.4291,2.4497,2.4497,2.4497,2.4497,2.4497,2.4497,2.4497,2.4497,2.4497,2.4497,2.4497,2.5768,2.711,2.711,2.8422,2.9792,2.9792,2.9792,2.9792,2.9792,2.9792,2.9792,2.9792,3.008,3.0206,2.9854,3.0093,3.0206,2.9842,2.9792,2.9867,3.0068,3.0218,3.044,3.0765,3.092,3.1389,3.2304,3.2648,3.3122,3.3928,3.423,3.4414,3.4414,3.4414,3.4414,3.4414,3.4414,3.4414,3.4414,3.4414,3.4414,3.4414,3.4414,3.4414,1.4363,1.4566,1.4776,1.5048,1.5097,1.5224,1.5736,1.6578,1.7445,1.8058,1.9393,2.0554,2.0865,2.1336,2.1731,2.1807,2.1807,2.1807,2.1807,2.1807,2.1921,2.2232,2.2397,2.2615,2.2925,2.3091,2.3246,2.3401,2.3132,2.2884,2.2729,2.2428,2.2128,2.1818,2.1807,2.1807,2.1807,2.1807,2.1807,2.1807,2.1807,2.1807,2.1807,2.1807,2.1807,2.1807,2.1807,2.1807,2.1828,2.2139,2.2263,2.2304,2.277,2.3143,2.3453,2.3764,2.4064,2.4301,2.4445,2.4497,2.4497,2.4497,2.4497,2.4497,2.4497,2.4497,2.4583,2.4861,2.5966,2.7191,2.7476,2.8673,2.9792,2.9792,2.9792,2.9792,2.9792,2.9942,3.0068,3.0068,3.0369,3.0557,3.0369,3.0331,3.0281,3.0093,2.9917,2.9917,3.0281,3.0759,3.124,3.1732,3.1988,3.2532,3.3472,3.3354,3.3555,3.4346,3.4414,3.4414,3.4414,3.4414,3.4414,3.4414,3.4414,3.4414,3.4414,3.4414,3.4414,3.4414,3.4414,3.4414,0.0,0.0,0.0,1.4999,1.5257,1.5389,1.5389,1.6714,1.7957,1.7997,1.9529,2.0906,2.1167,2.1359,2.154,2.1769,2.1807,2.1807,2.1807,2.1807,2.1807,2.1807,2.2201,2.248,2.248,2.2894,2.2977,2.2532,2.2501,2.2304,2.1849,2.1818,2.1807,2.1807,2.1807,2.1807,2.1807,2.1807,2.1807,2.1807,2.1807,2.1807,2.1807,2.1807,2.1807,2.1807,2.1807,2.1807,2.1807,2.1807,2.1807,2.1849,2.2304,2.248,2.2604,2.3525,2.3909,2.395,2.4342,2.4497,2.4497,2.4487,2.4476,2.4476,2.4476,2.4519,2.468,2.5537,2.6442,2.7354,2.8303,2.917,2.9792,2.9792,2.9792,2.9792,2.9792,3.0231,3.062,3.062,3.062,3.0783,3.1286,3.0507,2.9993,3.052,3.0131,3.0168,3.1235,3.1692,3.2306,3.3366,3.3215,3.3353,3.4119,3.3614,3.3555,3.4346,3.4414,3.4414,3.4414,3.4414,3.4414,3.4414,3.4414,3.4414,3.4414,3.4414,3.4414,3.4414,3.4414,3.4414,1.4166,0.0,0.0,0.0,0.0,0.0,1.5389,1.6263,1.7229,1.7876,1.8926,1.9981,2.0819,2.1138,2.1359,2.154,2.1693,2.1807,2.1807,2.1807,2.1807,2.1807,2.1921,2.1994,2.1994,2.2418,2.2635,2.2511,2.2501,2.2439,2.2315,2.1983,2.1807,2.1807,2.1807,2.1807,2.1807,2.1807,2.1807,2.1807,2.1807,2.1807,2.1807,2.1807,2.1807,2.1807,2.1807,2.1807,2.1807,2.1807,2.1807,2.1818,2.1942,2.2201,2.2563,2.3163,2.3588,2.395,2.4342,2.4497,2.4445,2.4167,2.4064,2.4064,2.4064,2.4503,2.5116,2.5648,2.6935,2.8343,2.9209,2.9624,2.9792,2.9792,2.9792,2.9792,2.9792,3.0231,3.062,3.062,3.062,3.0658,3.0809,3.0583,3.0306,3.0055,2.9892,3.0043,3.0733,3.1795,3.2632,3.3015,3.3878,3.4413,3.4355,3.418,3.4147,3.438,3.4414,3.4414,3.4414,3.4414,3.4414,3.4414,3.4414,3.4414,3.4414,3.4414,3.4414,3.4414,3.4414,3.4414,1.4088,1.4328,1.4566,1.465,0.0,0.0,1.5389,1.6353,1.7391,1.7917,1.8966,2.0059,2.078,2.0984,2.1128,2.1359,2.154,2.1693,2.1807,2.1807,2.1807,2.1807,2.1807,2.1807,2.1807,2.2056,2.2211,2.2211,2.2211,2.2211,2.2211,2.1952,2.1807,2.1807,2.1807,2.1807,2.1807,2.1807,2.1807,2.1807,2.1807,2.1807,2.1807,2.1807,2.1807,2.1807,2.1807,2.1807,2.1807,2.1807,2.1807,2.1807,2.1807,2.1973,2.2294,2.2946,2.336,2.3681,2.428,2.4373,2.4219,2.396,2.3919,2.3919,2.4105,2.4934,2.5953,2.6468,2.7801,2.9219,2.995,3.0131,3.0131,3.0131,3.0131,3.0068,2.9842,3.0043,3.0344,3.057,3.062,3.0683,3.0896,3.057,3.0244,3.0143,2.9942,3.0097,3.0929,3.211,3.3064,3.371,3.4618,3.5082,3.483,3.4559,3.4414,3.4414,3.4414,3.4414,3.4414,3.4414,3.4414,3.4414,3.4414,3.4414,3.4414,3.4414,3.4414,3.4414,3.4414,3.4414,1.4088,1.437,1.465,1.4692,1.5041,0.0,1.5389,1.6591,1.7755,1.7957,1.9234,2.0411,2.078,2.0867,2.0945,2.1128,2.1359,2.155,2.1731,2.1807,2.1807,2.1807,2.1807,2.1807,2.1807,2.1807,2.1807,2.1807,2.1807,2.1807,2.1807,2.1807,2.1807,2.1807,2.1807,2.1807,2.1807,2.1807,2.1807,2.1807,2.1807,2.1807,2.1807,2.1807,2.1807,2.1807,2.1807,2.1807,2.1807,2.1807,2.1807,2.1807,2.1807,2.1807,2.1911,2.2791,2.3143,2.3308,2.4073,2.4167,2.3857,2.3764,2.3722,2.3846,2.4335,2.553,2.6899,2.7901,2.8972,2.9917,3.047,3.057,3.0545,3.0608,3.057,3.0407,2.998,2.9829,2.9942,3.0432,3.052,3.0683,3.121,3.047,2.9955,3.0457,3.0105,3.0265,3.1525,3.2468,3.3508,3.4738,3.5189,3.5378,3.5305,3.4733,3.4414,3.4414,3.4414,3.4414,3.4414,3.4414,3.4414,3.4414,3.4414,3.4414,3.4414,3.4414,3.4414,3.4414,3.4414,3.4414,1.4088,1.4286,1.4482,1.465,1.4915,0.0,1.5347,1.5673,1.6312,1.7715,1.8278,1.8957,2.0401,2.078,2.0906,2.0945,2.1138,2.132,2.154,2.1693,2.1807,2.1807,2.1807,2.1807,2.1807,2.1807,2.1807,2.1807,2.1807,2.1807,2.1807,2.1807,2.1807,2.1807,2.1807,2.1807,2.1807,2.1807,2.1807,2.1807,2.1807,2.1807,2.1807,2.1807,2.1807,2.1807,2.1807,2.1807,2.1807,2.1807,2.1807,2.1807,2.1807,2.1807,2.188,2.2428,2.2873,2.3215,2.3391,2.3639,2.3795,2.3008,2.277,2.3002,2.4153,2.5494,2.7198,2.9931,3.0241,2.9917,3.047,3.0281,3.0068,3.0507,3.0281,3.0043,3.0382,3.0105,2.9829,2.993,2.9955,3.0131,3.067,3.0218,2.9829,2.9942,2.9867,3.0265,3.1525,3.2468,3.3307,3.4192,3.4945,3.5189,3.4646,3.4486,3.4414,3.4414,3.4414,3.4414,3.4414,3.4414,3.4414,3.4414,3.4414,3.4414,3.4414,3.4414,3.4414,3.4414,3.4414,3.4414,1.4286,1.4489,1.4783,1.4866,1.5082,0.0,0.0,1.5748,1.6257,1.6951,1.7949,1.8863,1.958,2.0265,2.0741,2.0741,2.0935,2.1099,2.1167,2.1474,2.1693,2.1807,2.1807,2.1807,2.1807,2.1807,2.1807,2.1807,2.1807,2.1807,2.1807,2.1807,2.1807,2.1807,2.1807,2.1807,2.1807,2.2035,2.2035,2.1807,2.2035,2.2035,2.1807,2.1807,2.1807,2.1807,2.1807,2.1807,2.1807,2.1807,2.1807,2.1807,2.1807,2.1807,2.1859,2.2325,2.2646,2.2873,2.3111,2.3184,2.3111,2.2646,2.2951,2.3677,2.4578,2.6262,2.8286,3.0425,3.0419,2.998,3.0796,3.0608,3.0269,3.0557,3.0407,3.0206,3.0206,2.9993,2.9792,2.9792,2.9792,2.988,3.0156,2.998,2.9792,2.9792,2.9792,3.0318,3.1702,3.23,3.3009,3.4121,3.4638,3.4762,3.4443,3.4414,3.4414,3.4414,3.4414,3.4414,3.4414,3.4414,3.4414,3.4414,3.4414,3.4414,3.4414,3.4414,3.4414,3.4414,3.4414,3.4414,1.4503,1.4783,1.509,1.509,1.5257,1.5389,0.0,0.0,0.0,1.6525,1.7863,1.9082,1.9141,1.9937,2.0605,2.0605,2.0731,2.0867,2.0906,2.1167,2.1504,2.1778,2.1783,2.18,2.1845,2.1904,2.1901,2.1818,2.189,2.1901,2.1807,2.1807,2.1807,2.1807,2.1807,2.1807,2.1807,2.2263,2.2263,2.1818,2.2273,2.2252,2.1807,2.1807,2.1807,2.1807,2.1807,2.1807,2.1807,2.1807,2.1807,2.1807,2.1807,2.1807,2.1849,2.2232,2.2418,2.2532,2.2822,2.2847,2.2705,2.2621,2.3615,2.4893,2.5384,2.7197,2.9262,3.0294,3.0218,3.0018,3.0984,3.0846,3.0482,3.0595,3.0532,3.0369,3.003,2.9867,2.9792,2.9792,2.9792,2.9792,2.9792,2.9792,2.9792,2.9792,2.9934,3.0508,3.1942,3.2218,3.284,3.4264,3.4414,3.4414,3.4414,3.4414,3.4414,3.4414,3.4414,3.4414,3.4414,3.4414,3.4414,3.4414,3.4414,3.4414,3.4414,3.4414,3.4414,3.4414,3.4414,3.4414,1.4622,1.4873,1.509,1.509,1.5257,1.5389,1.5389,0.0,1.5982,1.7503,0.0,1.863,2.01,0.0,0.0,2.0605,2.0605,2.0693,2.0867,2.0945,2.1162,2.1728,2.1814,2.1886,2.2053,2.229,2.2242,2.1838,2.219,2.2242,2.1828,2.1807,2.1807,2.1807,2.1807,2.1807,2.1807,2.2263,2.2263,2.1818,2.2273,2.2252,2.1807,2.1807,2.1807,2.1807,2.1807,2.1807,2.1807,2.1807,2.1807,2.1807,2.1807,2.1807,2.1818,2.1859,2.2149,2.2449,2.2087,2.267,2.3509,2.3069,2.4283,2.6016,2.6542,2.7748,2.9162,3.0292,3.0218,2.993,3.0545,3.0294,3.0005,3.0507,3.0244,3.0005,3.0432,3.0143,2.9792,2.9792,2.9792,2.9792,2.9792,2.9792,2.9792,2.9792,3.0343,3.1095,3.1978,3.2684,3.3416,3.4312,3.4414,3.4414,3.4414,3.4414,3.4414,3.4414,3.4414,3.4414,3.4414,3.4414,3.4414,3.4414,3.4414,3.4414,3.4414,3.4414,3.4414,3.4414,3.4414,3.4481,1.4921,1.4954,1.5025,1.5213,1.5202,1.5155,1.5345,1.5389,1.5696,1.6758,0.0,0.0,0.0,0.0,0.0,0.0,2.0605,2.0644,2.0693,2.0819,2.1053,2.1418,2.147,2.1545,2.1718,2.2218,2.2304,2.1849,2.2232,2.2294,2.1828,2.2066,2.2087,2.1818,2.2066,2.2076,2.1807,2.2532,2.2532,2.1818,2.2542,2.2511,2.1807,2.1921,2.2105,2.2384,2.2227,2.2296,2.2527,2.2254,2.2138,2.2149,2.2025,2.1921,2.1807,2.1807,2.1932,2.2143,2.2401,2.2859,2.3446,2.4482,2.5404,2.6251,2.6943,2.7965,2.8988,2.9465,2.9716,2.9917,3.047,3.0206,2.9854,3.008,2.9955,2.9942,3.0495,3.0181,2.9892,3.0206,3.0269,3.0168,2.9842,2.9792,2.9934,3.0381,3.0683,3.1328,3.2577,3.3003,3.352,3.4298,3.4414,3.4448,3.4563,3.4481,3.4448,3.4563,3.4448,3.4414,3.4414,3.4414,3.4448,3.4563,3.4448,3.4448,3.4563,3.4563,3.4563,3.4563,3.4563,3.465,1.5063,1.4953,1.498,1.5309,1.5206,1.5097,1.533,1.5389,1.5598,1.6212,1.704,0.0,0.0,0.0,1.9962,2.0206,0.0,2.0333,2.0566,2.0731,2.0907,2.1182,2.1231,2.1336,2.1484,2.2189,2.236,2.1849,2.2356,2.248,2.2025,2.219,2.2211,2.2004,2.2201,2.2149,2.1807,2.2718,2.2758,2.1894,2.2789,2.2787,2.1959,2.2199,2.2517,2.2861,2.2677,2.2796,2.3073,2.2594,2.2402,2.2402,2.2252,2.2101,2.1959,2.1845,2.1959,2.2235,2.2956,2.3512,2.4101,2.5697,2.6213,2.6345,2.7089,2.7946,2.87,2.885,2.934,2.988,3.0281,3.0093,2.9792,2.9792,2.9905,3.0131,3.0532,3.0306,3.0181,3.0721,3.0708,3.0532,3.0281,3.0288,3.0445,3.0846,3.1254,3.1938,3.3143,3.3471,3.3845,3.4467,3.4549,3.4616,3.475,3.4616,3.4616,3.4765,3.4616,3.4549,3.4549,3.4549,3.4616,3.475,3.4616,3.4616,3.475,3.475,3.4798,3.4831,3.4798,3.485,1.4834,1.4907,1.498,1.5309,1.5382,1.5374,1.5382,1.5389,1.5624,1.6527,1.6731,1.7017,1.7859,1.8069,1.8359,0.0,1.9341,0.0,0.0,2.0605,2.0762,2.1162,2.1371,2.1471,2.1504,2.2358,2.2591,2.1831,2.2646,2.2956,2.2501,2.2066,2.2025,2.2459,2.2056,2.1818,2.1807,2.2718,2.2837,2.2122,2.2858,2.2895,2.2386,2.265,2.291,2.3076,2.3094,2.3105,2.3073,2.2594,2.2402,2.2402,2.2402,2.2402,2.2327,2.1949,2.2289,2.3029,2.3569,2.4742,2.6058,2.6362,2.649,2.659,2.7118,2.7682,2.8247,2.8737,2.934,2.9792,2.9817,2.9804,2.9792,2.9792,3.0206,3.0595,3.062,3.0608,3.0746,3.126,3.0959,3.0771,3.1248,3.1496,3.1459,3.0973,3.2169,3.3213,3.3471,3.4182,3.4716,3.4868,3.4902,3.4902,3.4902,3.4902,3.4902,3.4902,3.4902,3.4902,3.4902,3.4902,3.4902,3.4902,3.4902,3.4902,3.4902,3.4902,3.5001,3.518,3.4968,3.5001,1.4878,1.4965,1.5026,1.505,1.5295,1.5515,1.5411,1.5389,1.5665,1.6542,1.6698,1.6984,1.7836,1.7997,1.8287,0.0,0.0,1.9618,0.0,2.0605,2.0664,2.0771,2.0958,2.1143,2.1292,2.1985,2.2244,2.1811,2.2377,2.2532,2.2066,2.218,2.219,2.2045,2.218,2.2118,2.1807,2.2418,2.2535,2.2111,2.2663,2.2748,2.2413,2.2638,2.2932,2.3288,2.3118,2.3394,2.3974,2.3151,2.2961,2.3221,2.2784,2.259,2.2628,2.274,2.3187,2.3875,2.4943,2.5781,2.6377,2.648,2.6499,2.6622,2.7316,2.7873,2.8429,2.8949,2.9517,2.9972,2.983,2.9792,2.9918,3.0401,3.0549,3.0849,3.1741,3.1508,3.1286,3.1838,3.1924,3.1871,3.1681,3.2659,3.3184,3.2516,3.3076,3.3796,3.4356,3.4654,3.4835,3.4902,3.4902,3.4935,3.5082,3.5115,3.5034,3.4902,3.4902,3.4902,3.4902,3.4902,3.4968,3.5115,3.4968,3.4968,3.5115,3.5115,3.5115,3.518,3.5261,3.5326,1.5288,1.5428,1.5565,1.5919,1.6111,1.6156,1.5942,1.5734,1.5845,1.6552,1.6698,1.6984,1.7836,1.7997,1.8287,0.0,0.0,1.9618,0.0,2.0605,2.0605,2.0605,2.0693,2.0896,2.1167,2.1725,2.2002,2.18,2.2232,2.2366,2.2066,2.2335,2.2356,2.2066,2.2335,2.2273,2.1807,2.2263,2.2418,2.2225,2.2611,2.2745,2.2639,2.2848,2.3161,2.348,2.3319,2.3624,2.4148,2.334,2.3187,2.34,2.2971,2.2953,2.3261,2.3586,2.4367,2.5382,2.6372,2.6831,2.6867,2.6734,2.6831,2.7094,2.7542,2.8074,2.8611,2.9171,2.9554,2.9821,2.9947,3.0085,3.0325,3.0863,3.1217,3.1567,3.2196,3.2089,3.1994,3.2277,3.2561,3.2746,3.2894,3.3962,3.441,3.3449,3.3832,3.439,3.4935,3.5001,3.5034,3.5115,3.5322,3.5522,3.5636,3.546,3.5261,3.5115,3.5115,3.5115,3.5115,3.5115,3.5403,3.5963,3.5403,3.5403,3.5997,3.5517,3.5326,3.5326,3.5439,3.5504]}]]